[[{"header":{"parameterUnit":"m.s-1","parameterCategory":1,"la1":30.6,"la2":28.766,"lo1":-90.7593,"lo2":-88.6598,"dy":0.0162,"dx":0.0183,"nx":116,"ny":114,"refTime":"2024-03-15T06:00:00:Z","depth":0,"parameterNumber":2,"parameterNumberName":"U-component_of_WINDS"},"data":[0.0,0.0,0.0,0.0,0.0,0.0,0.0,0.0,0.0,0.0,0.0,0.0,0.0,0.0,0.0,0.0,0.0,0.0,0.0,0.0,0.0,0.0,0.0,0.0,0.0,0.0,0.0,0.0,0.0,0.0,0.0,0.0,0.0,0.0,0.0,0.0,0.0,0.0,0.0,0.0,0.0,0.0,0.0,0.0,0.0,0.0,0.0,0.0,0.0,0.0,0.0,0.0,0.0,0.0,0.0,0.0,0.0,0.0,0.0,0.0,0.0,0.0,0.0,0.0,0.0,0.0,0.0,0.0,0.0,0.0,0.0,0.0,0.0,0.0,0.0,0.0,0.0,0.0,0.0,0.0,0.0,0.0,0.0,0.0,0.0,0.0,0.0,0.0,0.0,0.0,0.0,0.0,0.0,0.0,0.0,0.0,0.0,0.0,0.0,0.0,0.0,0.0,0.0,0.0,0.0,0.0,0.0,0.0,0.0,0.0,0.0,0.0,0.0,0.0,0.0,0.0,0.0,0.0,0.0,0.0,0.0,0.0,0.0,0.0,0.0,0.0,0.0,0.0,0.0,0.0,0.0,0.0,0.0,0.0,0.0,0.0,0.0,0.0,0.0,0.0,0.0,0.0,0.0,0.0,0.0,0.0,0.0,0.0,0.0,0.0,0.0,0.0,0.0,0.0,0.0,0.0,0.0,0.0,0.0,0.0,0.0,0.0,0.0,0.0,0.0,0.0,0.0,0.0,0.0,0.0,0.0,0.0,0.0,0.0,0.0,0.0,0.0,0.0,0.0,0.0,0.0,0.0,0.0,0.0,0.0,0.0,0.0,0.0,0.0,0.0,0.0,0.0,0.0,0.0,0.0,0.0,0.0,0.0,0.0,0.0,0.0,0.0,0.0,0.0,0.0,0.0,0.0,0.0,0.0,0.0,0.0,0.0,0.0,0.0,0.0,0.0,0.0,0.0,0.0,0.0,0.0,0.0,0.0,0.0,0.0,0.0,0.0,0.0,0.0,0.0,0.0,0.0,0.0,0.0,0.0,0.0,0.0,0.0,0.0,0.0,0.0,0.0,0.0,0.0,0.0,0.0,0.0,0.0,0.0,0.0,0.0,0.0,0.0,0.0,0.0,0.0,0.0,0.0,0.0,0.0,0.0,0.0,0.0,0.0,0.0,0.0,0.0,0.0,0.0,0.0,0.0,0.0,0.0,0.0,0.0,0.0,0.0,0.0,0.0,0.0,0.0,0.0,0.0,0.0,0.0,0.0,0.0,0.0,0.0,0.0,0.0,0.0,0.0,0.0,0.0,0.0,0.0,0.0,0.0,0.0,0.0,0.0,0.0,0.0,0.0,0.0,0.0,0.0,0.0,0.0,0.0,0.0,0.0,0.0,0.0,0.0,0.0,0.0,0.0,0.0,0.0,0.0,0.0,0.0,0.0,0.0,0.0,0.0,0.0,0.0,0.0,0.0,0.0,0.0,0.0,0.0,0.0,0.0,0.0,0.0,0.0,0.0,0.0,0.0,0.0,0.0,0.0,0.0,0.0,0.0,0.0,0.0,0.0,0.0,0.0,0.0,0.0,0.0,0.0,0.0,0.0,0.0,0.0,0.0,0.0,0.0,0.0,0.0,0.0,0.0,0.0,0.0,0.0,0.0,0.0,0.0,0.0,0.0,0.0,0.0,0.0,0.0,0.0,0.0,0.0,0.0,0.0,0.0,0.0,0.0,0.0,0.0,0.0,0.0,0.0,0.0,0.0,0.0,0.0,0.0,0.0,0.0,0.0,0.0,0.0,0.0,0.0,0.0,0.0,0.0,0.0,0.0,0.0,0.0,0.0,0.0,0.0,0.0,0.0,0.0,0.0,0.0,0.0,0.0,0.0,0.0,0.0,0.0,0.0,0.0,0.0,0.0,0.0,0.0,0.0,0.0,0.0,0.0,0.0,0.0,0.0,0.0,0.0,0.0,0.0,0.0,0.0,0.0,0.0,0.0,0.0,0.0,0.0,0.0,0.0,0.0,0.0,0.0,0.0,0.0,0.0,0.0,0.0,0.0,0.0,0.0,0.0,0.0,0.0,0.0,0.0,0.0,0.0,0.0,0.0,0.0,0.0,0.0,0.0,0.0,0.0,0.0,0.0,0.0,0.0,0.0,0.0,0.0,0.0,0.0,0.0,0.0,0.0,0.0,0.0,0.0,0.0,0.0,0.0,0.0,0.0,0.0,0.0,0.0,0.0,0.0,0.0,0.0,0.0,0.0,0.0,0.0,0.0,0.0,0.0,0.0,0.0,0.0,0.0,0.0,0.0,0.0,0.0,0.0,0.0,0.0,0.0,0.0,0.0,0.0,0.0,0.0,0.0,0.0,0.0,0.0,0.0,0.0,0.0,0.0,0.0,0.0,0.0,0.0,0.0,0.0,0.0,0.0,0.0,0.0,0.0,0.0,0.0,0.0,0.0,0.0,0.0,0.0,0.0,0.0,0.0,0.0,0.0,0.0,0.0,0.0,0.0,0.0,0.0,0.0,0.0,0.0,0.0,0.0,0.0,0.0,0.0,0.0,0.0,0.0,0.0,0.0,0.0,0.0,0.0,0.0,0.0,0.0,0.0,0.0,0.0,0.0,0.0,0.0,0.0,0.0,0.0,0.0,0.0,0.0,0.0,0.0,0.0,0.0,0.0,0.0,0.0,0.0,0.0,0.0,0.0,0.0,0.0,0.0,0.0,0.0,0.0,0.0,0.0,0.0,0.0,0.0,0.0,0.0,0.0,0.0,0.0,0.0,0.0,0.0,0.0,0.0,0.0,0.0,0.0,0.0,0.0,0.0,0.0,0.0,0.0,0.0,0.0,0.0,0.0,0.0,0.0,0.0,0.0,0.0,0.0,0.0,0.0,0.0,0.0,0.0,0.0,0.0,0.0,0.0,0.0,0.0,0.0,0.0,0.0,0.0,0.0,0.0,0.0,0.0,0.0,0.0,0.0,0.0,0.0,0.0,0.0,0.0,0.0,0.0,0.0,0.0,0.0,0.0,0.0,0.0,0.0,0.0,0.0,0.0,0.0,0.0,0.0,0.0,0.0,0.0,0.0,0.0,0.0,0.0,0.0,0.0,0.0,0.0,0.0,0.0,0.0,0.0,0.0,0.0,0.0,0.0,0.0,0.0,0.0,0.0,0.0,0.0,0.0,0.0,0.0,0.0,0.0,0.0,0.0,0.0,0.0,0.0,0.0,0.0,0.0,0.0,0.0,0.0,0.0,0.0,0.0,0.0,0.0,0.0,0.0,0.0,0.0,0.0,0.0,0.0,0.0,0.0,0.0,0.0,0.0,0.0,0.0,0.0,0.0,0.0,0.0,0.0,0.0,0.0,0.0,0.0,0.0,0.0,0.0,0.0,0.0,0.0,0.0,0.0,0.0,0.0,0.0,0.0,0.0,0.0,0.0,0.0,0.0,0.0,0.0,0.0,0.0,0.0,0.0,0.0,0.0,0.0,0.0,0.0,0.0,0.0,0.0,0.0,0.0,0.0,0.0,0.0,0.0,0.0,0.0,0.0,0.0,0.0,0.0,0.0,0.0,0.0,0.0,0.0,0.0,0.0,0.0,0.0,0.0,0.0,0.0,0.0,0.0,0.0,0.0,0.0,0.0,0.0,0.0,0.0,0.0,0.0,0.0,0.0,0.0,0.0,0.0,0.0,0.0,0.0,0.0,0.0,0.0,0.0,0.0,0.0,0.0,0.0,0.0,0.0,0.0,0.0,0.0,0.0,0.0,0.0,0.0,0.0,0.0,0.0,0.0,0.0,0.0,0.0,0.0,0.0,0.0,0.0,0.0,0.0,0.0,0.0,0.0,0.0,0.0,0.0,0.0,0.0,0.0,0.0,0.0,0.0,0.0,0.0,0.0,0.0,0.0,0.0,0.0,0.0,0.0,0.0,0.0,0.0,0.0,0.0,0.0,0.0,0.0,0.0,0.0,0.0,0.0,0.0,0.0,0.0,0.0,0.0,0.0,0.0,0.0,0.0,0.0,0.0,0.0,0.0,0.0,0.0,0.0,0.0,0.0,0.0,0.0,0.0,0.0,0.0,0.0,0.0,0.0,0.0,0.0,0.0,0.0,0.0,0.0,0.0,0.0,0.0,0.0,0.0,0.0,0.0,0.0,0.0,0.0,0.0,0.0,0.0,0.0,0.0,0.0,0.0,0.0,0.0,0.0,0.0,0.0,0.0,0.0,0.0,0.0,0.0,0.0,0.0,0.0,0.0,0.0,0.0,0.0,0.0,0.0,0.0,0.0,0.0,0.0,0.0,0.0,0.0,0.0,0.0,0.0,0.0,0.0,0.0,0.0,0.0,0.0,0.0,0.0,0.0,0.0,0.0,0.0,0.0,0.0,0.0,0.0,0.0,0.0,0.0,0.0,0.0,0.0,0.0,0.0,0.0,0.0,0.0,0.0,0.0,0.0,0.0,0.0,0.0,0.0,0.0,0.0,0.0,0.0,0.0,0.0,0.0,0.0,0.0,0.0,0.0,0.0,0.0,0.0,0.0,0.0,0.0,0.0,0.0,0.0,0.0,0.0,0.0,0.0,0.0,0.0,0.0,0.0,0.0,0.0,0.0,0.0,0.0,0.0,0.0,0.0,0.0,0.0,0.0,0.0,0.0,0.0,0.0,0.0,0.0,0.0,0.0,0.0,0.0,0.0,0.0,0.0,0.0,0.0,0.0,0.0,0.0,0.0,0.0,0.0,0.0,0.0,0.0,0.0,0.0,0.0,0.0,0.0,0.0,0.0,0.0,0.0,0.0,0.0,0.0,0.0,0.0,0.0,0.0,0.0,0.0,0.0,0.0,0.0,0.0,0.0,0.0,0.0,0.0,0.0,0.0,0.0,0.0,0.0,0.0,0.0,0.0,0.0,0.0,0.0,0.0,0.0,0.0,0.0,0.0,0.0,0.0,0.0,0.0,0.0,0.0,0.0,0.0,0.0,0.0,0.0,0.0,0.0,0.0,0.0,0.0,0.0,0.0,0.0,0.0,0.0,0.0,0.0,0.0,0.0,0.0,0.0,0.0,0.0,0.0,0.0,0.0,0.0,0.0,0.0,0.0,0.0,0.0,0.0,0.0,0.0,0.0,0.0,0.0,0.0,0.0,0.0,0.0,0.0,0.0,0.0,0.0,0.0,0.0,0.0,0.0,0.0,0.0,0.0,0.0,0.0,0.0,0.0,0.0,0.0,0.0,0.0,0.0,0.0,0.0,0.0,0.0,0.0,0.0,0.0,0.0,0.0,0.0,0.0,0.0,0.0,0.0,0.0,0.0,0.0,0.0,0.0,0.0,0.0,0.0,0.0,0.0,0.0,0.0,0.0,0.0,0.0,0.0,0.0,0.0,0.0,0.0,0.0,0.0,0.0,0.0,0.0,0.0,0.0,0.0,0.0,0.0,0.0,0.0,0.0,0.0,0.0,0.0,0.0,0.0,0.0,0.0,0.0,0.0,0.0,0.0,0.0,0.0,0.0,0.0,0.0,0.0,0.0,0.0,0.0,0.0,0.0,0.0,0.0,0.0,0.0,0.0,0.0,0.0,0.0,0.0,0.0,0.0,0.0,0.0,0.0,0.0,0.0,0.0,0.0,0.0,0.0,0.0,0.0,0.0,0.0,0.0,0.0,0.0,0.0,0.0,0.0,0.0,0.0,0.0,0.0,0.0,0.0,0.0,0.0,0.0,0.0,0.0,0.0,0.0,0.0,0.0,0.0,0.0,0.0,0.0,0.0,0.0,0.0,0.0,0.0,0.0,0.0,0.0,0.0,0.0,0.0,0.0,0.0,0.0,0.0,0.0,0.0,0.0,0.0,0.0,0.0,0.0,0.0,0.0,0.0,0.0,0.0,0.0,0.0,0.0,0.0,0.0,0.0,0.0,0.0,0.0,0.0,0.0,0.0,0.0,0.0,0.0,0.0,0.0,0.0,0.0,0.0,0.0,0.0,0.0,0.0,0.0,0.0,0.0,0.0,0.0,0.0,0.0,0.0,0.0,0.0,0.0,0.0,0.0,0.0,0.0,0.0,0.0,0.0,0.0,0.0,0.0,0.0,0.0,0.0,0.0,0.0,0.0,2.1437,0.0,0.0,0.0,0.0,0.0,0.0,0.0,0.0,0.0,0.0,0.0,0.0,0.0,0.0,0.0,0.0,0.0,0.0,0.0,0.0,0.0,0.0,0.0,0.0,0.0,0.0,0.0,0.0,0.0,0.0,0.0,0.0,0.0,0.0,0.0,1.3198,1.3198,1.3198,1.3198,1.3496,1.391,1.4475,1.4149,1.3885,1.3622,0.0,0.0,0.0,0.0,0.0,0.0,0.0,0.0,0.0,0.0,0.0,0.0,0.0,0.0,0.0,0.0,0.0,0.0,0.0,0.0,0.0,0.0,0.0,0.0,0.0,0.0,0.0,0.0,0.0,0.0,0.0,0.0,0.0,0.0,0.0,0.0,0.0,0.0,0.0,0.0,0.0,0.0,0.0,0.0,0.0,0.0,0.0,0.0,0.0,0.0,0.0,0.0,0.0,0.0,0.0,0.0,0.0,0.0,0.0,0.0,0.0,0.0,0.0,0.0,0.0,0.0,0.0,0.0,0.0,0.0,0.0,2.1345,0.0,0.0,0.0,0.0,0.0,0.0,0.0,0.0,0.0,0.0,0.0,0.0,0.0,0.0,0.0,0.0,0.0,0.0,0.0,0.0,0.0,0.0,0.0,1.0283,1.0467,1.0829,1.1431,1.1957,1.2365,1.2838,1.3094,1.3094,1.3012,1.2978,1.3094,1.3094,1.3166,1.3348,1.406,1.4614,1.5054,1.5155,1.4903,1.4362,1.4274,0.0,0.0,0.0,0.0,0.0,0.0,0.0,0.0,0.0,0.0,0.0,0.0,0.0,0.0,0.0,0.0,0.0,0.0,0.0,0.0,0.0,0.0,0.0,0.0,0.0,0.0,0.0,0.0,0.0,0.0,0.0,0.0,0.0,0.0,0.0,0.0,0.0,0.0,0.0,0.0,0.0,0.0,0.0,0.0,0.0,0.0,0.0,0.0,0.0,0.0,0.0,0.0,0.0,0.0,0.0,0.0,0.0,0.0,0.0,0.0,0.0,0.0,0.0,2.1859,2.1859,2.2118,2.1783,2.1802,2.2118,2.1989,2.2337,2.2887,2.1511,0.0,0.0,0.0,0.0,0.0,0.0,0.0,0.0,0.0,0.0,0.0,0.0,0.0,0.0,0.0,0.0,0.0,0.0,0.0,0.0,0.0,1.0283,1.0322,1.04,1.1255,1.1811,1.1884,1.2318,1.2579,1.2579,1.221,1.2174,1.2579,1.2579,1.3057,1.3972,1.4977,1.5517,1.5593,1.607,1.6007,1.5454,1.5016,1.499,1.5341,0.0,0.0,0.0,0.0,0.0,0.0,0.0,0.0,0.0,0.0,0.0,0.0,0.0,0.0,0.0,0.0,0.0,0.0,0.0,0.0,0.0,0.0,0.0,0.0,0.0,0.0,0.0,0.0,0.0,0.0,0.0,0.0,0.0,0.0,0.0,0.0,0.0,0.0,0.0,0.0,0.0,1.7407,1.8475,0.0,0.0,0.0,0.0,0.0,0.0,0.0,0.0,0.0,0.0,0.0,0.0,0.0,2.083,2.1896,2.2234,2.2759,2.3449,2.3407,2.3407,2.3428,2.3111,2.3133,2.3412,2.2723,0.0,2.2978,2.2758,0.0,0.0,0.0,0.0,0.0,0.0,0.0,0.0,0.0,0.0,0.0,0.0,0.0,0.0,0.0,0.0,0.0,0.0,0.0,0.0,0.0,1.0488,1.0755,1.1064,1.1931,1.237,1.2135,1.254,1.2564,1.2125,1.192,1.2029,1.2508,1.2793,1.3616,1.5016,1.5454,1.5856,1.6158,1.6409,1.6384,1.6145,1.5906,1.5756,1.568,1.5442,0.0,0.0,0.0,0.0,0.0,0.0,0.0,0.0,0.0,0.0,0.0,0.0,0.0,0.0,0.0,0.0,0.0,0.0,0.0,0.0,0.0,0.0,0.0,0.0,0.0,0.0,0.0,0.0,0.0,0.0,0.0,0.0,0.0,0.0,0.0,0.0,0.0,0.0,0.0,1.7668,1.8322,1.9493,1.8984,1.8763,0.0,0.0,0.0,0.0,0.0,0.0,0.0,0.0,0.0,2.1447,2.1617,2.2322,2.3667,2.4212,2.4424,2.4316,2.4162,2.3952,2.3692,2.3346,2.3392,2.3696,2.3533,2.3428,2.3371,2.3106,2.2997,2.2942,0.0,0.0,0.0,0.0,2.1235,2.129,0.0,0.0,0.0,0.0,0.0,0.0,0.0,0.0,0.0,0.0,0.0,0.0,1.0439,1.0918,1.137,1.1665,1.2494,1.2785,1.2243,1.2505,1.2331,1.1623,1.1479,1.17,1.233,1.3225,1.444,1.5906,1.6057,1.6409,1.6948,1.6948,1.6848,1.6646,1.651,1.628,1.5894,1.5756,1.5454,1.513,0.0,0.0,0.0,0.0,0.0,0.0,0.0,0.0,0.0,0.0,0.0,0.0,0.0,0.0,0.0,0.0,0.0,0.0,0.0,0.0,0.0,0.0,0.0,0.0,0.0,0.0,0.0,0.0,0.0,0.0,0.0,0.0,0.0,0.0,0.0,0.0,0.0,1.8219,1.9038,2.0066,1.9443,1.9208,0.0,0.0,0.0,0.0,0.0,0.0,2.0559,2.0576,2.1295,2.2818,2.3065,2.3719,2.4861,2.5525,2.5428,2.4581,2.4449,2.4046,2.3455,2.3189,2.3212,2.3459,2.3795,2.3837,2.3678,2.3415,2.3271,2.3178,2.3052,2.2594,2.199,2.208,2.2044,2.2008,0.0,0.0,0.0,0.0,0.0,0.0,0.0,0.0,0.0,0.0,0.0,1.0879,1.0879,1.165,1.1992,1.165,1.246,1.2654,1.1774,1.1732,1.1562,1.1078,1.0611,1.084,1.1811,1.3812,1.5367,1.6471,1.7024,1.7576,1.8116,1.8116,1.776,1.705,1.6598,1.6414,1.6446,1.5919,1.568,1.5567,1.4576,0.0,0.0,0.0,0.0,0.0,0.0,0.0,0.0,0.0,0.0,0.0,0.0,0.0,0.0,0.0,0.0,0.0,0.0,0.0,0.0,0.0,0.0,0.0,0.0,0.0,0.0,0.0,0.0,0.0,0.0,0.0,0.0,0.0,0.0,0.0,0.0,0.0,0.0,1.8933,2.0095,0.0,0.0,0.0,0.0,1.9443,1.9746,2.0627,2.2124,2.2192,2.2868,2.4354,2.4388,2.4438,2.4506,2.5205,2.498,2.3952,2.4249,2.3827,2.2746,2.2746,2.2746,2.2772,2.3093,2.3414,2.3714,2.4019,2.3961,2.3608,2.3178,2.2773,2.2486,2.2831,2.2737,2.2632,0.0,0.0,0.0,0.0,0.0,0.0,0.0,0.0,1.0283,1.0283,1.0645,1.1016,1.1299,1.2119,1.2578,1.2422,1.3234,1.3252,1.2093,1.2013,1.1684,1.0985,1.0538,1.1242,1.3304,1.4672,1.6102,1.7601,1.7345,1.7291,1.7472,1.7022,1.6616,1.6405,1.6223,1.6015,1.5719,1.5636,1.5591,1.5593,1.5217,1.4774,0.0,0.0,0.0,0.0,0.0,0.0,0.0,0.0,0.0,0.0,0.0,0.0,0.0,0.0,0.0,0.0,0.0,0.0,0.0,0.0,0.0,0.0,0.0,0.0,0.0,0.0,0.0,0.0,0.0,0.0,0.0,0.0,0.0,0.0,0.0,0.0,0.0,1.9546,1.9814,0.0,1.9907,2.0194,2.0479,2.0783,2.1513,2.2454,2.365,2.3391,2.3811,2.5186,2.5203,2.5439,2.5896,2.6411,2.6208,2.5322,2.5,2.4382,2.3431,2.2937,2.2695,2.2721,2.3045,2.3141,2.3069,2.3414,2.361,2.3656,2.3282,2.3192,2.3277,2.3399,2.3499,2.3633,0.0,0.0,0.0,0.0,0.0,0.0,0.0,0.0,1.0332,1.0478,1.0859,1.1357,1.1988,1.2656,1.3096,1.3096,1.3603,1.3379,1.209,1.2002,1.1611,1.0742,1.0864,1.2058,1.4391,1.5129,1.6326,1.8105,1.7381,1.7194,1.7479,1.6841,1.6486,1.6374,1.609,1.5672,1.5116,1.5057,1.5148,1.5264,1.5089,1.4761,1.4284,0.0,0.0,0.0,0.0,0.0,0.0,0.0,0.0,0.0,0.0,0.0,0.0,0.0,0.0,0.0,0.0,0.0,0.0,0.0,0.0,0.0,0.0,0.0,0.0,0.0,0.0,0.0,0.0,0.0,0.0,0.0,0.0,0.0,0.0,0.0,2.0,2.0286,2.0363,2.041,2.0494,2.0936,2.1478,2.2053,2.2813,2.37,2.4816,2.4348,2.463,2.5914,2.5981,2.6201,2.6691,2.6842,2.645,2.5558,2.5005,2.4244,2.3354,2.2902,2.266,2.2573,2.2915,2.2923,2.2721,2.284,2.3087,2.3346,2.3236,2.3346,2.3544,2.3671,2.3837,2.4054,0.0,0.0,0.0,0.0,0.0,0.0,0.0,1.0283,1.043,1.085,1.1332,1.1949,1.2803,1.3262,1.3516,1.3525,1.3516,1.2959,1.1714,1.1606,1.1234,1.04,1.1624,1.314,1.4903,1.5115,1.6113,1.7926,1.7172,1.7334,1.8235,1.7779,1.7429,1.7151,1.6297,1.5526,1.4795,1.4375,1.4399,1.4651,1.4139,1.4275,1.4683,0.0,0.0,0.0,0.0,0.0,0.0,0.0,0.0,0.0,0.0,0.0,0.0,0.0,0.0,0.0,0.0,0.0,0.0,0.0,0.0,0.0,0.0,0.0,0.0,0.0,0.0,0.0,0.0,0.0,0.0,0.0,0.0,0.0,1.8885,2.0097,2.0941,2.0957,2.1764,2.2156,2.1764,2.2565,2.3131,2.3147,2.3515,2.4265,2.5527,2.5112,2.5393,2.6641,2.6691,2.6674,2.6657,2.6344,2.5635,2.4506,2.4149,2.3409,2.2344,2.2563,2.2537,2.2293,2.2573,2.2695,2.2686,2.2415,2.2436,2.2721,2.3045,2.3165,2.3236,2.3566,2.3692,2.3774,0.0,0.0,0.0,0.0,0.0,0.0,0.0,1.0283,1.043,1.085,1.1332,1.2057,1.3203,1.3437,1.3633,1.3936,1.3682,1.3086,1.2109,1.1738,1.1498,1.1263,1.2177,1.3624,1.5601,1.5999,1.6808,1.8192,1.7752,1.736,1.6967,1.6948,1.6729,1.6417,1.6447,1.6187,1.5703,1.5586,1.5434,1.5148,1.4524,1.4392,1.4508,0.0,0.0,0.0,0.0,0.0,0.0,0.0,0.0,0.0,0.0,0.0,0.0,0.0,0.0,0.0,0.0,0.0,0.0,0.0,0.0,0.0,0.0,0.0,0.0,0.0,0.0,0.0,0.0,0.0,0.0,0.0,0.0,1.9417,1.9855,2.0872,2.1629,2.188,2.2121,2.234,2.2435,2.3035,2.3605,2.403,2.423,2.4639,2.5285,2.5158,2.544,2.6175,2.6505,2.6437,2.5913,2.579,2.5346,2.4506,2.385,2.3391,2.3071,2.2626,2.236,2.231,2.2388,2.2398,2.2398,2.2321,2.2349,2.2426,2.2508,2.2824,2.3212,2.3282,2.3649,2.4074,0.0,0.0,0.0,0.0,0.0,0.0,0.0,1.0283,1.0498,1.1103,1.1439,1.2106,1.3359,1.335,1.3418,1.3828,1.332,1.2686,1.1992,1.1753,1.1773,1.2145,1.3115,1.4463,1.6108,1.6454,1.6992,1.7817,1.7521,1.7063,1.6566,1.6671,1.6689,1.6621,1.6699,1.6592,1.6338,1.6338,1.6201,1.5879,1.5315,1.507,1.4913,1.4294,1.4226,1.4465,1.4292,1.4672,1.5183,1.4974,0.0,0.0,0.0,0.0,0.0,0.0,0.0,0.0,0.0,0.0,0.0,0.0,0.0,0.0,0.0,0.0,0.0,0.0,0.0,0.0,0.0,0.0,0.0,0.0,1.9735,2.082,2.1584,2.2171,2.2593,2.2732,2.306,2.3319,2.3503,2.3749,2.4197,2.4766,2.4609,2.4823,2.5519,2.5335,2.5524,2.6262,2.6556,2.6488,2.6065,2.5456,2.4915,2.4506,2.3427,2.2936,2.2919,2.2513,2.231,2.231,2.231,2.231,2.231,2.231,2.231,0.0,0.0,0.0,0.0,0.0,2.3735,2.417,0.0,0.0,0.0,0.0,0.0,0.0,0.0,1.0283,1.0626,1.1498,1.1606,1.2106,1.3359,1.3135,1.3047,1.3467,1.2725,1.2061,1.1704,1.1724,1.2175,1.3057,1.4228,1.5439,1.6597,1.6705,1.6914,1.723,1.6964,1.6826,1.6665,1.6826,1.7051,1.7373,1.7031,1.6875,1.6875,1.686,1.6879,1.6904,1.6465,1.6088,1.5646,1.4625,1.4679,1.518,1.4823,1.4734,1.4885,1.5094,0.0,0.0,0.0,0.0,0.0,0.0,0.0,0.0,0.0,0.0,0.0,0.0,0.0,0.0,0.0,0.0,0.0,0.0,0.0,0.0,0.0,0.0,0.0,0.0,2.0767,2.2458,2.3655,2.3894,2.3857,2.359,2.4157,2.4642,2.4791,2.4706,2.4837,2.5392,2.4852,2.4957,2.5893,0.0,0.0,0.0,0.0,2.6657,2.6573,2.5217,2.4472,2.4371,2.297,2.231,2.231,2.231,2.231,2.231,2.231,2.231,2.231,2.231,2.2338,2.2349,2.2405,2.2738,2.3253,2.3628,2.3937,2.4151,0.0,0.0,0.0,0.0,0.0,0.0,0.0,1.0283,1.0626,1.1498,1.1606,1.2106,1.3359,1.3135,1.3047,1.3467,1.2725,1.2187,1.2109,1.2432,1.3154,1.4365,1.498,1.588,1.7229,1.7233,1.7282,1.7377,1.7615,1.7412,1.6748,1.7441,1.7627,1.7393,1.7646,1.7764,1.7783,1.8125,1.8202,1.8232,1.7803,1.6968,1.5891,1.5022,1.5067,1.5563,1.5129,1.5607,1.6407,1.6586,1.6657,1.6606,1.6299,0.0,0.0,0.0,0.0,0.0,0.0,0.0,0.0,0.0,0.0,0.0,0.0,0.0,0.0,0.0,0.0,0.0,0.0,0.0,0.0,2.163,2.3116,2.4328,2.5106,2.5674,2.5811,2.5243,2.4837,2.5046,2.6108,2.6174,2.6012,2.5574,2.5424,2.5436,2.5576,2.533,2.5762,2.6982,2.6824,2.6404,2.5828,2.4932,2.4188,2.3596,0.0,0.0,2.231,2.231,2.231,2.231,2.231,2.231,2.231,2.231,2.2426,2.2634,2.2915,2.3111,2.3259,2.3876,2.4133,2.419,0.0,0.0,0.0,0.0,0.0,0.0,0.0,1.0283,1.0518,1.1152,1.123,1.1562,1.2432,1.239,1.2351,1.252,1.2139,1.1992,1.2171,1.3037,1.3984,1.5049,1.5937,1.6709,1.7373,1.7588,1.7598,1.7383,1.7803,1.7686,1.707,1.7705,1.8008,1.8018,1.8232,1.8447,1.8662,1.8877,1.8965,1.8926,1.8496,1.793,1.7236,1.6162,1.5792,1.5928,1.6189,1.6545,1.6879,1.7458,1.7629,1.7591,1.711,1.6371,1.553,0.0,0.0,0.0,0.0,0.0,0.0,0.0,0.0,0.0,0.0,0.0,0.0,0.0,0.0,1.651,1.7833,0.0,2.1418,2.2924,2.4253,2.5345,2.6004,2.6093,2.5854,2.5196,2.542,2.5615,2.5615,2.5615,2.548,2.5136,2.5047,2.5102,2.5327,2.549,2.5999,2.6883,2.6775,2.6522,2.615,2.5033,2.4492,2.4475,2.3021,2.2496,2.2835,2.2479,2.2513,2.2852,2.2852,2.2852,2.2852,2.2852,2.2932,2.3103,2.3568,2.3614,2.35,2.3816,2.4054,2.417,0.0,0.0,0.0,0.0,0.0,0.0,0.0,1.0215,1.0332,1.084,1.084,1.0986,1.1547,1.1528,1.1479,1.1479,1.1636,1.1875,1.2324,1.3555,1.4678,1.5625,1.6768,1.7461,1.7627,1.7959,1.7969,1.7627,1.8057,1.7998,1.7519,1.8027,1.8398,1.8572,1.873,1.8955,1.9297,1.9375,1.9551,1.9657,1.9211,1.9103,1.9093,1.777,1.6927,1.6518,1.7132,1.7066,1.6796,1.7678,1.7927,1.7765,1.7468,1.6986,1.6321,1.5329,1.4991,0.0,0.0,0.0,0.0,0.0,0.0,0.0,0.0,0.0,1.5254,1.552,1.6517,1.7693,1.8782,2.0826,2.2746,2.3999,2.5091,2.6033,2.6692,2.6213,2.5555,2.4851,2.5749,2.5989,2.4881,2.4776,2.4716,2.4597,2.4594,2.4836,2.539,2.577,2.6293,2.6911,2.6776,2.6691,2.6691,2.5372,2.5,2.5592,2.3663,2.3038,2.3579,2.3004,2.3054,2.3613,2.3613,2.3613,2.3625,2.3684,2.3755,2.3853,2.4427,2.4479,2.423,2.3904,2.3976,2.417,0.0,0.0,0.0,0.0,0.0,0.0,0.0,0.0,0.9952,1.0801,1.0586,1.0695,1.1518,1.1221,1.0977,1.0977,1.1699,1.2344,1.2783,1.4004,1.5273,1.6533,1.71,1.7734,1.8486,1.8545,1.8545,1.8496,1.8936,1.873,1.7959,1.8769,1.8965,1.8652,1.9043,1.9238,1.9307,1.9687,2.0346,2.1105,2.0575,2.086,2.1448,1.9929,1.8652,1.7551,1.7038,1.6565,1.6182,1.6985,1.692,1.6609,1.7206,1.6986,1.6396,1.5781,0.0,1.479,1.4236,1.4123,1.4173,1.4173,1.45,1.5092,0.0,0.0,1.6622,1.7626,1.8851,2.0086,2.1287,2.2666,2.4163,2.5953,2.6378,2.6707,2.7365,2.6901,2.6243,2.557,2.563,2.5659,2.551,2.5495,2.5255,2.4627,2.5053,2.5529,2.6126,2.6048,2.6526,2.7637,2.7046,2.6691,2.6691,2.5896,2.5524,2.5592,2.4678,2.432,2.4388,2.4272,2.432,2.4388,2.4388,2.4388,2.4418,2.477,2.5045,2.5306,2.5727,2.6055,2.6112,2.4664,2.417,2.419,0.0,0.0,0.0,0.0,0.0,0.0,0.0,0.0,0.0,1.0088,1.001,1.0137,1.0752,1.0654,1.0547,1.0547,1.1338,1.2139,1.2832,1.4307,1.5625,1.6626,1.7617,1.8281,1.8562,1.8887,1.9014,1.9014,1.9199,1.9102,1.876,1.9121,1.9316,1.9385,1.957,1.9941,2.042,2.0332,2.1024,2.2069,2.1,2.0984,2.1419,2.0015,1.8783,1.7701,1.7448,1.6818,0.0,0.0,1.6855,1.6938,1.6885,1.671,1.6409,1.5856,1.5489,0.0,1.4975,1.4738,0.0,0.0,1.5668,1.612,1.725,1.7501,1.7626,1.8103,1.9449,2.0849,2.1736,2.3213,2.4636,0.0,2.6019,2.6123,2.6393,2.6198,2.563,2.4567,2.4448,2.4448,2.4448,2.4807,2.4762,2.4088,2.4797,2.5393,2.567,2.6145,2.6621,2.7148,2.686,2.6691,2.6691,2.5981,2.5828,2.6234,2.505,2.4712,2.5118,2.4709,2.4712,2.5135,2.5135,2.5625,2.6386,2.5924,2.6069,2.6556,2.6688,2.6566,2.6249,2.5761,2.5603,2.5603,0.0,0.0,0.0,0.0,0.0,0.0,0.0,0.0,0.0,0.0,0.9495,0.9629,1.0059,1.0215,1.0283,1.0283,1.0998,1.1802,1.2646,1.418,1.5508,1.6504,1.7666,1.8457,1.8809,1.9131,1.9346,1.9463,1.958,1.9521,1.9297,1.9531,1.9805,2.0098,2.0225,2.0781,2.1581,2.133,2.1907,2.2993,2.168,2.1263,2.1331,1.9823,1.8598,1.7625,1.742,1.674,1.5941,1.6141,1.6317,1.6506,1.6424,1.6293,1.6176,1.5889,1.5555,1.5275,1.5333,0.0,0.0,1.6283,1.676,1.7275,1.8392,1.8543,1.8566,1.905,2.0227,2.1319,2.1997,2.3167,2.4358,2.5211,2.5181,2.5121,2.5315,2.5181,2.4627,2.349,2.3191,2.3071,2.3071,2.3684,2.3954,2.3625,2.4576,2.5221,2.5221,2.5976,2.6488,2.6691,2.6488,2.6488,2.6691,2.6167,2.6167,2.6674,2.5609,2.5389,2.5896,2.5558,2.5693,2.6234,2.6454,2.7148,2.808,2.7549,2.7609,2.8137,2.829,2.7882,2.7258,2.75,2.7181,2.6612,0.0,0.0,0.0,0.0,0.0,0.0,0.0,0.0,0.0,0.0,0.0,0.0,0.0,1.0029,1.0283,1.0283,1.0674,1.1309,1.2141,1.3406,1.4746,1.6086,1.6943,1.7998,1.9238,1.9277,1.9482,1.9893,2.0322,2.0098,1.9307,2.0137,2.0537,2.0566,2.0996,2.1729,2.2652,2.2642,2.3249,2.4046,2.2893,2.2368,2.2006,1.9859,1.8332,1.7305,1.6754,1.584,1.5017,1.54,1.4938,1.4421,1.5721,1.5845,0.0,1.5978,1.5452,1.4742,0.0,0.0,1.5806,1.6371,1.7338,1.843,1.951,1.9359,1.9446,2.1159,2.161,2.1885,2.2543,2.2731,2.3161,2.4448,2.4088,2.3894,2.4522,2.4088,2.343,2.2787,2.2143,2.1754,0.0,2.2353,2.2981,2.355,2.4576,2.5221,2.5221,2.5476,2.5964,2.6674,2.6015,2.5981,2.6691,2.6674,2.6674,2.6691,2.664,2.664,2.6691,2.7402,2.7705,2.7755,2.8552,2.8907,2.8996,2.9782,3.0079,3.0189,3.0974,3.0797,3.0075,3.0099,2.8613,2.6612,0.0,0.0,0.0,0.0,0.0,0.0,0.0,0.0,0.0,0.0,0.0,0.0,0.0,0.0,0.0,0.0,1.0664,1.1162,1.1748,1.2998,1.4033,1.4756,1.6182,1.7285,1.8008,1.8574,1.9062,1.9502,2.0209,2.0129,1.9297,2.0441,2.0712,2.0146,2.1252,2.2061,2.2688,2.267,2.2969,2.3317,2.1584,2.0535,1.9886,1.7664,1.6245,1.5376,0.0,1.4394,1.4712,1.4511,1.4476,1.4624,1.5324,1.5286,1.5123,1.5873,1.5702,1.5388,0.0,0.0,1.6471,1.74,1.8191,1.8932,1.9648,1.9397,1.9269,2.0208,1.9804,1.9433,2.0,2.0088,2.0333,2.1201,2.1904,2.2413,2.2652,2.3206,2.3056,2.156,2.156,0.0,0.0,0.0,0.0,2.3427,2.4524,2.5335,2.5689,2.6098,2.6437,2.6691,2.6454,2.6437,2.6691,2.6691,2.6945,2.7435,2.7435,2.7435,2.7452,2.7671,2.7789,2.7823,2.8653,2.9011,2.9013,2.9003,2.946,3.0206,3.0188,3.0531,3.0999,3.0999,3.0467,2.9622,0.0,0.0,0.0,0.0,0.0,0.0,0.0,0.0,0.0,0.0,0.0,0.0,0.0,0.0,0.0,0.0,0.0,0.0,1.1596,1.2395,1.3165,1.3909,1.4949,1.5859,1.6445,1.7165,1.7724,1.817,1.9096,1.9312,1.8728,1.9781,2.0167,2.0002,2.0854,2.1728,2.2553,2.2327,2.2124,2.1764,2.0037,1.8605,1.7338,1.5625,1.4567,0.0,1.3024,1.3373,1.4151,1.4006,1.4114,1.4439,1.5459,1.5533,1.5339,1.5966,1.5853,1.568,1.6612,1.6976,1.7338,1.8267,1.8907,1.9397,1.9723,1.9397,1.9054,1.9211,1.839,1.7691,1.7877,1.7787,1.7939,1.8837,1.9914,2.0707,2.0946,2.1904,2.2113,2.0857,2.1081,2.1276,0.0,0.0,0.0,2.3136,2.4257,2.5144,2.5689,2.5926,2.6219,2.6691,2.6437,2.642,2.6691,2.6691,2.6945,2.7418,2.7654,2.7789,2.7806,2.8383,2.8636,2.8687,2.9448,2.977,2.9756,2.9369,2.9942,3.0991,3.0635,3.1028,3.1825,3.1825,3.1641,3.1201,0.0,0.0,0.0,0.0,0.0,0.0,0.0,0.0,0.0,0.0,0.0,0.0,0.0,0.0,0.0,0.0,0.0,0.0,1.1609,1.1661,1.2198,1.3434,1.3521,1.3871,1.4749,1.5198,1.5642,1.6105,1.712,1.7554,1.7507,1.818,1.8888,1.9748,1.9781,2.0666,2.1975,2.1534,2.0622,1.9497,1.843,1.6685,1.4664,1.3878,1.3265,1.2808,1.2535,1.2759,0.0,0.0,0.0,0.0,0.0,1.6369,1.6145,1.6319,1.5995,1.5749,1.646,1.7426,1.838,1.8932,1.9409,1.9761,1.9761,1.9296,1.8735,1.8271,1.7437,1.6656,0.0,0.0,1.6173,1.7416,1.8283,1.9016,1.9645,2.0378,2.0857,0.0,0.0,0.0,0.0,0.0,0.0,2.2724,0.0,2.4672,2.5221,2.4984,2.5444,2.6674,2.6031,2.6015,2.6742,2.6793,2.681,2.6826,2.7537,2.7857,2.7958,2.9448,3.0108,3.0142,3.0886,3.1173,3.1111,3.0797,3.1323,3.2323,3.2134,3.2256,3.2588,3.2625,3.2173,3.1403,0.0,0.0,0.0,0.0,0.0,0.0,0.0,0.0,0.0,0.0,0.0,0.0,0.0,0.0,0.0,0.0,0.0,0.0,1.1148,1.1826,1.2149,1.2131,1.3086,1.3733,1.3847,1.4232,1.4673,1.515,1.5592,1.553,1.4971,1.6093,1.6347,1.602,1.7064,1.7783,1.8142,1.8331,1.778,1.6647,1.5595,1.4311,1.2952,1.2126,1.1907,1.1967,0.0,0.0,0.0,0.0,0.0,0.0,0.0,1.5613,1.6283,1.7284,1.7183,1.7094,1.8585,1.8869,1.8945,1.9472,1.9409,1.9221,1.9221,1.7827,1.6617,1.6915,1.5206,1.3728,0.0,0.0,0.0,1.6158,1.8478,0.0,2.0423,2.1844,0.0,0.0,0.0,2.2248,2.2413,2.2619,0.0,0.0,2.3764,2.4831,2.5742,2.5743,2.5992,2.6691,2.6522,2.6776,2.752,2.8112,2.8399,2.8399,2.8586,2.8975,2.955,2.9939,3.0108,3.0142,3.0886,3.0886,3.0362,3.0309,3.0279,3.0431,3.1271,3.1828,3.2328,3.3195,3.3366,3.3073,0.0,0.0,0.0,0.0,0.0,0.0,0.0,0.0,0.0,0.0,0.0,0.0,0.0,0.0,0.0,0.0,0.0,0.0,0.0,1.1945,1.2092,1.1993,1.2558,1.2844,1.2773,1.294,1.3189,1.3426,1.3801,1.3741,1.331,1.427,1.458,1.4412,1.5195,1.5676,1.59,1.5922,1.5279,0.0,0.0,1.2303,1.1295,1.1123,1.1193,0.0,0.0,0.0,0.0,0.0,0.0,1.6453,1.6227,1.6539,1.7196,1.8177,0.0,1.792,1.9114,1.9419,1.9434,1.9723,1.9409,1.8907,1.8417,1.6948,1.564,1.5404,1.3946,0.0,0.0,0.0,0.0,0.0,0.0,0.0,2.0183,2.1455,2.2517,0.0,2.3071,0.0,2.3909,2.3699,2.3655,0.0,2.4303,2.4979,2.6086,2.6417,2.6768,2.7164,2.752,2.774,2.7789,2.8247,2.8467,2.8484,2.8822,2.9381,3.0125,3.0446,3.0581,3.0615,0.0,3.097,3.0565,3.0243,3.0287,3.056,3.062,3.1418,3.2611,3.2948,3.3369,3.3733,0.0,0.0,0.0,0.0,0.0,0.0,0.0,0.0,0.0,0.0,0.0,0.0,0.0,0.0,0.0,0.0,0.0,0.0,0.0,0.0,0.0,1.2364,1.2071,1.189,1.189,1.1813,1.1766,1.1694,0.0,1.2153,1.209,1.26,1.3078,1.3531,1.3601,1.3867,1.4284,1.3803,1.3044,1.2152,1.17,1.0911,1.0097,0.0,0.0,0.0,0.0,0.0,0.0,0.0,1.5583,1.7186,1.7665,1.7969,1.8328,1.8845,1.8669,1.843,1.8982,1.9459,1.9786,1.971,1.9246,1.8543,1.7501,1.622,1.498,1.4002,0.0,1.2777,1.3157,0.0,1.45,1.5712,0.0,1.8343,1.975,2.0543,2.1695,2.3625,2.3789,2.4268,2.5615,2.5151,2.494,2.557,2.5166,2.5299,2.6261,2.6917,2.7492,2.7958,2.8721,2.8755,2.7977,2.8078,2.8129,2.8093,2.8805,2.9516,3.0277,3.0903,3.119,3.119,3.119,3.119,3.114,3.0514,3.0779,3.1457,3.0335,3.1114,3.2811,3.2313,3.278,3.3634,0.0,0.0,0.0,0.0,0.0,0.0,0.0,0.0,0.0,0.0,0.9277,0.8842,0.0,0.0,0.0,0.0,0.0,0.0,0.0,0.0,0.0,0.0,1.211,1.2312,1.2312,0.0,0.0,0.0,0.0,0.0,1.0345,1.0715,1.0779,1.0649,1.0923,1.1082,1.1161,1.1069,1.1084,1.1166,1.1058,1.0906,1.0763,0.0,0.0,0.0,0.0,0.0,0.0,0.0,1.5779,1.7137,1.6866,1.7448,1.8308,1.8852,1.8931,1.8995,1.9522,1.9736,1.9698,1.9271,1.8405,1.7488,1.6823,1.4751,0.0,0.0,0.0,1.1775,1.2637,1.3502,0.0,1.6278,0.0,0.0,0.0,0.0,2.3056,0.0,0.0,0.0,0.0,0.0,0.0,0.0,0.0,2.6272,2.6355,2.6978,2.7776,2.8735,2.9516,2.955,2.8789,2.9397,2.9702,2.9719,2.9854,3.0311,3.1004,3.114,3.119,3.119,3.119,0.0,3.119,3.1055,3.0755,3.0445,3.1126,3.1289,3.1234,3.2128,3.2574,3.2777,0.0,0.0,0.0,0.0,0.0,0.0,0.0,0.8978,0.9316,1.0318,1.0096,0.977,0.9545,0.9322,0.9376,0.0,0.0,0.0,0.0,0.0,0.0,0.0,0.0,0.0,0.0,0.0,0.0,0.0,0.0,0.0,0.0,0.0,0.0,0.0,0.0,0.0,0.0,0.0,1.0739,0.0,0.0,0.0,0.0,0.0,0.0,0.0,0.0,0.0,0.0,0.0,1.4602,1.5761,1.6683,1.7739,1.8631,1.8606,1.8995,1.9422,1.9409,1.9597,1.9673,1.9108,1.8191,1.7087,1.5919,0.0,0.0,0.0,0.0,1.2421,1.3361,0.0,0.0,0.0,0.0,0.0,0.0,0.0,0.0,0.0,0.0,0.0,0.0,0.0,0.0,0.0,0.0,2.6726,2.6947,2.7796,2.886,3.0125,3.0125,2.9753,2.9028,2.9736,2.9922,2.9533,2.9922,3.0497,3.119,3.119,3.119,3.119,3.119,3.119,3.119,3.119,3.0987,3.0705,3.0848,3.1199,3.1668,3.185,3.2201,3.2636,0.0,0.0,0.0,0.0,0.0,0.0,0.0,0.9536,0.9869,1.061,1.0677,1.0564,1.0219,0.9556,0.9422,0.0,0.0,0.0,0.0,0.0,0.0,0.0,0.0,0.0,0.0,0.0,0.0,0.0,0.0,0.0,0.0,0.0,0.0,0.0,0.0,0.0,0.0,0.0,0.0,0.0,0.0,0.0,0.0,0.0,0.0,0.0,0.0,0.0,0.0,0.0,1.3231,1.4223,1.5944,1.7338,1.8254,1.794,1.8606,1.9397,1.9058,1.9409,1.9648,1.9007,1.8016,1.676,1.513,1.376,0.0,0.0,1.2635,1.3155,1.4285,0.0,0.0,0.0,0.0,0.0,0.0,0.0,0.0,0.0,0.0,0.0,0.0,0.0,0.0,0.0,0.0,2.7106,2.7859,2.8587,2.9608,3.0937,3.0395,2.982,2.9228,2.982,2.9803,2.9228,2.982,3.0412,3.097,3.1123,3.119,3.119,3.119,3.119,3.119,3.119,3.119,3.114,3.0565,3.1121,3.2143,3.1663,3.188,3.2518,0.0,0.0,0.0,0.0,0.0,0.0,0.0,0.9293,0.9869,1.061,1.0448,1.0242,1.0195,1.0026,0.9912,0.0,0.0,0.0,0.0,0.0,0.0,0.0,0.0,0.0,0.0,0.0,0.0,0.0,0.0,0.0,0.0,0.0,0.0,0.0,0.0,0.0,0.0,0.0,0.0,0.0,0.0,0.0,0.0,0.0,0.0,0.0,0.0,0.0,0.0,0.0,0.0,1.3311,1.3511,1.4714,1.6095,1.6534,0.0,0.0,1.8907,1.9409,1.956,1.853,1.7426,1.617,1.4538,0.0,0.0,1.2769,1.2595,1.2831,1.4683,0.0,0.0,0.0,0.0,0.0,0.0,0.0,0.0,0.0,0.0,0.0,0.0,0.0,0.0,0.0,0.0,2.8033,2.9175,2.8686,2.8934,3.0154,3.0142,3.0074,3.0006,3.0074,3.0074,3.0006,3.0074,3.0142,3.0226,3.0886,3.119,3.119,3.119,3.119,0.0,3.119,3.119,3.119,3.1123,3.1201,3.1351,3.1647,3.1811,3.1882,0.0,0.0,0.0,0.0,0.0,0.0,0.9122,0.9451,0.9869,1.061,1.0622,1.0427,1.0052,1.0008,0.99,0.963,0.0,0.0,0.0,0.0,0.0,0.0,0.0,0.0,0.0,0.0,0.0,0.0,0.0,0.0,0.0,0.0,0.0,0.0,0.0,0.0,0.0,0.0,0.0,0.0,0.0,0.0,0.0,0.0,0.0,0.0,0.0,0.0,0.0,0.0,0.0,0.0,1.1695,1.2416,0.0,0.0,1.6308,1.7765,1.7978,1.8907,1.9547,1.848,1.735,1.6082,1.4475,0.0,0.0,1.2502,1.3081,1.3794,1.4486,1.4366,1.4397,0.0,0.0,0.0,0.0,0.0,0.0,0.0,0.0,0.0,0.0,0.0,0.0,0.0,0.0,2.6777,2.7601,2.8037,2.886,3.007,3.0108,2.9888,2.9431,3.0311,3.0311,2.9448,3.0345,3.0531,3.0142,3.0869,3.119,3.119,3.119,3.119,0.0,3.119,3.119,3.119,3.119,3.1351,3.1565,3.1752,3.1549,3.128,0.0,0.0,0.0,0.0,0.0,0.8077,0.9189,0.9514,0.9823,1.0386,1.0631,1.0549,0.998,0.9936,0.9845,0.9564,1.0123,0.0,0.0,0.0,0.0,0.0,0.0,0.0,0.0,0.0,0.0,1.1456,0.0,0.0,0.0,0.0,0.0,0.0,0.0,0.0,0.0,0.0,0.0,0.0,0.0,0.0,0.0,0.0,0.0,0.0,0.0,0.0,0.0,0.0,0.0,0.0,0.0,0.0,0.0,0.0,1.4941,1.6502,1.6798,1.7965,1.8907,1.8154,1.6986,1.5643,0.0,0.0,1.2679,1.2443,1.3388,1.434,1.4674,1.4765,1.4737,0.0,0.0,0.0,0.0,0.0,0.0,0.0,0.0,0.0,0.0,0.0,0.0,0.0,0.0,2.606,2.6494,2.7095,2.7895,2.8926,2.9152,2.8975,2.8454,2.9593,2.9668,2.8653,2.9702,2.9922,2.9465,3.0429,3.0869,3.0886,3.1106,3.119,0.0,3.119,3.119,3.119,3.119,3.1389,3.1605,3.1493,3.1179,3.0814,0.0,0.0,0.0,0.0,0.0,0.0,0.869,0.926,0.9667,0.9877,1.0368,1.0493,0.9956,0.9905,0.9905,0.9893,0.9905,0.0,0.0,0.0,0.0,0.0,0.0,0.0,0.0,0.0,1.0556,1.091,1.091,1.1048,0.0,0.0,0.0,0.0,0.0,0.0,0.0,0.0,0.0,0.0,0.0,0.0,0.0,0.0,0.0,0.0,0.0,0.0,0.0,0.0,0.0,0.0,0.0,0.0,0.0,0.0,1.3242,1.4362,1.5417,1.6534,1.74,1.7388,1.6174,1.4601,0.0,0.0,1.1844,1.2637,1.3276,1.4124,1.552,1.5259,1.4573,1.3929,1.381,0.0,0.0,0.0,0.0,0.0,0.0,0.0,0.0,0.0,0.0,0.0,2.6572,0.0,2.651,2.583,2.5712,2.631,2.6836,2.7135,2.7118,2.7593,2.7823,2.7806,2.7823,2.7823,2.7857,2.9431,3.0125,3.0159,3.0886,3.119,0.0,3.119,3.119,3.119,3.119,3.119,3.1167,3.0834,3.0699,3.0542,0.0,0.0,0.0,0.0,0.0,0.0,0.0,0.9173,0.9478,0.9552,0.9712,0.9829,0.9892,0.9686,0.9633,0.988,0.9905,0.0,0.0,0.0,0.0,0.0,0.0,0.0,0.0,0.0,1.0619,1.1108,1.0968,1.1017,1.1236,1.1086,1.1024,0.0,0.0,0.0,0.0,0.0,0.0,0.0,0.0,0.0,0.0,0.0,0.0,0.0,0.0,0.0,0.0,0.0,0.0,0.0,0.0,0.0,0.0,1.2017,1.2564,1.3082,1.3822,1.4814,1.5621,1.5243,1.4739,1.416,1.3361,0.0,1.2869,1.3427,1.3919,1.4326,1.4587,1.4737,1.4573,1.3914,1.381,0.0,0.0,0.0,0.0,0.0,0.0,0.0,0.0,0.0,0.0,0.0,2.4807,2.4537,2.4516,2.4275,2.4821,2.6262,2.682,2.7102,2.7102,2.8619,2.8856,2.7806,2.889,2.8839,2.7823,2.8873,2.9617,3.0125,3.0362,3.0734,3.119,3.119,3.0903,3.0446,3.0446,3.0142,2.9688,2.9564,2.9351,2.9088,0.0,0.0,0.0,0.0,0.0,0.0,0.0,0.9116,0.9262,0.9555,0.9343,0.9316,0.9659,0.9528,0.9475,0.9698,0.9828,0.0,0.0,0.0,0.0,0.0,0.0,0.0,1.021,1.021,1.0547,1.1215,1.0877,1.089,1.1202,1.1001,1.0825,1.0715,1.1024,0.0,0.0,0.0,0.0,0.0,0.0,0.0,1.0873,0.0,0.0,0.0,0.0,0.0,0.0,0.0,0.0,0.0,0.0,0.0,0.0,0.0,1.149,1.1625,0.0,1.3257,1.391,1.3772,1.3619,0.0,0.0,0.0,1.2735,1.3158,1.3619,1.3987,1.4141,1.4585,1.4767,1.4262,1.4393,0.0,0.0,0.0,0.0,0.0,0.0,0.0,0.0,0.0,0.0,0.0,2.4373,2.3879,2.361,2.3595,2.4104,2.5274,2.5799,2.6166,2.6374,2.784,2.8152,2.7402,2.8366,2.8315,2.7418,2.8197,2.8958,2.9702,2.9989,3.0531,0.0,3.0903,3.0514,3.0074,2.9786,2.9397,2.8941,2.8653,2.8406,2.8116,0.0,0.0,0.0,0.0,0.0,0.0,0.0,0.9089,0.9089,0.9738,0.9224,0.8926,0.9316,0.9369,0.9408,0.9408,0.0,0.0,0.0,0.0,0.0,0.0,0.0,0.0,0.9905,0.9905,1.0327,1.1162,1.0676,1.0715,1.1214,1.098,1.0735,1.0437,1.0729,1.0873,1.0897,1.0849,1.0849,1.0897,1.0873,1.0873,0.0,0.0,0.0,0.0,0.0,0.0,0.0,0.0,0.0,0.0,0.0,0.0,0.0,0.0,0.0,0.0,0.0,1.1839,1.2321,1.2835,1.2634,1.2354,0.0,0.0,0.0,0.0,1.2631,1.3219,1.4013,1.4674,1.5022,1.4805,0.0,0.0,0.0,0.0,0.0,0.0,0.0,0.0,0.0,0.0,0.0,2.551,2.4896,2.4342,2.3699,2.3713,2.3728,2.3744,2.4227,2.4726,2.5182,2.5775,2.6277,2.6691,2.6742,2.6776,2.6793,2.7452,2.8197,0.0,2.9668,3.0395,3.1055,3.0328,3.0023,2.9956,2.9194,2.8873,2.8738,2.801,2.7705,2.7603,0.0,0.0,0.0,0.0,0.0,0.0,0.0,0.0,0.0,0.0,0.8899,0.8844,0.8926,0.9209,0.9408,0.0,0.0,0.0,0.0,0.0,0.0,0.0,0.0,0.0,0.9905,0.9905,1.0195,1.082,1.0693,1.0921,1.1479,1.0992,1.0711,1.0644,1.0557,1.0667,1.0873,1.0348,1.0422,1.0873,1.0605,1.0508,0.0,0.0,0.0,0.0,1.0097,1.0373,0.0,0.0,0.0,0.0,0.0,0.0,0.0,0.0,1.0766,0.9956,1.0219,0.0,1.0521,1.0646,1.1236,1.1789,0.0,0.0,0.0,0.0,0.0,1.2917,1.2595,1.3948,1.4918,0.0,0.0,0.0,0.0,0.0,0.0,0.0,0.0,0.0,0.0,0.0,0.0,2.4163,2.4283,2.4402,2.4373,2.4754,2.5026,2.5121,2.5258,2.5259,2.5182,2.6281,2.6792,2.6708,2.7283,2.7554,2.7554,2.7148,2.7706,2.8958,2.8535,2.9127,3.0311,2.955,2.9245,2.9161,2.8399,2.774,2.7215,2.7029,2.6962,2.6928,0.0,0.0,0.0,0.0,0.0,0.0,0.0,0.0,0.0,0.0,0.0,0.8789,0.8789,0.9155,0.0,0.0,0.0,0.0,0.0,0.0,0.0,0.0,0.0,0.9905,0.9905,0.9905,1.0307,1.1123,1.0831,1.1023,1.1575,1.0998,1.0568,1.0332,1.0225,1.0273,1.0422,1.0046,1.0097,1.0422,1.0235,0.0,0.0,0.0,0.0,0.0,1.0248,1.0398,0.0,1.0594,1.0963,1.1428,0.0,0.0,0.0,0.0,1.0584,0.9905,0.9905,0.9905,0.9956,1.0219,1.0935,1.1588,1.1588,0.0,0.0,0.0,0.0,0.0,1.2397,0.0,0.0,0.0,0.0,0.0,0.0,0.0,0.0,0.0,0.0,0.0,0.0,0.0,2.563,2.4597,2.4732,2.4759,2.4612,2.5129,2.5463,2.5585,2.5315,2.545,2.6158,2.65,2.685,2.7215,2.7283,2.73,2.7283,2.6877,2.7334,2.8433,2.801,2.8484,2.9533,2.8772,2.845,2.8366,2.7604,2.7046,2.6657,2.647,2.6367,2.6332,0.0,0.0,0.0,0.0,0.0,0.0,0.0,0.0,0.0,0.0,0.0,0.0,0.0,0.0,0.0,0.0,0.0,0.0,0.0,0.0,0.0,0.0,0.9905,0.9943,1.0018,0.9943,1.0408,1.1462,1.1048,1.1111,1.1575,1.1086,1.0508,0.9905,0.9905,0.9905,0.9905,0.9905,0.9905,0.9905,0.9905,0.0,0.0,0.0,0.0,0.0,0.0,0.0,0.0,1.0619,1.0873,1.0897,1.0897,0.0,0.0,0.0,0.0,0.0,0.9905,0.9956,1.0119,1.0468,1.1023,1.1462,1.1462,0.0,0.0,0.0,0.0,0.0,0.0,0.0,0.0,0.0,0.0,0.0,0.0,0.0,0.0,0.0,0.0,0.0,0.0,2.6647,2.6123,2.536,2.5282,2.5096,2.4762,2.5267,2.5663,2.5884,2.5348,2.5874,2.7614,2.6566,2.6564,2.7603,2.6996,2.6759,2.686,2.6742,2.7114,2.7772,2.7689,0.0,2.8755,2.796,2.7688,2.7705,2.691,2.659,2.6556,2.6033,2.5888,2.5832,0.0,0.0,0.0,0.0,0.0,0.0,0.0,0.0,0.0,0.0,0.0,0.0,0.0,0.0,0.0,0.0,0.0,0.0,0.0,0.0,0.0,0.988,0.9905,1.0119,1.0556,1.0144,1.0219,1.0831,1.1261,1.15,1.1588,1.15,1.0897,0.9905,0.9905,0.9905,0.9905,0.9905,0.9905,0.9905,0.9905,0.0,0.0,0.0,0.0,0.0,0.0,0.0,0.0,1.0434,1.0667,1.0897,1.0897,0.0,0.0,0.0,0.0,0.0,0.9905,1.0244,1.0481,1.0119,1.0418,1.0831,1.0831,0.0,0.0,0.0,0.0,0.0,0.0,0.0,0.0,0.0,0.0,0.0,0.0,0.0,0.0,0.0,0.0,0.0,2.4403,2.5151,2.5241,2.3999,2.4288,2.4817,2.539,2.597,2.6581,2.728,2.7083,2.7671,2.907,2.659,2.5873,2.686,2.6742,2.7029,2.7621,2.6979,2.7114,2.7755,0.0,2.73,2.7943,2.7182,2.7249,2.767,2.6545,2.612,2.6033,2.554,2.5335,2.5355,0.0,0.0,0.0,0.0,0.0,0.0,0.0,0.0,0.0,0.0,0.0,0.0,0.0,0.0,0.0,0.0,0.0,0.0,0.0,0.0,0.9504,0.9478,0.9742,1.0157,1.0681,1.0456,1.0744,1.1608,1.1902,1.1876,1.1605,1.096,1.0395,0.9905,0.9905,0.9905,0.9905,0.9905,0.9905,0.9905,0.0,0.0,0.0,0.0,0.0,0.0,0.0,0.0,0.0,0.0,1.0335,1.0594,1.0422,0.0,0.0,0.0,0.0,0.0,0.9905,1.0081,1.0295,1.0305,1.0772,1.1186,1.1186,0.0,0.0,0.0,0.0,0.0,0.0,0.0,0.0,0.0,0.0,0.0,0.0,0.0,0.0,0.0,0.0,0.0,2.5794,2.6303,2.6123,2.4777,2.519,2.5341,2.5061,2.5588,2.6076,2.6531,2.6089,2.6319,2.7237,2.5586,2.5837,2.7926,2.7097,2.6877,2.7199,2.6843,2.6556,2.6266,0.0,2.5811,2.5829,2.5499,2.5779,2.6332,2.5766,2.5577,2.5486,2.4989,2.4592,2.4354,0.0,0.0,0.0,0.0,0.0,0.0,0.0,0.0,0.0,0.0,0.0,0.0,0.0,0.0,0.0,0.0,0.0,0.0,0.0,0.0,0.9554,0.9181,0.9578,1.0139,1.0881,1.0769,1.1182,1.2215,1.2215,1.1927,1.1362,1.0495,1.0018,0.9905,0.9905,0.9905,0.9905,0.9905,0.9905,0.9905,0.0,0.0,0.0,0.0,0.0,0.0,0.0,0.0,0.0,0.0,0.0,0.0,0.0,0.0,0.0,1.016,1.0006,0.9931,1.0056,1.0094,1.0169,1.0431,0.0,1.1462,1.1726,0.0,0.0,0.0,0.0,0.0,0.0,0.0,0.0,0.0,0.0,0.0,0.0,0.0,0.0,0.0,0.0,2.6408,2.726,2.7385,2.6797,2.548,2.5758,2.559,2.4657,2.4998,2.5346,2.5585,2.5047,2.5074,2.5632,2.4947,2.575,2.8109,2.7024,2.6556,2.6556,2.6657,2.6168,2.5223,2.5223,2.4909,2.442,2.442,2.474,2.5182,2.5067,2.495,2.4792,2.4348,2.3948,2.3625,0.0,0.0,0.0,0.0,0.0,0.0,0.0,0.0,0.0,0.0,0.0,0.0,0.0,0.0,0.0,0.0,0.0,0.0,0.0,0.0,0.9219,0.9377,0.941,1.0079,1.15,1.0998,1.1023,1.165,1.165,1.1349,1.0756,1.0669,1.0368,0.9905,0.9905,0.9905,0.9905,0.9905,0.9905,0.9905,0.9905,0.0,0.0,0.0,0.0,0.0,0.0,0.0,0.0,0.0,0.0,0.0,0.0,0.0,1.0659,1.0659,1.0307,1.0018,1.0506,1.0631,1.0518,1.0081,1.0355,0.0,1.2115,0.0,0.0,0.0,0.0,0.0,0.0,0.0,0.0,0.0,0.0,0.0,0.0,0.0,0.0,0.0,0.0,2.723,2.6707,2.6662,2.6123,2.4746,2.4702,2.4672,2.4582,2.4627,2.4926,2.5585,2.5436,2.571,2.6401,2.5575,2.5269,2.5496,2.5864,2.6049,2.6085,2.6505,2.6419,2.5931,2.5931,2.5607,2.5141,2.5141,2.5173,2.5144,2.4657,2.4158,2.3724,2.3681,2.3638,2.3684,0.0,0.0,0.0,0.0,0.0,0.0,0.0,0.0,0.0,0.0,0.0,0.0,0.0,0.0,0.0,0.0,0.0,0.0,0.0,0.9527,0.9323,0.9396,0.9408,0.9714,1.0338,1.0365,1.0651,1.1229,1.1094,1.0906,1.0681,1.037,1.0094,0.9905,0.9905,0.9905,0.9905,0.9905,0.9905,0.9905,0.9905,0.9905,0.0,0.0,0.0,0.0,0.0,0.0,0.0,0.0,1.0207,1.0207,1.0207,1.0207,1.0282,1.0593,1.0305,1.0018,1.0543,1.0985,1.1211,1.101,0.0,0.0,0.0,0.0,0.0,0.0,0.0,0.0,0.0,0.0,0.0,0.0,0.0,0.0,0.0,0.0,0.0,0.0,2.7215,2.6856,2.6617,2.6213,2.56,2.4657,2.4582,2.4403,2.4014,2.3984,2.4103,2.4358,2.4323,2.4422,2.4665,2.4376,2.4199,2.4241,2.5411,2.6013,2.6013,2.6191,2.5749,2.4875,2.4527,2.4123,2.364,2.364,2.3887,2.4184,2.3991,2.3794,2.3595,2.3595,2.3595,2.364,0.0,0.0,0.0,0.0,0.0,0.0,0.0,0.0,0.0,0.0,0.0,0.0,0.0,0.0,0.0,0.0,0.0,0.0,0.9738,0.954,0.9343,0.9209,0.9101,0.9096,0.9175,0.9477,0.9992,1.075,1.0452,1.0349,1.0431,0.9831,0.9692,0.9931,0.9786,0.981,0.9919,0.9916,0.9905,0.9918,1.0094,1.0056,0.0,0.0,0.0,0.0,0.0,0.0,0.0,0.0,1.0433,1.0395,1.0219,1.0157,1.0205,1.0581,1.0305,1.0018,1.0543,1.101,1.1362,0.0,0.0,0.0,0.0,0.0,0.0,0.0,0.0,0.0,0.0,0.0,0.0,0.0,0.0,0.0,0.0,0.0,0.0,2.6946,2.6557,2.6273,2.6273,2.5869,2.533,2.4627,2.4582,2.4328,2.364,2.3595,2.3595,2.3595,2.3595,2.3595,2.3595,2.3595,2.3666,2.3879,2.4989,2.5577,2.5762,2.5924,2.5537,2.4774,2.4388,2.3944,2.3473,2.3325,2.3375,2.3595,2.3595,2.3595,2.3595,2.3595,2.3595,2.3595,0.0,0.0,0.0,0.0,0.0,0.0,0.0,0.0,0.0,0.0,0.0,0.0,0.0,0.0,0.0,0.0,0.0,0.0,0.9408,0.9408,0.9209,0.8816,0.8477,0.829,0.829,0.829,0.8932,1.02,0.9658,0.9555,0.988,0.9143,0.9243,0.9991,0.9568,0.9627,1.0008,0.9934,0.9905,0.9943,1.0468,1.0368,1.0031,0.0,0.0,0.0,0.0,0.0,0.0,0.0,1.1588,1.1487,1.0881,1.0694,1.0694,1.0694,1.0305,1.0031,1.0556,1.0719,0.0,0.0,0.0,0.0,0.0,0.0,0.0,0.0,0.0,0.0,0.0,0.0,0.0,0.0,0.0,0.0,0.0,0.0,2.5615,2.5615,2.56,2.56,2.56,2.56,2.5315,2.4627,2.4567,2.4313,2.364,2.3595,2.3595,2.3595,2.3595,2.3595,2.3595,2.3595,2.3879,2.4389,2.4389,2.4657,2.5221,2.5762,2.5997,2.5997,2.5997,2.5689,2.5144,2.4632,2.4074,2.3595,2.3595,2.3595,2.361,2.3595,2.3595,2.361,0.0,0.0,0.0,0.0,0.0,0.0,0.0,0.0,0.0,0.0,0.0,0.0,0.0,0.0,0.0,0.0,0.0,0.0,0.8981,0.8745,0.869,0.8789,0.8477,0.829,0.829,0.829,0.8598,0.9209,0.906,0.9035,0.9143,0.9197,0.9345,0.9595,0.9707,0.9824,0.9946,0.9916,0.9905,0.9918,1.0081,1.0282,1.0493,0.0,0.0,0.0,0.0,0.0,0.0,0.0,0.0,0.0,1.0881,1.0694,1.0694,1.0694,1.0581,1.0581,1.1173,0.0,0.0,0.0,0.0,0.0,0.0,0.0,0.0,0.0,0.0,0.0,0.0,0.0,0.0,0.0,0.0,0.0,0.0,2.6019,2.5615,2.5615,2.5196,2.4881,2.4881,2.4477,2.4118,2.3924,2.3909,2.3819,2.361,2.3595,2.3595,2.3595,2.3595,2.3595,2.3595,2.3595,2.3879,2.4389,2.3869,2.4178,2.5221,2.5373,2.5449,2.5449,2.5449,2.5128,2.4592,2.4074,2.3752,2.3595,2.3595,2.3894,2.4268,2.3774,2.3909,2.4253,0.0,0.0,0.0,0.0,0.0,0.0,0.0,0.0,0.0,0.0,0.8561,0.8961,0.0,0.0,0.0,0.9408,0.9046,0.0,0.8789,0.8606,0.8523,0.8606,0.8421,0.8233,0.8062,0.8062,0.8166,0.8354,0.8523,0.8745,0.9046,0.9197,0.9505,0.9947,0.9994,1.0101,1.0232,1.0002,1.0018,1.0244,1.0483,1.0772,1.1082,0.0,0.0,0.0,0.0,0.0,0.0,0.0,0.0,0.0,1.0646,0.0,1.0368,1.0368,1.0709,1.1148,1.1487,0.0,0.0,0.0,0.0,0.0,0.0,0.0,0.0,0.0,0.0,0.0,0.0,0.0,0.0,0.0,0.0,0.0,0.0,2.5241,2.4717,2.4477,2.4088,2.3849,2.3849,2.3236,2.2951,2.3206,2.2996,2.2951,2.3221,2.3236,2.334,2.3595,2.3595,2.3595,2.3595,2.3595,2.3879,2.4389,2.3946,2.4241,2.5205,2.5067,2.5322,2.5783,2.5783,2.5395,2.4697,2.4592,2.4199,2.3638,2.3837,2.4051,2.4163,2.3744,2.3864,2.4163,0.0,0.0,0.657,0.6775,0.0,0.0,0.0,0.0,0.0,0.821,0.8319,0.8477,0.0,0.0,0.0,0.9262,0.8981,0.8789,0.8761,0.8789,0.8662,0.8365,0.8319,0.8119,0.7695,0.7695,0.7725,0.7754,0.8119,0.8667,0.9372,0.9237,0.9794,1.0798,1.0409,1.0445,1.0742,1.0143,1.0194,1.0669,1.1224,1.15,1.1701,1.2672,0.0,0.0,0.0,0.0,0.0,0.0,0.0,0.0,1.032,0.9981,0.9968,0.9918,1.0709,1.16,0.0,0.0,0.0,0.0,0.0,0.0,0.0,0.0,0.0,0.0,0.0,0.0,0.0,0.0,0.0,0.0,0.0,0.0,0.0,2.3984,2.331,2.2783,2.2664,2.2634,2.2634,2.2054,2.1934,2.2547,2.2039,2.1964,2.2604,2.2679,2.2936,2.349,2.3565,2.3595,2.3595,2.3595,2.3879,2.4389,2.4327,2.461,2.5189,2.5004,2.5562,2.6691,2.659,2.6057,2.5297,2.5689,2.4989,2.3724,2.4158,2.4078,2.3684,2.3625,2.364,2.3684,0.0,0.0,0.6877,0.7581,0.0,0.0,0.0,0.0,0.8414,0.8298,0.8523,0.8706,0.8789,0.8789,0.0,0.8561,0.869,0.8679,0.8421,0.8662,0.8761,0.8706,0.8449,0.8119,0.7695,0.7695,0.787,0.8176,0.8262,0.8584,0.9174,0.9717,1.0308,1.0934,1.0714,1.0643,1.0677,1.0129,0.9968,1.0094,1.0207,1.0797,1.1613,1.1851,1.2328,0.0,0.0,0.0,0.0,0.0,0.0,0.0,1.0731,1.0518,1.0458,1.0018,1.0709,1.1676,0.0,0.0,0.0,0.0,0.0,0.0,0.0,0.0,0.0,0.0,0.0,0.0,0.0,0.0,0.0,0.0,0.0,0.0,0.0,2.361,2.2873,2.2739,2.2218,2.1904,2.1904,2.1784,2.1754,2.1889,2.1784,2.1754,2.1904,2.2398,2.2783,2.2877,2.334,2.3595,2.3595,2.3595,2.3879,2.4389,2.3823,2.4116,2.5205,2.5562,2.6112,2.6657,2.5629,2.5452,2.5762,2.5051,2.4552,2.4199,2.3879,2.4011,2.4343,2.3789,2.3939,2.4328,0.0,0.0,0.0,0.0,0.0,0.0,0.0,0.0,0.829,0.8518,0.869,0.8789,0.8789,0.8651,0.0,0.0,0.8662,0.8634,0.88,0.8992,0.9101,0.9101,0.8745,0.8439,0.8241,0.8223,0.8326,0.8523,0.8717,0.9114,0.9627,1.0285,1.0961,1.167,1.1572,1.1387,1.1098,1.0533,1.0268,1.032,1.0596,1.1224,1.2015,1.2278,1.2697,1.316,1.2872,0.0,0.0,0.0,0.0,0.0,0.0,0.0,1.0581,1.0069,1.0709,1.1763,0.0,0.0,0.0,0.0,0.0,0.0,0.0,0.0,0.0,0.0,0.0,0.0,0.0,0.0,0.0,0.0,0.0,0.0,2.3655,2.2832,2.2084,2.1769,2.144,2.1231,2.1231,2.0932,2.0872,2.1201,2.0917,2.0872,2.1201,2.1545,2.2024,2.2694,2.2996,2.3295,2.3595,2.3595,2.3767,2.4032,2.4153,2.4503,2.5094,2.5327,2.5495,2.5625,2.5313,2.5157,2.5106,2.5169,2.4697,2.3991,2.3991,2.4064,2.4088,2.3729,2.3819,2.4088,0.0,0.0,0.0,0.0,0.0,0.0,0.0,0.0,0.0,0.8733,0.8789,0.8789,0.8789,0.8551,0.8634,0.0,0.0,0.0,0.9354,0.9408,0.9408,0.9408,0.9008,0.8789,0.8789,0.8789,0.8844,0.8899,0.9235,0.9745,1.0442,1.0792,1.1535,1.2542,1.2354,1.2065,1.1688,1.1123,1.0794,1.0731,1.1236,1.1776,1.2316,1.2735,1.3103,1.331,1.3119,1.2826,1.2462,1.219,0.0,0.0,0.0,0.0,1.0468,1.0031,1.0634,1.1663,0.0,0.0,0.0,0.0,0.0,0.0,0.0,0.0,0.0,0.0,0.0,0.0,0.0,0.0,0.0,0.0,0.0,0.0,2.2428,2.1934,2.1321,2.0782,2.0617,2.0543,2.0543,2.0019,1.9929,2.0498,2.0004,1.9929,2.0513,2.0647,2.1261,2.2473,2.2664,2.2981,2.3595,2.3595,2.3595,2.3595,2.4387,2.4649,2.4477,2.4375,2.4398,2.4601,2.5107,2.4994,2.4494,2.546,2.5012,2.3752,2.4116,2.3991,2.3595,2.3595,2.3595,2.3595,0.0,0.0,0.0,0.0,0.0,0.0,0.0,0.0,0.0,0.0,0.8789,0.8789,0.8789,0.8761,0.8761,0.8871,0.9101,0.9301,0.9396,0.0,0.0,0.9408,0.9008,0.8789,0.8789,0.8789,0.8981,0.9316,0.9381,0.0,0.0,0.0,0.0,1.3048,1.2128,1.1927,1.2266,1.1713,1.1186,1.0706,1.0781,1.1186,1.1701,1.1776,1.2634,1.3703,1.2811,1.2685,1.2734,1.1378,1.0869,0.0,0.0,0.0,0.9993,0.9918,1.0345,0.0,0.0,0.0,0.0,0.0,0.0,0.0,0.0,0.0,0.0,0.0,0.0,0.0,0.0,0.0,0.0,0.0,0.0,2.1724,2.1814,2.1261,2.0812,2.0722,2.0183,1.9824,1.9824,1.9735,1.972,1.9809,1.9735,1.9735,1.9824,2.0393,2.1051,2.1799,2.2383,2.2981,2.3595,2.3595,2.3595,2.3595,2.3209,2.2809,2.2403,2.2387,2.3321,2.4895,2.4381,2.4744,2.5721,2.5416,2.491,2.4266,2.3879,2.3681,2.3595,2.3595,2.3595,2.3681,0.0,0.0,0.0,0.0,0.0,0.0,0.0,0.0,0.0,0.0,0.0,0.941,0.941,0.9262,0.9209,0.941,0.9396,0.9487,0.9672,0.9698,0.9698,0.9698,0.9528,0.941,0.941,0.941,0.949,0.9698,0.0,0.0,0.0,1.1099,1.2001,0.0,0.0,1.3187,1.3107,1.2884,1.2446,1.191,1.223,1.2377,1.2429,1.3002,1.3284,1.3322,1.3103,1.2694,1.2208,1.1839,1.1519,1.1189,1.0768,0.0,0.0,0.0,0.0,0.0,0.0,0.0,0.0,0.0,0.0,0.0,0.0,0.0,0.0,0.0,0.0,0.0,0.0,0.0,0.0,0.0,0.0,2.0707,2.1096,2.0557,2.0139,2.0139,1.9869,1.969,1.969,1.969,1.969,1.969,1.969,1.969,1.969,1.9974,2.0453,2.1126,2.1784,2.2443,2.3071,2.343,2.3697,2.3871,2.3871,2.3355,2.2378,2.2378,2.2654,2.311,2.3572,2.3826,2.3968,2.45,2.443,2.3921,2.3681,2.3595,2.3638,2.3964,2.4032,2.4116,0.0,0.0,0.0,0.0,0.0,0.0,0.0,0.0,0.0,0.0,0.0,0.9905,0.9905,0.0,0.0,0.0,0.9659,0.9633,0.9867,0.9905,0.9905,0.9905,0.9905,0.9968,1.0106,0.9968,0.9968,1.0106,0.0,0.0,1.1076,1.1693,1.2777,0.0,1.4273,1.4131,0.0,0.0,0.0,1.3081,1.3527,1.35,1.3256,1.3994,1.3932,1.3502,1.3673,1.3119,0.0,0.0,0.0,0.0,0.0,0.0,0.0,0.0,0.0,0.0,0.0,0.0,0.0,0.0,0.0,0.0,0.0,0.0,0.0,0.0,0.0,0.0,0.0,0.0,0.0,0.0,0.0,1.9869,2.0378,2.0004,1.969,1.969,1.969,1.969,1.969,1.969,1.969,1.969,1.969,1.969,1.969,1.969,2.0079,2.0932,2.144,2.2084,2.2906,2.3206,2.3427,2.3478,2.3787,2.3321,2.2277,2.2371,2.2205,2.1958,2.3226,2.349,2.3117,2.417,2.4199,2.3595,2.3595,2.3681,2.3837,2.4266,2.4511,2.4657,0.0,0.0,0.0,0.0,0.0,0.0,0.0,0.0,0.0,0.0,0.0,0.9905,0.9905,0.9867,0.988,0.9905,0.9867,0.9867,0.9905,0.9905,0.9905,0.9905,0.9905,0.0,1.0643,1.0169,1.0157,0.0,0.0,0.0,1.2129,1.3115,1.4106,1.5015,1.4148,1.4009,1.446,0.0,0.0,0.0,0.0,1.3692,0.0,0.0,0.0,0.0,0.0,0.0,0.0,0.0,0.0,0.0,0.0,0.0,0.0,0.0,0.0,0.0,0.0,0.0,0.0,0.0,0.0,0.0,0.0,0.0,0.0,0.0,0.0,0.0,0.0,0.0,0.0,0.0,0.0,1.969,1.9735,1.9705,1.969,1.969,1.969,1.969,1.969,1.969,1.969,1.969,1.969,1.969,1.969,1.969,2.0288,2.1605,2.168,2.2293,2.3535,2.2996,2.2439,2.1804,2.1587,2.1337,2.1103,2.1479,2.2024,2.2698,2.3522,2.4335,2.5032,2.5112,2.4536,2.3595,2.3595,2.3921,2.4348,2.4389,2.4712,2.5259,0.0,0.0,0.0,0.0,0.0,0.0,0.0,0.0,0.0,0.0,0.0,0.0,0.0,1.0119,1.0044,1.0368,1.0406,1.0583,1.096,1.0634,1.0596,1.096,1.0621,1.0669,1.1274,1.0721,1.0835,0.0,0.0,1.1641,1.2609,1.3629,1.4256,1.4602,1.4907,1.514,1.5329,1.5329,0.0,0.0,0.0,0.0,0.0,0.0,0.0,0.0,0.0,0.0,0.0,0.0,0.0,0.0,0.0,0.0,0.0,0.0,0.0,0.0,0.0,0.0,0.0,0.0,0.0,0.0,0.0,0.0,0.0,0.0,0.0,0.0,0.0,0.0,0.0,0.0,0.0,1.969,1.969,1.969,1.969,1.969,1.969,1.969,1.969,1.969,1.969,1.969,1.969,1.969,1.969,1.969,2.0109,2.1036,2.1485,2.2455,2.4101,2.3458,2.294,2.2577,2.2055,2.1752,2.1614,2.1359,2.2102,2.3622,2.3801,2.4158,2.458,2.5029,2.4973,2.4632,2.4632,2.4736,2.495,2.5297,2.554,2.5762,0.0,0.0,0.0,0.0,0.0,0.0,0.0,0.0,0.0,0.0,0.0,0.0,0.0,0.0,1.0381,1.0931,1.0806,1.0973,1.155,1.0872,1.0784,1.155,1.1035,1.1086,1.1851,1.1445,1.1609,0.0,0.0,0.0,0.0,1.417,1.4659,1.4831,1.5503,1.5799,0.0,0.0,0.0,1.5799,0.0,0.0,1.5163,0.0,0.0,0.0,0.0,0.0,0.0,0.0,0.0,0.0,0.0,0.0,0.0,0.0,0.0,0.0,0.0,0.0,0.0,0.0,0.0,0.0,0.0,0.0,0.0,0.0,0.0,0.0,0.0,0.0,0.0,0.0,0.0,1.969,1.969,1.969,1.969,1.969,1.969,1.969,1.969,1.969,1.969,1.969,1.969,0.0,1.969,1.969,2.0109,2.1021,2.147,2.239,2.3836,2.2946,2.2423,2.2305,2.1979,2.1879,2.2015,2.1682,2.257,2.4329,2.3981,2.409,2.4585,2.5217,2.5373,2.5221,2.5221,2.5297,2.5486,2.5888,2.612,2.6297,0.0,0.0,0.0,0.0,0.0,0.0,0.0,0.0,0.0,1.0719,0.0,0.0,0.0,0.0,0.0,1.1563,1.1098,1.1023,1.163,1.0623,1.0498,1.1648,1.1114,1.1316,1.2436,1.232,1.2518,1.3076,0.0,0.0,0.0,0.0,1.5359,1.5799,1.5784,1.5769,1.5724,0.0,1.5186,1.577,0.0,1.5507,1.516,0.0,0.0,0.0,1.594,1.5776,0.0,0.0,0.0,0.0,0.0,0.0,0.0,0.0,0.0,0.0,0.0,0.0,0.0,0.0,0.0,0.0,0.0,0.0,0.0,0.0,0.0,0.0,0.0,0.0,0.0,0.0,0.0,1.969,1.969,1.969,1.969,1.969,1.969,1.969,1.969,1.969,1.969,1.969,1.969,1.969,1.969,1.9705,2.0318,2.162,2.168,2.2009,2.2679,2.1365,2.0722,2.0707,2.1084,2.1553,2.2082,2.2394,2.3342,2.4705,2.3966,2.4251,2.5195,2.5746,2.5689,2.5259,2.5259,2.5577,2.6013,2.6013,2.6297,2.6691,0.0,0.0,0.0,0.0,0.0,0.0,1.0406,1.0295,1.042,0.0,0.0,0.0,1.2077,1.204,1.2015,1.2165,1.204,1.2304,1.3207,1.2559,1.2618,1.3655,1.3188,1.3185,1.3893,1.3509,1.3704,1.4516,1.4255,1.4572,1.5371,1.5535,1.5668,0.0,1.5304,1.5094,1.5081,1.5037,0.0,0.0,1.5403,1.5347,0.0,0.0,0.0,0.0,0.0,1.6959,1.7277,0.0,1.7078,1.5205,0.0,0.0,0.0,0.0,0.0,0.0,1.0594,0.0,0.0,0.0,0.0,0.0,1.3221,1.3635,1.4246,0.0,0.0,0.0,0.0,0.0,0.0,0.0,0.0,1.969,1.969,1.969,1.969,1.969,1.969,1.969,1.969,1.969,1.969,0.0,1.969,1.969,1.969,2.0154,2.0602,2.0976,2.1455,2.1952,2.2478,2.1303,2.088,2.1255,2.0497,2.0625,2.1518,2.1119,2.1877,2.3481,2.3129,2.3424,2.4223,2.548,2.6104,2.628,2.628,2.6385,2.6505,2.6505,2.659,2.6691,0.0,0.0,0.9905,0.9905,0.0,1.0357,1.0643,1.0847,1.1186,0.0,0.0,0.0,1.2341,1.2584,1.2809,1.2993,1.2807,1.3089,1.4076,1.3371,1.3397,1.446,1.3982,1.394,1.4487,1.437,1.4552,1.5104,1.4979,1.5239,1.5799,1.5799,1.5799,1.5784,1.5394,1.4981,0.0,0.0,0.0,0.0,1.4739,0.0,0.0,1.5649,1.5768,0.0,0.0,0.0,1.7737,1.8369,1.7438,0.0,0.0,0.0,0.0,0.0,0.0,0.0,0.0,0.0,0.0,0.0,0.0,0.0,1.3419,1.34,1.3695,0.0,0.0,0.0,0.0,0.0,0.0,0.0,0.0,1.9375,1.9645,1.969,1.969,1.969,1.969,1.969,1.969,1.969,1.969,1.969,1.969,1.969,1.969,2.0064,2.0423,2.0707,2.0812,2.1129,2.1675,2.0737,2.0515,2.0984,2.0579,2.0914,2.1881,2.145,2.2015,2.328,2.2834,2.3046,2.3802,2.5022,2.5796,2.6268,2.6573,2.6691,2.6691,2.6691,2.6691,2.6691,0.0,0.0,0.9918,0.9981,1.0318,1.0669,1.0856,1.1633,1.2291,0.0,1.2504,1.2504,1.2504,1.2977,1.3459,1.3868,1.3462,1.3556,1.4491,1.3611,1.3515,1.4617,1.4202,1.4174,1.4645,1.4982,1.5165,1.5165,1.561,1.5799,1.5799,1.5799,1.5799,1.5799,1.5799,1.5239,1.4284,0.0,0.0,1.4817,1.412,1.4189,0.0,0.0,1.5376,0.0,1.6712,1.7229,1.7368,1.7743,1.6916,0.0,0.0,0.0,0.0,0.0,1.1922,0.0,0.0,0.0,0.0,0.0,0.0,0.0,1.3937,1.3654,1.3632,1.5136,1.5402,0.0,0.0,0.0,0.0,0.0,0.0,1.8852,1.9585,1.969,1.969,1.969,1.969,1.969,1.969,1.969,1.969,1.969,1.969,1.969,1.969,1.969,1.9974,2.0572,2.0004,1.9989,2.0587,1.9989,1.9909,2.033,2.0883,2.1684,2.2599,2.2504,2.2898,2.3522,2.2864,2.2979,2.372,2.4463,2.5113,2.5676,2.6404,2.6691,2.6691,2.6691,2.6742,2.6826,0.9905,0.9905,1.0044,1.0456,1.0255,1.0521,1.1876,1.147,1.1507,1.286,1.3035,1.3035,1.3035,1.3483,1.3802,1.3901,1.4105,1.4439,1.4968,1.477,1.4934,1.5536,1.5462,1.5447,1.5536,1.561,1.5668,1.5668,1.577,1.5799,1.5799,1.5799,1.5799,1.5799,1.5799,1.5167,0.0,0.0,0.0,1.4,1.4482,0.0,1.4968,1.5929,1.6279,1.622,1.6562,1.6909,1.7248,0.0,1.6382,1.585,0.0,0.0,0.0,0.0,0.0,0.0,0.0,0.0,0.0,0.0,0.0,0.0,1.4039,1.3176,1.2747,0.0,1.4059,0.0,0.0,0.0,0.0,0.0,0.0,1.8328,1.951,1.969,1.969,1.969,1.969,1.969,1.969,1.969,1.969,1.969,1.969,1.969,1.969,1.969,1.975,1.9884,1.975,1.975,1.9884,1.975,1.9909,2.0314,2.0454,2.0971,2.1826,2.1796,2.2076,2.2555,2.2421,2.2773,2.3526,2.425,2.4987,2.5676,2.6404,2.6691,2.6691,2.6691,2.708,2.7604,0.9956,1.0357,1.0646,1.0357,1.0772,1.1337,1.1914,1.1958,1.2246,1.3085,1.3391,1.3547,1.3547,1.3934,1.4278,1.447,1.469,1.4968,1.5418,1.5448,1.5551,1.5799,1.5799,1.5799,1.5799,1.5799,1.5799,1.5799,1.5799,1.5799,1.5799,1.5799,0.0,0.0,1.5403,0.0,0.0,0.0,1.3656,1.351,1.3907,0.0,1.5004,1.5793,1.6107,1.6187,1.6693,1.7076,1.7194,1.6596,1.619,0.0,0.0,1.5017,1.4246,0.0,1.4385,1.3528,0.0,0.0,0.0,1.4021,0.0,0.0,0.0,1.398,1.3473,1.5141,0.0,0.0,0.0,0.0,0.0,0.0,0.0,1.6982,1.7672,1.8886,1.969,1.969,1.969,1.969,1.969,1.969,1.969,1.969,1.969,1.969,1.969,1.969,1.969,1.969,1.969,1.9782,2.0,2.0,2.033,2.0959,2.0959,2.1306,2.1957,2.1957,2.2077,2.2327,2.2699,2.3054,2.3477,2.4594,2.527,2.5676,2.6404,2.6691,2.6691,2.6691,2.6928,2.73,1.0194,1.0885,1.1261,1.0232,1.1274,1.214,1.1801,1.2556,1.323,1.3433,1.3769,1.4059,1.4179,1.4443,0.0,1.5231,1.5267,1.5389,0.0,0.0,1.5799,1.5799,1.5799,1.5799,1.5799,1.5799,1.5799,1.5799,1.5799,1.5799,1.5799,1.5799,0.0,0.0,0.0,0.0,0.0,0.0,0.0,1.3523,0.0,1.4174,1.4979,1.5605,1.5781,1.585,1.6785,1.7146,1.7083,1.6546,0.0,1.5944,1.6317,1.5761,0.0,0.0,0.0,0.0,0.0,0.0,0.0,0.0,0.0,1.5111,0.0,0.0,0.0,0.0,0.0,0.0,0.0,0.0,0.0,0.0,0.0,0.0,0.0,1.743,0.0,1.8961,1.9151,1.9301,1.9301,1.942,1.9555,1.9675,1.957,1.9555,1.9675,1.969,1.969,1.969,1.9782,1.9965,2.0314,2.0382,2.0846,2.1582,2.1582,2.1853,2.231,2.231,2.231,2.2344,2.3088,2.3477,2.3714,2.505,2.5693,2.5879,2.6471,2.6691,2.6691,2.6691,2.6793,2.7012,1.0806,1.1148,1.1387,1.0719,1.1211,1.1826,1.2253,1.2729,1.3342,1.4242,1.4406,1.4676,0.0,0.0,0.0,0.0,0.0,0.0,1.5799,0.0,0.0,1.5799,1.5799,1.5799,1.5799,1.5799,1.5799,1.5799,1.5799,1.5799,1.5799,1.5799,0.0,0.0,1.5711,0.0,0.0,0.0,1.4915,0.0,1.5216,1.5191,0.0,1.6019,1.612,1.5768,1.6405,1.6595,1.6506,0.0,1.6077,1.6401,0.0,1.6154,1.6019,0.0,0.0,0.0,0.0,0.0,0.0,0.0,1.5694,0.0,0.0,0.0,1.4773,1.4922,0.0,0.0,0.0,0.0,0.0,0.0,0.0,0.0,1.4034,1.5291,1.6248,1.6248,1.7236,1.7921,1.7921,1.8463,1.9061,1.9681,1.9151,1.9076,1.966,1.969,1.969,1.969,2.007,2.0246,2.0314,2.0715,2.115,2.1582,2.1582,2.1853,2.231,2.231,2.231,2.2344,2.3088,2.3765,2.4455,2.527,2.5998,2.6573,2.6657,2.6691,2.6691,2.6691,2.7114,2.7807,1.1387,1.1939,1.2266,1.1387,1.1964,1.2517,1.2429,1.3032,1.3771,1.4397,1.469,0.0,0.0,0.0,0.0,0.0,0.0,1.6503,0.0,0.0,0.0,0.0,0.0,0.0,1.6323,1.5964,1.5799,1.5799,1.5799,1.5799,1.5799,1.5522,0.0,0.0,1.5057,0.0,1.4413,0.0,0.0,0.0,0.0,0.0,0.0,1.6095,1.6371,1.6208,1.6434,1.6522,1.6484,0.0,1.6303,0.0,0.0,0.0,0.0,0.0,0.0,0.0,0.0,0.0,0.0,0.0,0.0,0.0,1.5978,0.0,1.5379,0.0,0.0,0.0,0.0,0.0,0.0,0.0,1.2837,0.0,0.0,0.0,1.4944,0.0,0.0,0.0,1.7623,1.7593,1.7999,1.9031,1.8508,1.8418,1.9076,1.948,1.9818,2.0035,2.0212,2.0534,2.1054,2.1228,2.1568,2.2003,2.2003,2.2106,2.231,2.231,2.231,2.2378,2.3528,2.4218,2.4608,2.5761,2.642,2.6691,2.6691,2.6691,2.6691,2.6691,2.6894,2.7334,1.2115,0.0,0.0,0.0,0.0,0.0,1.3155,0.0,0.0,0.0,0.0,0.0,1.6451,1.6231,0.0,0.0,0.0,1.7174,0.0,0.0,1.701,0.0,0.0,0.0,0.0,0.0,1.5978,1.5799,1.5668,1.561,0.0,0.0,0.0,0.0,0.0,1.4401,1.4237,0.0,0.0,1.5329,1.5329,1.5329,1.5392,1.6045,1.6384,1.6522,1.6522,1.6522,1.6522,1.6522,1.661,0.0,1.789,0.0,0.0,0.0,0.0,0.0,1.6861,0.0,0.0,0.0,0.0,0.0,0.0,0.0,0.0,0.0,0.0,0.0,0.0,0.0,0.0,0.0,0.0,1.2366,0.0,0.0,0.0,0.0,0.0,0.0,0.0,1.6458,1.6726,1.8041,1.7565,1.7625,1.8657,1.9151,1.9677,2.0265,2.0416,2.0846,2.1582,2.1735,2.2057,2.2598,2.2412,2.2412,2.2598,2.2395,2.2327,2.2475,2.3887,2.4532,2.4706,2.6117,2.6691,2.6691,2.6691,2.6691,2.6691,2.6691,2.6691,2.6911,1.3148,1.3173,0.0,0.0,0.0,0.0,0.0,0.0,0.0,0.0,0.0,0.0,0.0,0.0,0.0,0.0,0.0,1.7667,1.7697,0.0,1.701,0.0,0.0,1.6697,0.0,0.0,0.0,1.5799,1.5359,0.0,0.0,0.0,0.0,0.0,0.0,1.4605,1.5459,1.5386,1.5819,1.6471,1.6471,1.6471,1.6409,0.0,1.6057,1.6522,1.6522,0.0,0.0,1.6522,1.6824,0.0,0.0,0.0,0.0,0.0,0.0,0.0,0.0,0.0,0.0,1.7503,0.0,0.0,0.0,0.0,1.5799,0.0,0.0,0.0,0.0,0.0,0.0,0.0,0.0,0.0,0.0,0.0,0.0,0.0,0.0,0.0,0.0,1.4857,1.5396,0.0,1.6204,1.6698,1.8597,1.8732,1.9209,2.0265,2.0748,2.1181,2.1598,2.2032,2.262,2.3359,2.2649,2.2682,2.3342,2.2632,2.2404,2.2667,2.3936,2.4593,2.4873,2.6185,2.6691,2.6691,2.6691,2.6691,2.6691,2.6691,2.6691,2.6911,0.0,0.0,0.0,0.0,0.0,0.0,0.0,1.4937,0.0,0.0,0.0,0.0,0.0,0.0,1.7891,0.0,0.0,1.8553,1.8986,1.8403,0.0,0.0,0.0,1.7354,0.0,0.0,0.0,1.5359,1.5165,0.0,0.0,0.0,0.0,0.0,0.0,1.4454,0.0,0.0,0.0,0.0,0.0,1.5756,1.5492,0.0,1.6358,1.6522,1.6522,1.6522,0.0,1.6522,1.7076,1.7826,1.7779,1.8053,1.8436,1.8365,1.8041,1.7876,0.0,0.0,1.9316,1.9076,0.0,0.0,0.0,0.0,0.0,0.0,0.0,0.0,0.0,0.0,0.0,0.0,0.0,0.0,0.0,1.2179,1.2628,0.0,0.0,0.0,0.0,0.0,0.0,0.0,1.6144,0.0,1.7969,1.8463,1.9178,2.0265,2.0449,2.0878,2.1582,2.1764,2.212,2.2682,2.2429,2.2699,2.3393,2.2762,2.2795,2.3375,2.4315,2.4728,2.4906,2.6151,2.6691,2.6691,2.6691,2.6691,2.6691,2.6691,2.6691,2.6911,1.3198,0.0,0.0,0.0,0.0,0.0,0.0,0.0,0.0,0.0,1.6335,0.0,1.7748,0.0,1.8016,0.0,1.9022,1.9034,1.966,1.9076,0.0,1.966,1.8456,0.0,0.0,0.0,0.0,0.0,1.4833,1.4533,0.0,0.0,0.0,0.0,0.0,0.0,0.0,0.0,1.5517,0.0,0.0,1.548,0.0,0.0,1.622,1.6258,0.0,1.6637,1.6795,1.6795,1.7504,1.838,1.838,1.8693,1.9046,1.9046,1.8927,1.8912,1.9525,2.0183,0.0,2.0168,1.9869,0.0,1.8041,0.0,0.0,0.0,0.0,0.0,0.0,0.0,0.0,0.0,0.0,0.0,0.0,1.3077,1.366,0.0,0.0,0.0,0.0,0.0,0.0,0.0,0.0,0.0,0.0,1.81,1.8936,2.0249,2.0314,2.0699,2.1582,2.1582,2.2119,2.3088,2.2818,2.3207,2.4171,2.3543,2.3571,2.4131,2.4795,2.516,2.5285,2.6303,2.6691,2.6691,2.6691,2.6691,2.6691,2.6691,2.7046,2.7655,0.0,0.0,0.0,0.0,1.3581,0.0,0.0,0.0,1.523,0.0,1.57,1.6167,1.6338,1.6854,1.7622,1.876,1.8855,0.0,1.9603,1.9021,0.0,0.0,1.8513,1.7913,1.787,0.0,0.0,0.0,1.4346,1.3901,1.3868,0.0,0.0,0.0,1.3198,0.0,1.4123,1.4639,1.5205,1.5693,1.5731,1.5718,1.5693,1.5731,1.5718,1.5768,1.6321,1.6837,1.7312,1.7312,1.8027,1.8893,1.8893,1.9281,1.969,1.969,2.0154,2.0528,1.9863,2.0243,2.0729,2.0729,2.0236,0.0,0.0,0.0,1.8747,0.0,0.0,0.0,0.0,0.0,0.0,0.0,0.0,0.0,0.0,0.0,0.0,1.4842,0.0,0.0,0.0,0.0,0.0,0.0,0.0,0.0,0.0,1.7697,1.8513,2.0153,2.0296,2.0714,2.1521,2.1584,2.2554,2.4377,2.3718,2.4174,2.5542,2.4833,2.4611,2.4906,2.5397,2.5765,2.6049,2.6505,2.6691,2.6691,2.6691,2.6691,2.6691,2.6742,2.7706,2.9028,1.3198,1.3198,1.3198,0.0,1.3581,1.3967,0.0,0.0,0.0,0.0,1.5896,1.644,1.6992,1.7498,1.7965,1.8288,1.8302,0.0,0.0,0.0,0.0,1.8482,1.8226,1.7817,1.732,1.6637,0.0,1.4865,1.4212,1.3702,1.3391,0.0,0.0,0.0,0.0,0.0,1.4097,1.4236,1.4853,1.5731,1.6132,1.6057,1.5731,0.0,1.6057,1.5768,1.6321,1.6837,1.7312,1.7312,1.8027,1.8893,1.8893,1.9281,1.969,1.969,1.9809,1.9945,1.9865,2.0646,2.1362,2.0973,2.1015,2.1051,2.0557,0.0,0.0,0.0,0.0,0.0,0.0,0.0,0.0,0.0,0.0,0.0,0.0,0.0,0.0,1.5484,0.0,0.0,0.0,0.0,0.0,0.0,0.0,0.0,0.0,0.0,1.8631,1.9099,2.0095,2.0589,2.0634,2.1519,2.2199,2.2654,2.3325,2.41,2.4994,2.4468,2.4743,2.5681,2.5839,2.5955,2.6049,2.6505,2.6691,2.6691,2.6691,2.6691,2.6759,2.7334,2.8146,2.9059,1.3198,0.0,0.0,1.3198,0.0,0.0,1.4164,0.0,0.0,1.5446,1.6008,0.0,1.6584,1.7076,1.7504,1.7747,1.7747,0.0,1.8066,0.0,0.0,1.8106,1.7867,1.7584,1.7181,1.6449,0.0,1.4795,0.0,0.0,1.3198,0.0,0.0,0.0,0.0,1.3408,0.0,1.4236,1.4802,1.5379,1.5932,1.5969,0.0,1.6045,1.612,1.6095,1.6409,1.6993,1.7666,1.7666,1.838,1.9244,1.9244,1.9442,1.975,2.0049,2.0131,2.0167,2.0215,2.0979,2.1557,2.0983,2.1484,2.1966,2.1278,2.1065,2.103,0.0,2.0288,1.9645,0.0,0.0,0.0,0.0,0.0,0.0,0.0,0.0,0.0,0.0,1.5799,0.0,0.0,0.0,0.0,0.0,0.0,0.0,0.0,0.0,1.8238,1.9106,1.9585,1.9844,1.9896,2.0852,2.1544,2.2031,2.2991,2.4109,2.5299,2.5049,2.5422,2.6297,2.6297,2.6297,2.6332,2.659,2.6691,2.6691,2.6691,2.6691,2.6793,2.7554,2.8315,2.9042,0.0,0.0,0.0,0.0,0.0,0.0,0.0,1.4788,0.0,1.5359,0.0,1.6233,1.5743,1.6183,1.668,1.7146,0.0,1.7394,1.7867,1.7907,1.7907,1.7907,1.7422,1.7188,1.7188,1.6204,0.0,0.0,0.0,0.0,0.0,0.0,0.0,0.0,0.0,0.0,0.0,1.4438,1.4953,1.5067,1.558,1.5806,1.5806,1.5806,1.6095,1.6522,1.6522,1.7146,1.7987,1.7987,1.865,1.9479,1.9479,1.9538,1.9731,2.0286,2.052,2.0556,2.0514,2.0999,2.1429,2.0827,2.1619,2.246,2.1959,2.2292,2.2703,2.2802,2.1371,2.0385,2.1382,0.0,0.0,0.0,0.0,0.0,0.0,0.0,0.0,0.0,0.0,0.0,0.0,0.0,0.0,0.0,0.0,0.0,0.0,0.0,1.7578,1.9241,1.9076,1.9072,1.9288,2.0286,2.1277,2.2159,2.3061,2.4356,2.6013,2.6013,2.6262,2.6691,2.6691,2.6691,2.6691,2.6691,2.6691,2.6691,2.6691,2.6691,2.6776,2.7435,2.823,2.8991,0.0,0.0,0.0,0.0,0.0,1.3722,1.5296,1.479,1.4424,1.4955,1.5469,1.5806,1.5706,1.6183,1.6552,1.6637,1.6637,0.0,0.0,0.0,0.0,1.6795,1.668,1.6637,1.6637,1.6011,1.5429,0.0,0.0,0.0,0.0,0.0,0.0,0.0,0.0,0.0,1.3984,1.4639,0.0,1.5593,1.6145,1.6371,1.6371,1.6371,1.6434,1.6522,1.6522,1.6909,1.7422,1.7422,1.7867,1.838,1.838,1.8677,1.907,1.9182,1.9586,1.9855,1.9414,2.0107,2.0841,2.0281,2.1002,2.1979,2.2415,2.2626,2.2863,2.3344,2.276,2.1917,2.1021,0.0,0.0,0.0,0.0,0.0,0.0,0.0,0.0,0.0,0.0,1.6338,0.0,0.0,0.0,0.0,0.0,0.0,0.0,0.0,1.7428,0.0,1.925,1.9861,0.0,2.1949,2.3127,2.2373,2.4463,2.5694,2.6013,2.6013,2.6262,2.6691,2.6691,2.6691,2.6691,2.6691,2.6691,2.6691,2.6691,2.6691,2.6708,2.6843,2.7774,2.9076,0.0,0.0,0.0,0.0,0.0,0.0,0.0,1.5104,0.0,1.5655,1.5957,1.612,1.612,1.6358,1.6522,1.6522,1.6522,1.6522,1.6522,1.6522,1.6522,1.6522,1.6522,0.0,1.6522,1.6258,1.5718,1.4916,0.0,0.0,0.0,0.0,0.0,0.0,0.0,1.3846,0.0,0.0,0.0,1.5743,1.6296,1.6522,1.6522,1.6522,1.6522,1.6522,1.6522,1.668,1.6909,1.7188,1.7827,1.8521,1.8521,1.8907,1.9427,1.9773,1.9822,1.9813,1.9885,2.0114,2.0227,1.9946,2.0801,2.1791,2.21,2.2452,2.2785,2.3054,2.2614,2.1874,2.0889,1.9654,0.0,0.0,0.0,0.0,0.0,0.0,0.0,0.0,0.0,0.0,0.0,0.0,0.0,0.0,0.0,0.0,0.0,0.0,1.7041,0.0,0.0,0.0,1.8717,0.0,2.2813,2.1952,2.4056,2.5402,2.6013,2.6013,2.6262,2.6691,2.6691,2.6691,2.6725,2.7114,2.7046,2.6725,2.7131,2.7046,2.6742,2.7131,2.7994,2.9025,0.0,1.3448,0.0,0.0,1.3883,0.0,1.4979,1.5417,1.5894,1.6446,1.6522,1.6522,1.6522,1.6522,1.6522,1.6522,1.6522,1.6522,1.6522,1.6522,1.6522,1.6522,1.6522,1.6522,1.6522,1.6522,1.6032,0.0,0.0,0.0,0.0,0.0,0.0,0.0,0.0,0.0,0.0,0.0,1.5768,1.5906,1.6346,1.6522,1.6522,1.6522,1.6522,1.6522,1.6522,1.6522,1.6552,1.6993,1.7686,1.8422,1.8557,1.8973,1.9593,2.0219,2.0112,1.9937,2.0429,2.0207,1.9798,1.9798,2.0657,2.152,2.1649,2.21,2.2543,2.2649,2.2157,2.1528,2.0813,2.0383,1.9975,0.0,0.0,0.0,0.0,0.0,0.0,0.0,0.0,0.0,1.6726,0.0,0.0,0.0,0.0,0.0,1.6682,0.0,0.0,0.0,1.8553,1.8755,1.8857,0.0,2.2608,2.2264,2.3939,2.5242,2.6156,2.6156,2.6367,2.6691,2.6691,2.6793,2.6979,2.7571,2.7469,2.6996,2.7553,2.7351,2.6793,2.7554,2.8315,2.9045,0.0,0.0,0.0,0.0,0.0,0.0,1.5454,1.5668,1.5894,1.6446,1.6522,1.6522,1.6522,1.6522,1.6522,1.6522,1.6522,1.6522,1.6522,1.6522,1.6522,1.6522,1.6522,1.6522,1.6522,1.6522,1.622,0.0,0.0,1.4601,0.0,0.0,0.0,0.0,0.0,0.0,1.5542,1.5655,1.5982,1.6446,1.6497,1.6522,1.6522,1.6522,1.6522,1.6522,1.6522,1.6522,1.6522,1.6552,1.6633,1.6802,1.7378,1.7936,1.8447,1.9003,1.9447,1.9838,1.9888,1.985,1.9798,1.9798,2.0346,2.1028,2.1568,2.1758,2.1946,2.2543,2.2165,2.1485,2.0825,2.1125,2.0915,0.0,0.0,0.0,0.0,0.0,0.0,0.0,0.0,0.0,0.0,1.6144,0.0,0.0,1.5799,0.0,0.0,0.0,0.0,1.6876,1.8089,1.8925,1.9419,2.2496,2.4269,2.4692,2.5882,2.6522,2.6624,2.6624,2.6657,2.6691,2.6691,2.708,2.7688,2.7755,2.7739,2.7688,2.7755,2.7351,2.6793,2.7554,2.8315,2.9076,0.0,0.0,0.0,0.0,0.0,0.0,0.0,1.5969,1.6271,1.6484,1.6522,1.6522,1.6522,1.6522,1.6522,1.6522,1.6522,1.6522,1.6522,1.6522,1.6522,1.6522,1.6522,1.6522,1.6522,1.6522,1.6245,0.0,0.0,0.0,0.0,0.0,0.0,1.4588,1.4928,1.5279,1.5718,1.6045,1.6308,1.6522,1.6522,1.6722,1.6999,1.6647,1.6735,1.6986,1.6635,1.6522,1.6522,1.6522,1.6748,1.7074,1.7313,1.7765,1.8317,1.8869,1.9171,1.9409,1.971,1.9798,1.9798,1.9798,2.057,2.1376,2.1649,2.1993,2.2392,2.2649,2.2498,2.2326,2.2409,2.2361,2.2061,2.1222,0.0,0.0,0.0,0.0,0.0,0.0,0.0,0.0,0.0,0.0,0.0,0.0,0.0,0.0,0.0,0.0,0.0,1.77,0.0,2.0113,2.1052,2.3379,2.4718,2.501,2.6168,2.6691,2.6691,2.6691,2.6691,2.6725,2.7182,2.7554,2.7857,2.8822,2.8653,2.784,2.8332,2.8044,2.7452,2.823,2.8991,2.977,1.5162,0.0,1.5155,0.0,1.5442,1.5693,1.5693,1.617,1.6522,1.6522,1.6522,1.6522,1.6522,1.6522,1.6522,1.6522,1.6522,1.6522,1.6522,1.6522,1.6522,1.6522,1.6522,0.0,1.6522,1.6522,1.6321,1.5932,1.5379,0.0,0.0,1.4588,1.4626,1.5167,1.5517,1.5781,1.5969,1.6358,1.6522,1.6534,1.6697,1.7024,1.7338,1.6923,1.7024,1.73,1.6722,1.6522,1.6522,1.6522,1.6911,1.7413,1.7576,1.789,1.8342,1.9045,1.9258,1.9334,1.9698,1.9952,2.0105,2.0105,2.1051,2.1993,2.1993,2.2346,2.2694,2.2694,2.2694,2.2831,2.327,2.2981,2.2529,2.1929,0.0,0.0,0.0,1.9914,0.0,0.0,1.7578,1.7697,1.7697,1.6712,0.0,0.0,0.0,0.0,0.0,0.0,0.0,1.8453,1.9605,2.0842,2.2115,2.3716,2.4843,2.5496,2.6303,2.6691,2.6691,2.6691,2.6691,2.6742,2.7503,2.7908,2.8264,2.9567,2.9465,2.8552,2.9093,2.8839,2.8264,2.9025,2.9651,3.0226,1.6255,1.6057,1.568,1.568,1.5693,1.5693,1.5693,1.617,1.6522,1.6522,1.6522,1.6522,1.6522,1.6522,1.6522,1.6522,1.6522,1.6522,1.6522,1.6522,1.6522,0.0,0.0,1.6522,1.6522,1.6522,1.6522,1.6509,0.0,0.0,1.5668,1.5155,1.5205,1.568,1.5693,1.5994,1.6509,1.6522,1.6522,1.6572,1.7137,1.7375,1.7388,1.7375,1.7375,1.73,1.6722,1.6522,1.6522,1.6522,1.6911,1.7476,1.8028,1.8191,1.8417,1.9484,1.9798,1.9798,1.9798,2.0295,2.0795,2.0795,2.1752,2.2694,2.2694,2.2694,2.2694,2.2694,2.2694,2.2701,2.2718,2.2724,2.2064,2.0049,0.0,0.0,0.0,1.9011,0.0,1.704,1.7294,1.7697,1.7697,1.71,0.0,0.0,0.0,0.0,0.0,0.0,0.0,1.8691,1.9547,2.0717,2.2181,2.3325,2.483,2.6674,2.6691,2.6691,2.6691,2.6691,2.6691,2.6742,2.7503,2.8264,2.9025,2.9786,3.0091,3.0074,3.0091,2.9634,2.9059,2.982,3.0108,3.0226,1.506,1.5159,1.5142,1.5567,1.561,1.5752,1.6161,1.6409,1.6522,1.6522,1.6522,1.6522,1.6522,1.6522,1.6522,0.0,1.6522,1.6522,0.0,1.6522,1.6522,1.6522,1.6522,1.6522,1.6522,1.6522,1.6522,1.6522,0.0,1.5115,1.5115,1.5728,1.6082,1.6258,1.6258,1.6358,1.6522,1.6522,1.6522,1.6534,1.6722,1.7024,1.7338,1.6936,1.7036,1.73,1.6722,1.6522,1.6572,1.6974,1.7225,1.7551,1.848,1.8505,1.8342,1.9058,1.9594,2.0002,2.0393,2.0917,2.1424,2.1424,2.2067,2.2694,2.2694,2.3024,2.3334,2.3334,2.3334,2.3318,2.3298,2.2966,2.2323,2.1231,2.141,0.0,1.9031,0.0,1.9525,1.8238,1.7832,1.7861,1.8343,1.8208,0.0,0.0,0.0,0.0,0.0,0.0,1.9587,2.0962,2.1738,2.2882,2.4496,2.4894,2.5596,2.6691,2.6691,2.6691,2.6691,2.6691,2.6691,2.6742,2.7503,2.8264,2.9042,2.9803,3.0108,3.0108,3.0108,2.9973,2.9786,3.0023,3.0429,3.0886,1.4505,1.4698,1.4835,1.5186,1.5276,1.5466,1.6051,1.6151,1.6238,1.6466,1.6522,1.6522,1.6522,1.6522,0.0,1.6522,1.6522,1.6522,1.6522,1.6522,1.6522,1.6522,1.6522,1.638,1.6194,1.6151,1.6051,1.5832,1.5116,1.497,1.5433,1.611,1.6702,1.7149,1.7149,1.7036,1.6861,1.7061,1.7036,1.6861,1.7074,1.7363,1.7626,1.7061,1.7074,1.73,1.6722,1.666,1.6898,1.7262,1.7652,1.8129,1.8819,1.9067,1.9259,1.9556,1.9976,2.043,2.097,2.1582,2.21,2.21,2.2575,2.3054,2.3054,2.3334,2.3595,2.3595,2.3595,2.3595,2.3595,2.2892,2.2173,2.1754,2.1485,2.0857,1.951,0.0,1.9645,0.0,0.0,1.8627,0.0,1.9301,1.9286,0.0,0.0,0.0,0.0,0.0,2.0624,2.2176,2.2916,2.3997,2.5346,2.5527,2.5981,2.6691,2.6691,2.6691,2.6691,2.6691,2.6691,2.6759,2.7807,2.8535,2.9059,3.0091,3.0514,3.0514,3.0514,3.0514,3.0514,3.0514,3.0801,3.119,1.4512,1.4593,1.4582,1.4651,1.4686,1.4835,1.5454,1.5543,1.5732,1.6293,1.638,1.638,1.638,1.638,1.638,1.638,1.6423,1.6423,1.638,1.638,1.638,1.638,1.6417,1.6156,1.5591,1.5591,1.5266,1.4652,1.4698,1.5269,1.6326,1.6372,1.7046,1.8204,1.8204,1.7903,1.7413,1.7928,1.7827,1.7363,1.7928,1.8129,1.8041,1.7564,1.735,1.725,1.671,1.6886,1.7388,1.7426,1.8129,1.8982,1.9107,1.987,2.0743,2.0795,2.0845,2.1028,2.1615,2.2253,2.274,2.274,2.3187,2.3595,2.3595,2.3595,2.3595,2.3595,2.3595,2.3595,2.3595,2.2562,2.1695,2.1695,2.1096,2.0183,1.8882,1.9779,1.9863,0.0,0.0,1.972,1.9809,2.0453,2.0812,0.0,0.0,0.0,0.0,2.0889,2.11,2.249,2.3374,2.4214,2.5059,2.5463,2.6048,2.6776,2.6776,2.681,2.686,2.6793,2.6776,2.686,2.8281,2.8907,2.9008,3.0497,3.1123,3.1123,3.1173,3.119,3.119,3.119,3.119,3.119,1.372,1.3518,1.358,1.4327,1.4238,1.4236,1.4835,1.4926,1.4971,1.5107,1.5107,1.5107,1.5107,1.5107,1.5107,1.5107,1.5555,1.5644,1.5152,1.5107,1.5107,1.5107,1.5418,1.5531,1.5378,1.5378,1.4915,1.4003,1.4468,1.5049,1.5713,1.6174,1.7046,1.8204,1.8204,1.7903,1.7388,1.7526,1.725,1.6773,1.735,1.7313,1.6948,1.7262,1.7099,1.671,1.6572,1.6886,1.7451,1.7865,1.8179,1.8639,1.9943,2.0302,2.0276,2.0677,2.1513,2.2267,2.2406,2.292,2.3377,2.3377,2.3508,2.3595,2.3595,2.3595,2.3595,2.3595,2.3595,2.3595,2.3595,2.2562,2.1695,2.1695,2.0707,1.9645,1.8822,1.8972,1.9196,0.0,1.9495,2.0094,2.1126,2.1814,2.1799,0.0,0.0,2.1844,2.0991,2.1708,2.2696,2.3878,2.4519,2.5139,2.5749,2.6219,2.681,2.7554,2.7554,2.7858,2.8416,2.7824,2.7554,2.7571,2.7943,2.8095,2.8213,2.9736,3.0362,3.0429,3.097,3.119,3.119,3.119,3.119,3.119,1.3428,1.332,1.3391,1.4154,1.4074,1.4161,1.4812,1.486,1.4996,1.5274,1.5274,1.5274,1.5274,1.5274,1.5089,1.462,1.4959,1.5062,1.4698,1.4864,1.4976,1.4976,1.5397,1.5466,1.5228,1.5228,1.4705,1.3667,1.4156,1.492,1.5871,1.6443,1.7482,1.8932,1.8932,1.8631,1.8129,1.8129,1.7802,1.7287,1.7363,1.7187,1.6923,1.6974,1.6798,1.6559,1.6823,1.7275,1.784,1.8392,1.8925,1.9558,2.0512,2.1008,2.1277,2.1608,2.2175,2.274,2.3024,2.3334,2.3595,2.3595,2.3595,2.3595,2.3595,2.3595,2.3595,2.3595,2.3595,2.3595,2.3595,2.2697,2.1901,2.1734,2.0488,1.9349,1.8781,1.8957,1.9286,1.9645,2.0498,2.135,2.2084,2.2727,2.2802,2.2084,2.2428,2.2488,2.2054,2.2443,2.3091,2.3925,2.454,2.5221,2.5997,2.6487,2.6894,2.73,2.762,2.8044,2.8433,2.801,2.7789,2.7789,2.7789,2.7789,2.7874,2.911,2.9803,3.0142,3.0548,3.0903,3.1157,3.0818,3.07,3.0649,1.3603,1.3643,1.374,1.4107,1.418,1.4291,1.4872,1.4924,1.5122,1.5658,1.5709,1.5709,1.5709,1.5709,1.5343,1.4437,1.4489,1.4562,1.4543,1.4821,1.5072,1.5137,1.5557,1.5571,1.508,1.5027,1.455,1.3603,1.4051,1.4976,1.6441,1.6922,1.8123,1.9798,1.9723,1.9397,1.8907,1.8907,1.853,1.7928,1.7626,1.74,1.7212,1.6898,1.6722,1.6722,1.73,1.7865,1.8405,1.8869,1.9757,2.0739,2.0855,2.1683,2.2624,2.2815,2.2844,2.2965,2.3465,2.3595,2.3595,2.3595,2.3595,2.3595,2.3595,2.3535,2.349,2.358,2.3445,2.337,2.3565,2.2793,2.2026,2.1609,2.0325,1.9223,1.8771,1.9271,1.9801,1.9974,2.1614,2.2753,2.2843,2.3295,2.3595,2.3595,2.3116,2.2996,2.343,2.3041,2.299,2.3264,2.3993,2.491,2.5997,2.6487,2.6759,2.6877,2.7638,2.8026,2.8127,2.8044,2.7994,2.7958,2.784,2.7722,2.7723,2.8602,2.9296,2.9786,3.0023,3.048,3.097,3.0463,3.0209,3.0023,1.4434,1.4287,1.417,1.4609,1.4375,1.4131,1.4237,1.4237,1.4291,1.4387,1.4387,1.4387,1.4387,1.4387,1.4314,1.4139,1.4175,1.4029,1.3721,1.3751,1.3909,1.4268,1.476,1.4954,1.4844,1.4854,1.4582,1.398,1.4695,1.5656,1.6909,1.7611,1.86,1.9786,1.9346,1.8844,1.8329,1.8329,1.7727,1.6861,1.7727,1.7501,1.6748,1.7614,1.7652,1.7313,1.7877,1.843,1.892,1.8945,1.9487,2.0292,2.1274,2.1749,2.2193,2.3171,2.3465,2.3465,2.3551,2.3595,2.3595,2.3595,2.3595,2.3595,2.3595,2.3191,2.2966,2.349,2.2742,2.2323,2.34,2.2422,2.1326,2.0933,2.0035,1.9223,1.8771,1.9271,2.0109,2.1246,2.2158,2.2877,2.34,2.355,2.3595,2.3595,2.3505,2.3266,2.2847,2.3221,2.3248,2.2832,2.3861,2.491,2.5997,2.6487,2.7012,2.762,2.8433,2.9127,2.9736,2.9093,2.8805,2.8772,2.8112,2.7469,2.6979,2.8399,2.867,2.8298,2.96,3.0176,3.0345,3.0835,3.0632,3.0091,1.4619,1.4561,1.4531,1.5029,1.4951,1.4824,1.4824,1.4824,1.4824,1.4824,1.4824,1.4824,1.4824,1.4824,1.4736,1.4502,1.4482,1.4404,1.4209,1.4189,1.4287,1.4473,1.4893,1.5117,1.5117,1.5505,1.5507,1.505,1.6031,1.6874,1.7594,1.8187,1.8773,1.9371,1.9133,1.8833,1.8631,1.8329,1.8078,1.789,1.8116,1.7714,1.7074,1.789,1.7865,1.7501,1.8342,1.8819,1.9021,1.9346,2.0093,2.1023,2.1519,2.2224,2.2906,2.3462,2.3595,2.3595,2.3595,2.3595,2.3595,2.3595,2.3595,2.3595,2.3595,2.337,2.3251,2.3535,2.2862,2.2465,2.3284,2.2256,2.1106,2.0569,1.987,1.9223,1.8771,1.9585,2.0602,2.1575,2.2577,2.3281,2.3565,2.3595,2.3595,2.3595,2.3595,2.3475,2.3191,2.3445,2.3475,2.3176,2.4275,2.5221,2.5997,2.6487,2.686,2.7232,2.7994,2.8535,2.8856,2.8518,2.8349,2.8315,2.7537,2.7012,2.6759,2.7452,2.7774,2.7891,2.9059,2.9753,3.0142,3.048,3.0395,3.004,1.4998,1.5113,1.5229,1.584,1.5911,1.5911,1.5911,1.5911,1.5911,1.5911,1.5748,1.5642,1.5642,1.5526,1.5283,1.4961,1.4932,1.4932,1.4932,1.4932,1.4932,1.4932,1.5244,1.541,1.541,1.6151,1.6371,1.6048,1.7279,1.7982,1.8247,1.8746,1.9059,1.9196,1.9083,1.8983,1.8945,1.8581,1.8493,1.8631,1.8455,1.799,1.7451,1.8141,1.8129,1.789,1.8857,1.9208,1.9271,1.9864,2.0756,2.1758,2.1899,2.2696,2.3595,2.3595,2.3595,2.3565,2.343,2.349,2.3565,2.343,2.349,2.3595,2.3595,2.349,2.343,2.3565,2.2981,2.2611,2.3081,2.2117,2.1095,2.0481,1.9953,1.9562,1.9431,2.0288,2.1231,2.2039,2.2996,2.3595,2.3595,2.3595,2.3595,2.3595,2.3595,2.3595,2.3595,2.3595,2.3709,2.3948,2.4776,2.5465,2.5997,2.6487,2.6691,2.6708,2.7469,2.7789,2.7789,2.7789,2.7789,2.7739,2.7012,2.6691,2.6691,2.6691,2.7029,2.7655,2.8602,2.9347,2.9888,3.0226,3.026,3.0006,1.6177,1.6373,1.6599,1.7291,1.7468,1.7468,1.7468,1.7468,1.7468,1.7468,1.6866,1.6436,1.6436,1.5806,1.54,1.5371,1.5371,1.5371,1.5371,1.5371,1.5371,1.5371,1.5391,1.541,1.541,1.6151,1.6472,1.644,1.7884,1.8638,1.8655,1.9411,1.9722,1.9723,1.9246,1.8983,1.8983,1.8933,1.8405,1.7589,1.8581,1.8329,1.7501,1.8555,1.8895,1.8982,1.9547,1.9748,1.9851,2.0484,2.1161,2.1805,2.2452,2.3054,2.3595,2.3595,2.3595,2.3475,2.2906,2.3161,2.346,2.2933,2.3176,2.3595,2.3595,2.3161,2.2906,2.3475,2.2622,2.1949,2.2645,2.1957,2.1157,2.0745,2.0416,2.0527,2.1368,2.156,2.2084,2.331,2.3535,2.3595,2.3595,2.3595,2.3595,2.3595,2.3595,2.3595,2.3595,2.3595,2.4074,2.5067,2.5144,2.5465,2.5997,2.6487,2.6691,2.6708,2.7469,2.7789,2.7789,2.7789,2.7789,2.7739,2.7012,2.6691,2.6691,2.6691,2.6725,2.6928,2.8399,2.9008,2.9228,3.0615,3.0683,3.0027,1.6285,1.7157,1.7655,1.7633,1.7863,1.7972,1.7633,1.7578,1.7578,1.7578,1.6978,1.6492,1.6492,1.5864,1.541,1.541,1.541,1.541,1.541,1.541,1.541,1.541,1.541,1.541,1.541,1.6151,1.6708,1.7191,1.8221,1.8927,1.9371,1.9695,1.9623,1.9309,1.912,1.8983,1.8983,1.8983,1.897,1.892,1.9334,1.9058,1.848,1.9221,1.9309,1.9046,1.961,1.9798,1.9901,2.0547,2.121,2.1805,2.2498,2.3098,2.3595,2.3595,2.3595,2.346,2.2847,2.3131,2.3535,2.331,2.343,2.3595,2.3595,2.3415,2.331,2.355,2.2906,2.249,2.3,2.2245,2.1432,2.1118,2.112,2.1273,2.1659,2.2054,2.2622,2.349,2.3595,2.3595,2.3595,2.3595,2.3595,2.3595,2.3595,2.3767,2.4074,2.443,2.4792,2.5182,2.554,2.5908,2.6436,2.6624,2.6691,2.6691,2.6979,2.7131,2.7131,2.7131,2.7131,2.7114,2.6826,2.6691,2.6691,2.6691,2.6962,2.7452,2.8044,2.8839,2.9753,3.0311,3.0483,3.0398,1.6317,1.7368,1.8093,1.7961,1.8459,1.8738,1.834,1.8286,1.8286,1.8286,1.7633,1.709,1.6866,1.6197,1.5642,1.541,1.5584,1.5748,1.5748,1.5968,1.5853,1.541,1.541,1.5526,1.5748,1.6482,1.7202,1.7961,1.8661,1.9307,1.9798,1.9798,1.961,1.9271,1.9271,1.9271,1.9271,1.9271,1.9384,1.9572,1.9736,1.9497,1.9033,1.961,1.9572,1.9321,1.9673,1.9798,1.9952,2.0782,2.1342,2.1852,2.2725,2.329,2.3595,2.3595,2.3595,2.3505,2.3086,2.3266,2.355,2.3355,2.346,2.3595,2.3595,2.3595,2.3595,2.3595,2.3266,2.2957,2.2842,2.2385,2.1888,2.1506,2.1765,2.2069,2.2263,2.2682,2.3131,2.355,2.3595,2.3595,2.3595,2.3595,2.3595,2.3595,2.3595,2.3752,2.4116,2.4831,2.5221,2.5221,2.5577,2.6068,2.6691,2.6691,2.6691,2.6691,2.6691,2.6691,2.6691,2.6691,2.6691,2.6691,2.6691,2.6826,2.7029,2.6793,2.7283,2.8163,2.7891,2.8619,2.9786,3.0023,3.0091,3.0143,1.6368,1.709,1.7852,1.8555,1.9319,1.9798,1.9798,1.9798,1.9798,1.9798,1.915,1.8394,1.7688,1.6922,1.6208,1.5468,1.6093,1.6482,1.6482,1.7202,1.6968,1.5468,1.541,1.5748,1.6482,1.7246,1.7961,1.8715,1.9423,1.9798,1.9798,1.9798,1.9798,1.9798,1.9798,1.9798,1.9798,1.9798,1.9497,1.9033,1.9597,1.9497,1.9033,1.961,1.9798,1.9798,1.9798,1.9798,1.9991,2.128,2.1697,2.1932,2.3216,2.3595,2.3595,2.3595,2.3595,2.3595,2.3595,2.3595,2.3445,2.2847,2.3146,2.3595,2.3595,2.3595,2.3595,2.3595,2.3595,2.3206,2.1949,2.2248,2.2473,2.1814,2.2263,2.2906,2.352,2.3595,2.3595,2.3595,2.3595,2.3595,2.3595,2.3595,2.3595,2.3595,2.3595,2.3595,2.3595,2.4632,2.5221,2.5221,2.5221,2.5672,2.6691,2.6691,2.6691,2.6691,2.6691,2.6691,2.6691,2.6691,2.6691,2.6691,2.6691,2.7114,2.7722,2.6996,2.7588,2.889,2.8112,2.8298,2.9076,2.982,2.9617,2.9102,1.6255,1.6652,1.709,1.7786,1.8124,1.8286,1.8286,1.8286,1.8286,1.8286,1.8058,1.7841,1.7633,1.7413,1.7191,1.6968,1.7135,1.7246,1.7246,1.7468,1.7401,1.6968,1.6968,1.7024,1.7246,1.7468,1.7961,1.8715,1.8927,1.9307,1.9798,1.9798,1.9798,1.9798,1.9798,1.9798,1.9798,1.9798,1.971,1.9585,1.9748,1.971,1.9585,1.9748,1.9798,1.9798,1.9798,2.0105,2.0633,2.1424,2.1993,2.2543,2.3363,2.3595,2.3595,2.3595,2.3595,2.3595,2.3595,2.3595,2.355,2.337,2.346,2.3595,2.3595,2.3595,2.3595,2.3595,2.3595,2.3475,2.3101,2.3191,2.3266,2.3071,2.3191,2.3385,2.3565,2.3595,2.3595,2.3595,2.3595,2.3595,2.3595,2.3595,2.3595,2.3595,2.3948,2.3991,2.3638,2.4632,2.5221,2.5221,2.5221,2.5672,2.6691,2.6367,2.6367,2.6691,2.6691,2.6691,2.6691,2.6691,2.6691,2.6691,2.6691,2.6826,2.7012,2.6793,2.7283,2.8095,2.7317,2.7841,2.8941,2.8619,2.8526,2.8612,1.4953,1.5352,1.5668,1.6162,1.6746,1.7147,1.7147,1.739,1.7578,1.7578,1.7578,1.7468,1.7191,1.7146,1.7146,1.7146,1.7688,1.8167,1.8447,1.8447,1.8447,1.8447,1.8447,1.834,1.8058,1.8058,1.8394,1.915,1.915,1.9371,1.9798,1.9798,1.9798,1.9798,1.9798,1.9798,1.9798,1.9798,1.9798,1.9798,1.9798,1.9798,1.9798,1.9798,1.9798,1.9798,1.9798,2.0245,2.0894,2.1472,2.2285,2.3098,2.3465,2.3595,2.3595,2.3595,2.343,2.3236,2.3236,2.3236,2.3236,2.3236,2.3415,2.3595,2.3595,2.3595,2.3595,2.3595,2.3595,2.3535,2.3281,2.343,2.352,2.3266,2.343,2.3595,2.3595,2.3595,2.3595,2.3595,2.3595,2.3595,2.3595,2.3595,2.3595,2.3595,2.4116,2.4158,2.3638,2.4632,2.5221,2.5221,2.4973,2.547,2.6691,2.6016,2.6033,2.6691,2.6691,2.6691,2.6691,2.6691,2.6691,2.6691,2.6691,2.686,2.7114,2.6826,2.7317,2.818,2.7114,2.7452,2.8467,2.7994,2.7794,2.7789,1.3009,1.3562,1.3996,1.3996,1.5158,1.6141,1.6208,1.6802,1.7346,1.7413,1.7468,1.7257,1.6539,1.6549,1.6595,1.6595,1.7907,1.898,1.9747,1.9798,1.9798,1.9798,1.9798,1.9475,1.8821,1.8821,1.915,1.9798,1.9798,1.9798,1.9798,1.9798,1.9798,1.9798,1.9798,1.9798,1.9798,1.9798,1.9798,1.9798,1.9798,1.9798,1.9798,1.9798,1.9798,1.9798,1.9798,2.0245,2.0979,2.1663,2.2651,2.3595,2.3595,2.3595,2.3595,2.3595,2.3191,2.2798,2.2798,2.2798,2.2798,2.2798,2.3176,2.3595,2.3595,2.3595,2.3595,2.3595,2.3595,2.343,2.2862,2.3221,2.3415,2.2847,2.3236,2.3595,2.3595,2.3595,2.3595,2.3595,2.3595,2.3595,2.3595,2.3595,2.3595,2.3595,2.4032,2.4116,2.3638,2.4511,2.5067,2.5144,2.4657,2.5112,2.6624,2.5709,2.5746,2.6691,2.6691,2.6691,2.6691,2.6691,2.6691,2.6691,2.6691,2.708,2.7672,2.6979,2.752,2.8636,2.7232,2.7114,2.7688,2.7688,2.7283,2.686,1.2887,1.3122,1.3226,1.3226,1.352,1.393,1.4591,1.4827,1.5129,1.5796,1.6368,1.6652,1.6549,1.7034,1.7357,1.7357,1.8178,1.898,1.9747,1.9798,1.9798,1.9798,1.9798,1.9747,1.9579,1.9579,1.9643,1.9798,1.9798,1.9798,1.9798,1.9798,1.9798,1.9798,1.9798,1.9798,1.9798,1.9798,1.9798,1.9798,1.9798,1.9798,1.9798,1.9798,1.9798,1.9798,1.9798,2.0521,2.1663,2.2801,2.3363,2.3595,2.3595,2.3595,2.3595,2.3595,2.3505,2.34,2.34,2.34,2.34,2.34,2.349,2.3595,2.3595,2.3595,2.3595,2.3595,2.3595,2.355,2.343,2.3505,2.355,2.343,2.3505,2.3595,2.3595,2.3595,2.3595,2.3595,2.3595,2.3595,2.3595,2.3595,2.3595,2.3595,2.3724,2.3709,2.3595,2.3837,2.4158,2.4552,2.4471,2.4973,2.6156,2.5924,2.6104,2.6691,2.6691,2.6691,2.6691,2.6691,2.6691,2.6691,2.6691,2.6793,2.6928,2.6759,2.6894,2.7165,2.6826,2.6793,2.6945,2.6945,2.6843,2.6842,1.2328,1.2757,1.3009,1.3009,1.3312,1.3726,1.4145,1.451,1.4932,1.5352,1.5758,1.5979,1.5979,1.6301,1.6698,1.7034,1.807,1.8874,1.9254,1.9579,1.9798,1.9798,1.9798,1.9798,1.9798,1.9798,1.9798,1.9798,1.9798,1.9798,1.9798,1.9798,1.9798,1.9798,1.9798,1.9798,1.9798,1.9798,1.9798,1.9798,1.9798,1.9798,1.9798,1.9798,1.9798,1.9798,1.9798,2.0607,2.1885,2.3172,2.3595,2.3595,2.3595,2.3595,2.3595,2.3595,2.3385,2.3161,2.3161,2.3161,2.3161,2.3161,2.3385,2.3595,2.3595,2.3595,2.3595,2.3595,2.3595,2.3595,2.3595,2.3595,2.3595,2.3595,2.3595,2.3595,2.3595,2.3595,2.3595,2.3595,2.3595,2.3595,2.3595,2.3595,2.3595,2.3595,2.3595,2.3595,2.3595,2.3595,2.3948,2.4752,2.4552,2.5012,2.6332,2.6104,2.6227,2.6691,2.6691,2.6691,2.6691,2.6691,2.6691,2.6691,2.6691,2.6691,2.6691,2.6691,2.6691,2.6691,2.6691,2.6691,2.6691,2.6691,2.6691,2.6825,1.202,1.2512,1.3009,1.3009,1.3545,1.4025,1.4213,1.4756,1.5235,1.5352,1.541,1.541,1.541,1.541,1.569,1.6436,1.7633,1.8447,1.8661,1.9254,1.9695,1.9798,1.9798,1.9798,1.9798,1.9798,1.9798,1.9798,1.9798,1.9798,1.9798,1.9798,1.9798,1.9798,1.9798,1.9798,1.9798,1.9798,1.9798,1.9798,1.9798,1.9798,1.9798,1.9798,1.9798,1.9811,1.9952,2.0805,2.2039,2.3216,2.3595,2.3595,2.3595,2.3595,2.3595,2.3595,2.3236,2.2832,2.2832,2.2832,2.2832,2.2832,2.3221,2.3595,2.3595,2.3595,2.3595,2.3595,2.3595,2.3595,2.3595,2.3595,2.3595,2.3595,2.3595,2.3595,2.3595,2.3595,2.3595,2.3595,2.3595,2.3595,2.3595,2.3595,2.3595,2.3595,2.3666,2.3681,2.3595,2.3681,2.4142,2.5028,2.4712,2.5189,2.659,2.6262,2.6297,2.6691,2.6691,2.6691,2.6691,2.6691,2.6691,2.6691,2.6691,2.6691,2.6691,2.6691,2.6691,2.6691,2.6691,2.6691,2.6691,2.6691,2.6691,2.6825,1.2826,1.2948,1.3009,1.3009,1.307,1.3425,1.4085,1.4264,1.4628,1.5294,1.541,1.541,1.541,1.541,1.569,1.6436,1.6652,1.7357,1.8608,1.8768,1.915,1.9747,1.9798,1.9798,1.9798,1.9798,1.9798,1.9798,1.9798,1.9798,1.9798,1.9798,1.9798,1.9798,1.9798,1.9798,1.9798,1.9798,1.9798,1.9798,1.9798,1.9798,1.9798,1.9798,1.9798,1.9901,2.0446,2.15,2.2694,2.3377,2.3595,2.3595,2.3595,2.3595,2.3595,2.3595,2.3535,2.3475,2.3475,2.3475,2.3475,2.3475,2.3535,2.3595,2.3595,2.3595,2.3595,2.3595,2.3595,2.3595,2.3595,2.3595,2.3595,2.3595,2.3595,2.3595,2.3595,2.3595,2.3595,2.3595,2.3595,2.3595,2.3595,2.3595,2.3595,2.3595,2.4032,2.4074,2.3638,2.4032,2.4348,2.4511,2.491,2.5411,2.6085,2.6436,2.6624,2.6691,2.6691,2.6691,2.6691,2.6691,2.6691,2.6691,2.6691,2.6691,2.6691,2.6691,2.6691,2.6691,2.6691,2.6691,2.6691,2.6691,2.6691,2.6825,1.3666,1.4025,1.4332,1.4332,1.4332,1.4451,1.4815,1.4864,1.4991,1.5352,1.541,1.541,1.541,1.541,1.5526,1.5864,1.6265,1.6765,1.7413,1.7841,1.8394,1.915,1.9202,1.9371,1.9798,1.9798,1.9798,1.9798,1.9798,1.9798,1.9798,1.9798,1.9798,1.9798,1.9798,1.9798,1.9798,1.9798,1.9798,1.9798,1.9798,1.9798,1.9798,1.9798,1.9798,1.994,2.0953,2.1913,2.2785,2.3377,2.3595,2.3595,2.3595,2.3595,2.3595,2.3595,2.3595,2.3595,2.3595,2.3595,2.3595,2.3595,2.3595,2.3595,2.3595,2.3595,2.3595,2.3595,2.3595,2.3595,2.3595,2.3924,2.4044,2.3655,2.4223,2.4597,2.4223,2.4178,2.4029,2.364,2.3595,2.3595,2.3595,2.3595,2.3595,2.3595,2.4116,2.4307,2.4074,2.4552,2.4973,2.5297,2.554,2.5872,2.6401,2.659,2.6691,2.6691,2.6691,2.6691,2.6691,2.6691,2.6691,2.6691,2.6691,2.6691,2.6691,2.6691,2.6691,2.6691,2.6691,2.6691,2.6691,2.6691,2.6691,2.6825]},{"header":{"parameterUnit":"m.s-1","parameterCategory":1,"la1":30.6,"la2":28.766,"lo1":-90.7593,"lo2":-88.6598,"dy":0.0162,"dx":0.0183,"nx":116,"ny":114,"refTime":"2024-03-15T06:00:00:Z","depth":0,"parameterNumber":3,"parameterNumberName":"V-component_of_WINDS"},"data":[0.0,0.0,0.0,0.0,0.0,0.0,0.0,0.0,0.0,0.0,0.0,0.0,0.0,0.0,0.0,0.0,0.0,0.0,0.0,0.0,0.0,0.0,0.0,0.0,0.0,0.0,0.0,0.0,0.0,0.0,0.0,0.0,0.0,0.0,0.0,0.0,0.0,0.0,0.0,0.0,0.0,0.0,0.0,0.0,0.0,0.0,0.0,0.0,0.0,0.0,0.0,0.0,0.0,0.0,0.0,0.0,0.0,0.0,0.0,0.0,0.0,0.0,0.0,0.0,0.0,0.0,0.0,0.0,0.0,0.0,0.0,0.0,0.0,0.0,0.0,0.0,0.0,0.0,0.0,0.0,0.0,0.0,0.0,0.0,0.0,0.0,0.0,0.0,0.0,0.0,0.0,0.0,0.0,0.0,0.0,0.0,0.0,0.0,0.0,0.0,0.0,0.0,0.0,0.0,0.0,0.0,0.0,0.0,0.0,0.0,0.0,0.0,0.0,0.0,0.0,0.0,0.0,0.0,0.0,0.0,0.0,0.0,0.0,0.0,0.0,0.0,0.0,0.0,0.0,0.0,0.0,0.0,0.0,0.0,0.0,0.0,0.0,0.0,0.0,0.0,0.0,0.0,0.0,0.0,0.0,0.0,0.0,0.0,0.0,0.0,0.0,0.0,0.0,0.0,0.0,0.0,0.0,0.0,0.0,0.0,0.0,0.0,0.0,0.0,0.0,0.0,0.0,0.0,0.0,0.0,0.0,0.0,0.0,0.0,0.0,0.0,0.0,0.0,0.0,0.0,0.0,0.0,0.0,0.0,0.0,0.0,0.0,0.0,0.0,0.0,0.0,0.0,0.0,0.0,0.0,0.0,0.0,0.0,0.0,0.0,0.0,0.0,0.0,0.0,0.0,0.0,0.0,0.0,0.0,0.0,0.0,0.0,0.0,0.0,0.0,0.0,0.0,0.0,0.0,0.0,0.0,0.0,0.0,0.0,0.0,0.0,0.0,0.0,0.0,0.0,0.0,0.0,0.0,0.0,0.0,0.0,0.0,0.0,0.0,0.0,0.0,0.0,0.0,0.0,0.0,0.0,0.0,0.0,0.0,0.0,0.0,0.0,0.0,0.0,0.0,0.0,0.0,0.0,0.0,0.0,0.0,0.0,0.0,0.0,0.0,0.0,0.0,0.0,0.0,0.0,0.0,0.0,0.0,0.0,0.0,0.0,0.0,0.0,0.0,0.0,0.0,0.0,0.0,0.0,0.0,0.0,0.0,0.0,0.0,0.0,0.0,0.0,0.0,0.0,0.0,0.0,0.0,0.0,0.0,0.0,0.0,0.0,0.0,0.0,0.0,0.0,0.0,0.0,0.0,0.0,0.0,0.0,0.0,0.0,0.0,0.0,0.0,0.0,0.0,0.0,0.0,0.0,0.0,0.0,0.0,0.0,0.0,0.0,0.0,0.0,0.0,0.0,0.0,0.0,0.0,0.0,0.0,0.0,0.0,0.0,0.0,0.0,0.0,0.0,0.0,0.0,0.0,0.0,0.0,0.0,0.0,0.0,0.0,0.0,0.0,0.0,0.0,0.0,0.0,0.0,0.0,0.0,0.0,0.0,0.0,0.0,0.0,0.0,0.0,0.0,0.0,0.0,0.0,0.0,0.0,0.0,0.0,0.0,0.0,0.0,0.0,0.0,0.0,0.0,0.0,0.0,0.0,0.0,0.0,0.0,0.0,0.0,0.0,0.0,0.0,0.0,0.0,0.0,0.0,0.0,0.0,0.0,0.0,0.0,0.0,0.0,0.0,0.0,0.0,0.0,0.0,0.0,0.0,0.0,0.0,0.0,0.0,0.0,0.0,0.0,0.0,0.0,0.0,0.0,0.0,0.0,0.0,0.0,0.0,0.0,0.0,0.0,0.0,0.0,0.0,0.0,0.0,0.0,0.0,0.0,0.0,0.0,0.0,0.0,0.0,0.0,0.0,0.0,0.0,0.0,0.0,0.0,0.0,0.0,0.0,0.0,0.0,0.0,0.0,0.0,0.0,0.0,0.0,0.0,0.0,0.0,0.0,0.0,0.0,0.0,0.0,0.0,0.0,0.0,0.0,0.0,0.0,0.0,0.0,0.0,0.0,0.0,0.0,0.0,0.0,0.0,0.0,0.0,0.0,0.0,0.0,0.0,0.0,0.0,0.0,0.0,0.0,0.0,0.0,0.0,0.0,0.0,0.0,0.0,0.0,0.0,0.0,0.0,0.0,0.0,0.0,0.0,0.0,0.0,0.0,0.0,0.0,0.0,0.0,0.0,0.0,0.0,0.0,0.0,0.0,0.0,0.0,0.0,0.0,0.0,0.0,0.0,0.0,0.0,0.0,0.0,0.0,0.0,0.0,0.0,0.0,0.0,0.0,0.0,0.0,0.0,0.0,0.0,0.0,0.0,0.0,0.0,0.0,0.0,0.0,0.0,0.0,0.0,0.0,0.0,0.0,0.0,0.0,0.0,0.0,0.0,0.0,0.0,0.0,0.0,0.0,0.0,0.0,0.0,0.0,0.0,0.0,0.0,0.0,0.0,0.0,0.0,0.0,0.0,0.0,0.0,0.0,0.0,0.0,0.0,0.0,0.0,0.0,0.0,0.0,0.0,0.0,0.0,0.0,0.0,0.0,0.0,0.0,0.0,0.0,0.0,0.0,0.0,0.0,0.0,0.0,0.0,0.0,0.0,0.0,0.0,0.0,0.0,0.0,0.0,0.0,0.0,0.0,0.0,0.0,0.0,0.0,0.0,0.0,0.0,0.0,0.0,0.0,0.0,0.0,0.0,0.0,0.0,0.0,0.0,0.0,0.0,0.0,0.0,0.0,0.0,0.0,0.0,0.0,0.0,0.0,0.0,0.0,0.0,0.0,0.0,0.0,0.0,0.0,0.0,0.0,0.0,0.0,0.0,0.0,0.0,0.0,0.0,0.0,0.0,0.0,0.0,0.0,0.0,0.0,0.0,0.0,0.0,0.0,0.0,0.0,0.0,0.0,0.0,0.0,0.0,0.0,0.0,0.0,0.0,0.0,0.0,0.0,0.0,0.0,0.0,0.0,0.0,0.0,0.0,0.0,0.0,0.0,0.0,0.0,0.0,0.0,0.0,0.0,0.0,0.0,0.0,0.0,0.0,0.0,0.0,0.0,0.0,0.0,0.0,0.0,0.0,0.0,0.0,0.0,0.0,0.0,0.0,0.0,0.0,0.0,0.0,0.0,0.0,0.0,0.0,0.0,0.0,0.0,0.0,0.0,0.0,0.0,0.0,0.0,0.0,0.0,0.0,0.0,0.0,0.0,0.0,0.0,0.0,0.0,0.0,0.0,0.0,0.0,0.0,0.0,0.0,0.0,0.0,0.0,0.0,0.0,0.0,0.0,0.0,0.0,0.0,0.0,0.0,0.0,0.0,0.0,0.0,0.0,0.0,0.0,0.0,0.0,0.0,0.0,0.0,0.0,0.0,0.0,0.0,0.0,0.0,0.0,0.0,0.0,0.0,0.0,0.0,0.0,0.0,0.0,0.0,0.0,0.0,0.0,0.0,0.0,0.0,0.0,0.0,0.0,0.0,0.0,0.0,0.0,0.0,0.0,0.0,0.0,0.0,0.0,0.0,0.0,0.0,0.0,0.0,0.0,0.0,0.0,0.0,0.0,0.0,0.0,0.0,0.0,0.0,0.0,0.0,0.0,0.0,0.0,0.0,0.0,0.0,0.0,0.0,0.0,0.0,0.0,0.0,0.0,0.0,0.0,0.0,0.0,0.0,0.0,0.0,0.0,0.0,0.0,0.0,0.0,0.0,0.0,0.0,0.0,0.0,0.0,0.0,0.0,0.0,0.0,0.0,0.0,0.0,0.0,0.0,0.0,0.0,0.0,0.0,0.0,0.0,0.0,0.0,0.0,0.0,0.0,0.0,0.0,0.0,0.0,0.0,0.0,0.0,0.0,0.0,0.0,0.0,0.0,0.0,0.0,0.0,0.0,0.0,0.0,0.0,0.0,0.0,0.0,0.0,0.0,0.0,0.0,0.0,0.0,0.0,0.0,0.0,0.0,0.0,0.0,0.0,0.0,0.0,0.0,0.0,0.0,0.0,0.0,0.0,0.0,0.0,0.0,0.0,0.0,0.0,0.0,0.0,0.0,0.0,0.0,0.0,0.0,0.0,0.0,0.0,0.0,0.0,0.0,0.0,0.0,0.0,0.0,0.0,0.0,0.0,0.0,0.0,0.0,0.0,0.0,0.0,0.0,0.0,0.0,0.0,0.0,0.0,0.0,0.0,0.0,0.0,0.0,0.0,0.0,0.0,0.0,0.0,0.0,0.0,0.0,0.0,0.0,0.0,0.0,0.0,0.0,0.0,0.0,0.0,0.0,0.0,0.0,0.0,0.0,0.0,0.0,0.0,0.0,0.0,0.0,0.0,0.0,0.0,0.0,0.0,0.0,0.0,0.0,0.0,0.0,0.0,0.0,0.0,0.0,0.0,0.0,0.0,0.0,0.0,0.0,0.0,0.0,0.0,0.0,0.0,0.0,0.0,0.0,0.0,0.0,0.0,0.0,0.0,0.0,0.0,0.0,0.0,0.0,0.0,0.0,0.0,0.0,0.0,0.0,0.0,0.0,0.0,0.0,0.0,0.0,0.0,0.0,0.0,0.0,0.0,0.0,0.0,0.0,0.0,0.0,0.0,0.0,0.0,0.0,0.0,0.0,0.0,0.0,0.0,0.0,0.0,0.0,0.0,0.0,0.0,0.0,0.0,0.0,0.0,0.0,0.0,0.0,0.0,0.0,0.0,0.0,0.0,0.0,0.0,0.0,0.0,0.0,0.0,0.0,0.0,0.0,0.0,0.0,0.0,0.0,0.0,0.0,0.0,0.0,0.0,0.0,0.0,0.0,0.0,0.0,0.0,0.0,0.0,0.0,0.0,0.0,0.0,0.0,0.0,0.0,0.0,0.0,0.0,0.0,0.0,0.0,0.0,0.0,0.0,0.0,0.0,0.0,0.0,0.0,0.0,0.0,0.0,0.0,0.0,0.0,0.0,0.0,0.0,0.0,0.0,0.0,0.0,0.0,0.0,0.0,0.0,0.0,0.0,0.0,0.0,0.0,0.0,0.0,0.0,0.0,0.0,0.0,0.0,0.0,0.0,0.0,0.0,0.0,0.0,0.0,0.0,0.0,0.0,0.0,0.0,0.0,0.0,0.0,0.0,0.0,0.0,0.0,0.0,0.0,0.0,0.0,0.0,0.0,0.0,0.0,0.0,0.0,0.0,0.0,0.0,0.0,0.0,0.0,0.0,0.0,0.0,0.0,0.0,0.0,0.0,0.0,0.0,0.0,0.0,0.0,0.0,0.0,0.0,0.0,0.0,0.0,0.0,0.0,0.0,0.0,0.0,0.0,0.0,0.0,0.0,0.0,0.0,0.0,0.0,0.0,0.0,0.0,0.0,0.0,0.0,0.0,0.0,0.0,0.0,0.0,0.0,0.0,0.0,0.0,0.0,0.0,0.0,0.0,0.0,0.0,0.0,0.0,0.0,0.0,0.0,0.0,0.0,0.0,0.0,0.0,0.0,0.0,0.0,0.0,0.0,0.0,0.0,0.0,0.0,0.0,0.0,0.0,0.0,0.0,0.0,0.0,0.0,0.0,0.0,0.0,0.0,0.0,0.0,0.0,0.0,0.0,0.0,0.0,0.0,0.0,0.0,0.0,0.0,0.0,0.0,0.0,0.0,0.0,0.0,0.0,0.0,0.0,0.0,0.0,0.0,0.0,0.0,0.0,0.0,0.0,0.0,0.0,0.0,0.0,0.0,0.0,0.0,0.0,0.0,0.0,0.0,0.0,0.0,0.0,0.0,0.0,0.0,0.0,0.0,0.0,0.0,0.0,0.0,0.0,0.0,0.0,0.0,0.0,0.0,0.0,0.0,0.0,0.0,0.0,0.0,0.0,0.0,0.0,0.0,0.0,0.0,0.0,0.0,0.0,0.0,0.0,0.0,0.0,0.0,0.0,0.0,0.0,0.0,0.0,0.0,0.0,0.0,0.0,0.0,0.0,0.0,0.0,0.0,0.0,0.0,0.0,0.0,0.7802,0.0,0.0,0.0,0.0,0.0,0.0,0.0,0.0,0.0,0.0,0.0,0.0,0.0,0.0,0.0,0.0,0.0,0.0,0.0,0.0,0.0,0.0,0.0,0.0,0.0,0.0,0.0,0.0,0.0,0.0,0.0,0.0,0.0,0.0,0.0,1.5799,1.5799,1.5799,1.5799,1.6084,1.6578,1.7174,1.6862,1.6548,1.6234,0.0,0.0,0.0,0.0,0.0,0.0,0.0,0.0,0.0,0.0,0.0,0.0,0.0,0.0,0.0,0.0,0.0,0.0,0.0,0.0,0.0,0.0,0.0,0.0,0.0,0.0,0.0,0.0,0.0,0.0,0.0,0.0,0.0,0.0,0.0,0.0,0.0,0.0,0.0,0.0,0.0,0.0,0.0,0.0,0.0,0.0,0.0,0.0,0.0,0.0,0.0,0.0,0.0,0.0,0.0,0.0,0.0,0.0,0.0,0.0,0.0,0.0,0.0,0.0,0.0,0.0,0.0,0.0,0.0,0.0,0.0,0.7769,0.0,0.0,0.0,0.0,0.0,0.0,0.0,0.0,0.0,0.0,0.0,0.0,0.0,0.0,0.0,0.0,0.0,0.0,0.0,0.0,0.0,0.0,0.0,1.7811,1.7681,1.7415,1.7027,1.6686,1.6409,1.6067,1.5885,1.5885,1.5926,1.5955,1.5885,1.5885,1.5901,1.5978,1.6682,1.7339,1.7861,1.7981,1.7682,1.704,1.6936,0.0,0.0,0.0,0.0,0.0,0.0,0.0,0.0,0.0,0.0,0.0,0.0,0.0,0.0,0.0,0.0,0.0,0.0,0.0,0.0,0.0,0.0,0.0,0.0,0.0,0.0,0.0,0.0,0.0,0.0,0.0,0.0,0.0,0.0,0.0,0.0,0.0,0.0,0.0,0.0,0.0,0.0,0.0,0.0,0.0,0.0,0.0,0.0,0.0,0.0,0.0,0.0,0.0,0.0,0.0,0.0,0.0,0.0,0.0,0.0,0.0,0.0,0.0,0.8776,0.8776,0.827,0.8912,0.8864,0.8214,0.8167,0.8241,0.8387,0.7883,0.0,0.0,0.0,0.0,0.0,0.0,0.0,0.0,0.0,0.0,0.0,0.0,0.0,0.0,0.0,0.0,0.0,0.0,0.0,0.0,0.0,1.7811,1.7789,1.7743,1.7167,1.6789,1.6738,1.6421,1.6246,1.6246,1.6501,1.6528,1.6246,1.6246,1.6342,1.6577,1.7849,1.8493,1.8583,1.9151,1.9076,1.8418,1.7817,1.7864,1.8283,0.0,0.0,0.0,0.0,0.0,0.0,0.0,0.0,0.0,0.0,0.0,0.0,0.0,0.0,0.0,0.0,0.0,0.0,0.0,0.0,0.0,0.0,0.0,0.0,0.0,0.0,0.0,0.0,0.0,0.0,0.0,0.0,0.0,0.0,0.0,0.0,0.0,0.0,0.0,0.0,0.0,1.1741,1.1713,0.0,0.0,0.0,0.0,0.0,0.0,0.0,0.0,0.0,0.0,0.0,0.0,0.0,1.0442,1.021,0.9552,0.9311,0.9533,0.9636,0.9636,0.9585,1.0229,1.0179,0.9519,0.9296,0.0,0.842,0.834,0.0,0.0,0.0,0.0,0.0,0.0,0.0,0.0,0.0,0.0,0.0,0.0,0.0,0.0,0.0,0.0,0.0,0.0,0.0,0.0,0.0,1.8166,1.835,1.8143,1.8637,1.8513,1.7492,1.7661,1.7452,1.6612,1.6712,1.6633,1.6301,1.6673,1.7195,1.7817,1.8418,1.8897,1.9256,1.9555,1.9525,1.9241,1.8957,1.8777,1.8687,1.8403,0.0,0.0,0.0,0.0,0.0,0.0,0.0,0.0,0.0,0.0,0.0,0.0,0.0,0.0,0.0,0.0,0.0,0.0,0.0,0.0,0.0,0.0,0.0,0.0,0.0,0.0,0.0,0.0,0.0,0.0,0.0,0.0,0.0,0.0,0.0,0.0,0.0,0.0,0.0,1.2086,1.2651,1.2478,1.317,1.3077,0.0,0.0,0.0,0.0,0.0,0.0,0.0,0.0,0.0,1.1949,1.1555,1.1558,1.1929,1.078,1.0242,1.0196,1.0506,1.0353,0.9814,1.0517,1.0415,0.9755,0.927,0.911,0.9147,0.8639,0.8427,0.835,0.0,0.0,0.0,0.0,0.7729,0.7749,0.0,0.0,0.0,0.0,0.0,0.0,0.0,0.0,0.0,0.0,0.0,0.0,1.8082,1.891,1.9302,1.8851,1.9899,1.9876,1.8151,1.854,1.8281,1.6991,1.7018,1.6866,1.6436,1.708,1.7912,1.8957,1.9136,1.9555,2.0198,2.0198,2.0257,2.0373,2.0207,1.9662,1.8942,1.8777,1.8418,1.7951,0.0,0.0,0.0,0.0,0.0,0.0,0.0,0.0,0.0,0.0,0.0,0.0,0.0,0.0,0.0,0.0,0.0,0.0,0.0,0.0,0.0,0.0,0.0,0.0,0.0,0.0,0.0,0.0,0.0,0.0,0.0,0.0,0.0,0.0,0.0,0.0,0.0,1.2698,1.3023,1.3031,1.3741,1.3701,0.0,0.0,0.0,0.0,0.0,0.0,1.193,1.1939,1.2295,1.3174,1.2654,1.2678,1.3358,1.1903,1.1122,1.1009,1.1206,1.0959,1.032,1.0813,1.0762,1.0261,0.9614,0.951,0.9747,0.8871,0.8585,0.8724,0.8504,0.8335,0.8276,0.8091,0.8132,0.8283,0.0,0.0,0.0,0.0,0.0,0.0,0.0,0.0,0.0,0.0,0.0,1.8843,1.8843,2.0179,2.0771,1.9976,2.0333,1.9959,1.8482,1.8416,1.8062,1.7305,1.7572,1.7432,1.6789,1.7364,1.8313,1.963,2.0288,2.0946,2.159,2.159,2.1834,2.222,2.1533,2.0635,1.96,1.8972,1.8687,1.8553,1.7294,0.0,0.0,0.0,0.0,0.0,0.0,0.0,0.0,0.0,0.0,0.0,0.0,0.0,0.0,0.0,0.0,0.0,0.0,0.0,0.0,0.0,0.0,0.0,0.0,0.0,0.0,0.0,0.0,0.0,0.0,0.0,0.0,0.0,0.0,0.0,0.0,0.0,0.0,1.3073,1.4071,0.0,0.0,0.0,0.0,1.2446,1.1923,1.1969,1.2773,1.2812,1.3203,1.399,1.4009,1.4038,1.4077,1.2567,1.2049,1.2402,1.1631,1.1429,1.1715,1.1715,1.1715,1.1665,1.1015,1.0364,0.9762,0.904,0.9138,0.9658,0.8724,0.8799,0.9256,0.8593,0.8785,0.9259,0.0,0.0,0.0,0.0,0.0,0.0,0.0,0.0,1.7811,1.7811,1.8437,1.908,1.957,2.0991,2.1786,2.1515,2.2466,2.2274,2.0327,2.0193,1.9639,1.8373,1.7979,1.8079,1.8651,1.9121,1.9884,2.0976,2.1516,2.1934,2.2164,2.2487,2.2765,2.2893,2.2639,2.2043,2.1242,2.0939,2.041,1.9691,1.9216,1.8245,0.0,0.0,0.0,0.0,0.0,0.0,0.0,0.0,0.0,0.0,0.0,0.0,0.0,0.0,0.0,0.0,0.0,0.0,0.0,0.0,0.0,0.0,0.0,0.0,0.0,0.0,0.0,0.0,0.0,0.0,0.0,0.0,0.0,0.0,0.0,0.0,0.0,1.356,1.433,0.0,1.4134,1.4471,1.4339,1.3432,1.4172,1.4373,1.3723,1.4124,1.4449,1.4541,1.4551,1.4687,1.4951,1.3896,1.3354,1.3323,1.267,1.229,1.2262,1.1941,1.1814,1.1765,1.1116,1.0914,1.1065,1.0364,0.9961,0.9799,0.9883,0.9845,0.9642,0.9395,0.9197,0.9013,0.0,0.0,0.0,0.0,0.0,0.0,0.0,0.0,1.7896,1.8149,1.8809,1.9672,2.066,2.1921,2.2682,2.2682,2.3562,2.3173,2.094,2.0788,2.0111,1.8606,1.8444,1.8927,2.0083,2.0634,2.1372,2.2258,2.2754,2.3236,2.373,2.3829,2.41,2.4506,2.3967,2.3565,2.3276,2.2965,2.1938,2.0534,2.0299,1.9151,1.7561,0.0,0.0,0.0,0.0,0.0,0.0,0.0,0.0,0.0,0.0,0.0,0.0,0.0,0.0,0.0,0.0,0.0,0.0,0.0,0.0,0.0,0.0,0.0,0.0,0.0,0.0,0.0,0.0,0.0,0.0,0.0,0.0,0.0,0.0,0.0,1.3554,1.4138,1.5068,1.5591,1.5513,1.5705,1.5462,1.4666,1.546,1.5539,1.44,1.5067,1.5316,1.5037,1.5,1.5127,1.541,1.4499,1.399,1.3877,1.3086,1.2688,1.2614,1.205,1.1922,1.2129,1.1425,1.1366,1.1765,1.1575,1.1074,1.0517,1.0712,1.0517,1.0115,0.9865,0.951,0.9113,0.0,0.0,0.0,0.0,0.0,0.0,0.0,1.7811,1.8065,1.8792,1.9529,2.0593,2.2175,2.297,2.341,2.3427,2.341,2.2446,2.0187,2.0002,1.936,1.7924,1.8968,2.0041,2.099,2.189,2.2694,2.3468,2.4074,2.4986,2.6286,2.5628,2.5962,2.7052,2.5582,2.5212,2.5625,2.4898,2.3268,2.1119,2.0381,1.983,1.9309,0.0,0.0,0.0,0.0,0.0,0.0,0.0,0.0,0.0,0.0,0.0,0.0,0.0,0.0,0.0,0.0,0.0,0.0,0.0,0.0,0.0,0.0,0.0,0.0,0.0,0.0,0.0,0.0,0.0,0.0,0.0,0.0,0.0,1.3346,1.4203,1.4937,1.4949,1.6326,1.7545,1.8182,1.7081,1.6272,1.6283,1.5712,1.5236,1.4887,1.554,1.579,1.5459,1.541,1.54,1.5391,1.4229,1.3774,1.4077,1.2908,1.2512,1.29,1.2187,1.2236,1.2871,1.2129,1.1814,1.1873,1.2618,1.2501,1.1765,1.1116,1.0864,1.0712,1.0064,0.9814,0.9666,0.0,0.0,0.0,0.0,0.0,0.0,0.0,1.7811,1.8065,1.8792,1.9529,2.0779,2.2868,2.3274,2.3613,2.4137,2.3697,2.2665,2.0974,2.0331,1.9816,1.941,2.0776,2.2232,2.3683,2.4519,2.5155,2.5505,2.6568,2.6733,2.6126,2.7387,2.7841,2.7595,2.7782,2.7618,2.7199,2.6996,2.6202,2.4963,2.2798,2.1437,2.0528,0.0,0.0,0.0,0.0,0.0,0.0,0.0,0.0,0.0,0.0,0.0,0.0,0.0,0.0,0.0,0.0,0.0,0.0,0.0,0.0,0.0,0.0,0.0,0.0,0.0,0.0,0.0,0.0,0.0,0.0,0.0,0.0,1.5654,1.503,1.5234,1.5787,1.6562,1.7051,1.769,1.8659,1.882,1.8609,1.8026,1.8761,1.8483,1.6895,1.7049,1.6838,1.6197,1.569,1.5264,1.4961,1.4665,1.434,1.4077,1.3494,1.3234,1.332,1.2801,1.2715,1.2881,1.2666,1.2608,1.2608,1.2822,1.2774,1.2559,1.2412,1.1692,1.0762,1.061,0.9917,0.9061,0.0,0.0,0.0,0.0,0.0,0.0,0.0,1.7811,1.8183,1.9232,1.9714,2.0863,2.3139,2.3122,2.3241,2.3951,2.3071,2.1972,2.0771,2.0255,2.0289,2.0931,2.2716,2.419,2.5285,2.659,2.7061,2.6665,2.7904,2.8119,2.73,2.8443,2.8907,2.8789,2.8924,2.8738,2.8298,2.8298,2.8061,2.7503,2.5614,2.4001,2.2639,2.1596,2.07,1.9909,1.9139,1.8949,1.8918,1.8005,0.0,0.0,0.0,0.0,0.0,0.0,0.0,0.0,0.0,0.0,0.0,0.0,0.0,0.0,0.0,0.0,0.0,0.0,0.0,0.0,0.0,0.0,0.0,0.0,1.6559,1.7239,1.7323,1.74,1.7494,1.7601,1.826,1.8967,1.9634,1.949,1.9247,1.909,1.9575,1.9048,1.7213,1.7413,1.7135,1.6093,1.5642,1.5293,1.5049,1.4697,1.4385,1.4077,1.3525,1.3242,1.3232,1.2998,1.2881,1.2881,1.2881,1.2881,1.2881,1.2881,1.2881,0.0,0.0,0.0,0.0,0.0,0.971,0.8857,0.0,0.0,0.0,0.0,0.0,0.0,0.0,1.7811,1.8312,1.9816,2.0002,2.0863,2.3139,2.275,2.2598,2.3325,2.204,2.0889,2.017,2.0204,2.0981,2.2615,2.4644,2.595,2.6432,2.8219,2.8572,2.7441,2.8656,2.9144,2.9011,2.9144,2.9533,3.0091,2.9499,2.9228,2.9228,2.935,2.9384,2.9279,2.8518,2.7041,2.5161,2.3749,2.2931,2.2295,2.059,2.0003,1.9842,1.8639,0.0,0.0,0.0,0.0,0.0,0.0,0.0,0.0,0.0,0.0,0.0,0.0,0.0,0.0,0.0,0.0,0.0,0.0,0.0,0.0,0.0,0.0,0.0,0.0,1.7426,1.8844,1.9849,2.0049,1.9666,1.8597,1.9825,2.0769,2.0894,1.9829,1.9318,1.9749,1.9329,1.8383,1.6896,0.0,0.0,0.0,0.0,1.5391,1.5342,1.4486,1.4058,1.4,1.3262,1.2881,1.2881,1.2881,1.2881,1.2881,1.2881,1.2881,1.2881,1.2881,1.2832,1.2774,1.2676,1.19,1.072,0.9969,0.9309,0.891,0.0,0.0,0.0,0.0,0.0,0.0,0.0,1.7811,1.8312,1.9816,2.0002,2.0863,2.3139,2.275,2.2598,2.3325,2.204,2.1109,2.0974,2.1532,2.2784,2.4881,2.5947,2.7367,2.9248,2.9698,2.9783,2.9501,3.0357,3.0159,2.9008,3.0209,3.0531,3.0125,3.0565,3.0768,3.0801,3.1393,3.1687,3.1579,3.0835,2.9242,2.7112,2.5629,2.4829,2.4312,2.3408,2.3139,2.3108,2.1911,2.1512,2.1255,1.9773,0.0,0.0,0.0,0.0,0.0,0.0,0.0,0.0,0.0,0.0,0.0,0.0,0.0,0.0,0.0,0.0,0.0,0.0,0.0,0.0,1.8311,1.9397,2.0413,2.1066,2.1543,2.1562,2.0902,2.0749,2.1016,2.1907,2.1768,2.1443,2.1176,2.1051,2.0324,1.8925,1.8068,1.7376,1.686,1.5879,1.5244,1.4912,1.4394,1.3965,1.3623,0.0,0.0,1.2881,1.2881,1.2881,1.2881,1.2881,1.2881,1.2881,1.2881,1.2559,1.1972,1.1425,1.1023,1.0661,0.9465,0.8903,0.8804,0.0,0.0,0.0,0.0,0.0,0.0,0.0,1.7811,1.8217,1.9316,1.9452,2.0027,2.1532,2.1353,2.1285,2.1684,2.1025,2.0771,2.1187,2.2581,2.4222,2.6065,2.7604,2.8941,3.0091,3.0463,3.048,3.0108,3.0835,3.0632,2.9567,3.0666,3.119,3.1207,3.1579,3.1952,3.2324,3.2696,3.2848,3.278,3.2036,3.1055,2.9854,2.7994,2.6944,2.6248,2.5048,2.4414,2.3994,2.2547,2.2064,2.182,2.0572,1.951,1.8508,0.0,0.0,0.0,0.0,0.0,0.0,0.0,0.0,0.0,0.0,0.0,0.0,0.0,0.0,1.7398,1.7297,0.0,1.9032,1.9321,2.0351,2.1267,2.182,2.1895,2.1694,2.1142,2.133,2.1493,2.1493,2.1493,2.138,2.1091,2.0464,1.9612,1.8571,1.7601,1.6804,1.6313,1.5693,1.5312,1.5098,1.4453,1.4141,1.4131,1.3291,1.2988,1.3184,1.2978,1.2998,1.3193,1.3193,1.3193,1.3193,1.3193,1.2974,1.2544,1.1559,1.0824,1.0218,0.9562,0.9113,0.8857,0.0,0.0,0.0,0.0,0.0,0.0,0.0,1.7693,1.7896,1.8775,1.8775,1.9029,1.99,1.9866,1.9782,1.9782,2.0052,2.0568,2.1346,2.3477,2.5423,2.7063,2.9042,3.0243,3.0531,3.1106,3.1123,3.0531,3.1275,3.1173,3.0345,3.1224,3.1867,3.233,3.2442,3.2831,3.3423,3.3558,3.3524,3.3371,3.2614,3.2269,3.1934,2.9722,2.8451,2.7626,2.5761,2.4601,2.3765,2.2325,2.1747,2.1551,2.091,2.0243,1.945,1.8268,1.7787,0.0,0.0,0.0,0.0,0.0,0.0,0.0,0.0,0.0,1.8179,1.8414,1.8506,1.8563,1.87,1.9421,2.0036,2.0227,2.1054,2.1845,2.2397,2.1995,2.1443,2.0945,2.1606,2.1807,2.097,2.0882,2.0832,2.0731,1.9563,1.8546,1.7779,1.6976,1.6192,1.5537,1.5459,1.541,1.541,1.4648,1.4434,1.4775,1.3662,1.3301,1.3613,1.3281,1.3311,1.3633,1.3633,1.3633,1.3572,1.3468,1.3303,1.3086,1.1848,1.0707,0.979,0.9658,0.9263,0.8857,0.0,0.0,0.0,0.0,0.0,0.0,0.0,0.0,1.7325,1.8707,1.8335,1.843,1.9849,1.9435,1.9012,1.9012,2.0264,2.138,2.2141,2.4255,2.6454,2.8636,2.9617,3.0717,3.2019,3.2121,3.2121,3.2036,3.2797,3.2442,3.1106,3.251,3.2848,3.2307,3.2983,3.3322,3.344,3.41,3.403,3.3449,3.2767,3.2122,3.1354,2.927,2.8315,2.7816,2.526,2.3879,2.3218,2.254,2.1951,2.145,2.0873,2.0243,1.954,1.8807,0.0,1.7548,1.6891,1.6756,1.6816,1.6816,1.7204,1.7906,0.0,0.0,1.9809,2.1006,2.1213,2.1166,2.1194,2.1229,2.1471,2.1971,2.2133,2.241,2.2962,2.2573,2.202,2.1455,2.1506,2.1531,2.1405,2.1393,2.1192,2.0756,1.9928,1.9151,1.8294,1.7159,1.6335,1.6037,1.5615,1.541,1.541,1.4951,1.4736,1.4775,1.4248,1.397,1.4009,1.4014,1.397,1.4009,1.4009,1.4009,1.3956,1.324,1.2624,1.2002,1.112,1.0329,0.9633,0.9099,0.8857,0.8804,0.0,0.0,0.0,0.0,0.0,0.0,0.0,0.0,0.0,1.7473,1.7337,1.7557,1.8623,1.8454,1.8268,1.8268,1.9638,2.1025,2.2226,2.478,2.7063,2.8943,3.0514,3.1664,3.2313,3.2713,3.2933,3.2933,3.3254,3.3085,3.2493,3.3119,3.3457,3.3575,3.3897,3.4539,3.5368,3.5216,3.499,3.4642,3.3123,3.1854,3.059,2.7803,2.6211,2.5397,2.4236,2.3149,0.0,0.0,2.0907,2.0916,2.0302,1.9914,1.9555,1.8897,1.8056,0.0,1.7001,1.7104,0.0,0.0,1.8672,1.9211,2.0557,2.0857,2.1006,2.1575,2.1411,2.1216,2.1547,2.127,2.1227,0.0,2.1832,2.192,2.2146,2.1983,2.1506,2.0614,2.0514,2.0514,2.0514,2.0815,2.0778,2.0213,1.9114,1.8281,1.7891,1.6576,1.5838,1.5674,1.5508,1.541,1.541,1.5,1.4912,1.5146,1.4463,1.4268,1.4502,1.4194,1.4268,1.4512,1.4512,1.4795,1.5157,1.3856,1.3283,1.3096,1.1604,1.0733,1.0208,0.9568,0.9319,0.9319,0.0,0.0,0.0,0.0,0.0,0.0,0.0,0.0,0.0,0.0,1.6529,1.6678,1.7422,1.7693,1.7811,1.7811,1.8954,2.0339,2.1904,2.456,2.686,2.8586,3.0598,3.1968,3.2577,3.3136,3.3508,3.3711,3.3914,3.3812,3.3423,3.3829,3.4303,3.481,3.503,3.5633,3.6454,3.5853,3.5229,3.4412,3.2447,3.0794,2.9092,2.5951,2.3912,2.2763,2.26,2.162,2.0312,1.9321,1.9275,1.9498,1.8977,1.8909,1.8856,1.8278,1.7505,1.6891,1.718,0.0,0.0,1.9405,1.9974,2.0587,2.1919,2.2099,2.2028,2.2206,2.1597,2.1134,2.1335,2.0768,2.0439,2.1154,2.1129,2.1079,2.1242,2.1129,2.0665,1.971,1.9459,1.9359,1.9359,1.9874,2.01,1.9823,1.8436,1.7578,1.7578,1.6074,1.5293,1.541,1.5293,1.5293,1.541,1.5107,1.5107,1.54,1.4785,1.4658,1.4951,1.4756,1.4834,1.5146,1.5273,1.5674,1.613,1.4418,1.3916,1.3952,1.2081,1.1124,1.0737,1.0214,0.9893,0.9686,0.0,0.0,0.0,0.0,0.0,0.0,0.0,0.0,0.0,0.0,0.0,0.0,0.0,1.7371,1.7811,1.7811,1.8488,1.9587,2.1136,2.3338,2.5541,2.7722,2.9347,3.1173,3.3322,3.3389,3.3744,3.4455,3.5199,3.481,3.344,3.4878,3.5571,3.5622,3.6366,3.6343,3.5729,3.5712,3.4145,3.1622,3.0242,2.8501,2.6459,2.3773,2.1944,2.0715,2.0055,1.8961,1.7739,1.733,1.7034,1.681,1.6639,1.6844,0.0,1.6691,1.6355,1.6372,0.0,0.0,1.8837,1.951,2.0662,2.1964,2.3251,2.3071,2.2869,2.3499,2.2574,2.1506,2.093,1.9847,1.9434,2.0514,2.0213,2.0049,2.0668,2.0213,1.966,1.912,1.8581,1.8254,0.0,1.8756,1.9284,1.9761,1.8436,1.7578,1.7578,1.5842,1.499,1.54,1.5019,1.5,1.541,1.54,1.54,1.541,1.5381,1.5381,1.541,1.582,1.6076,1.6105,1.6484,1.6689,1.6573,1.4768,1.4106,1.3917,1.2123,1.1209,1.1021,1.0955,1.0414,0.9686,0.0,0.0,0.0,0.0,0.0,0.0,0.0,0.0,0.0,0.0,0.0,0.0,0.0,0.0,0.0,0.0,1.8471,1.9333,2.0348,2.2513,2.4306,2.5558,2.8027,2.9939,3.119,3.2171,3.3017,3.3778,3.3634,3.35,3.3423,3.4019,3.4471,3.4895,3.5195,3.5477,3.5613,3.4251,3.2652,3.0803,2.8513,2.6166,2.3699,2.1051,1.9105,1.7611,0.0,1.6342,1.6556,1.5975,1.6007,1.6242,1.5938,1.6108,1.6288,1.553,1.5978,1.6867,0.0,0.0,1.963,2.0737,2.168,2.2562,2.3415,2.3116,2.2661,2.2542,2.0869,1.9264,1.8732,1.7617,1.7061,1.779,1.838,1.8807,1.9007,1.9472,1.9346,1.8091,1.8091,0.0,0.0,0.0,0.0,1.8551,1.7982,1.7413,1.6922,1.5837,1.5264,1.541,1.5273,1.5264,1.541,1.541,1.5557,1.584,1.584,1.584,1.585,1.6056,1.6125,1.6145,1.6543,1.6665,1.6583,1.5178,1.4448,1.3925,1.2504,1.1643,1.1283,1.1283,1.1089,1.0782,0.0,0.0,0.0,0.0,0.0,0.0,0.0,0.0,0.0,0.0,0.0,0.0,0.0,0.0,0.0,0.0,0.0,0.0,1.9395,2.1147,2.2574,2.3496,2.5762,2.7469,2.8484,2.9286,3.009,3.0847,3.0559,3.0608,3.1015,3.1351,3.1962,3.28,3.2892,3.3141,3.3437,3.1886,3.0036,2.7982,2.5762,2.3285,2.0662,1.8376,1.6684,0.0,1.4213,1.4154,1.4654,1.4441,1.4744,1.5216,1.506,1.5264,1.5541,1.5351,1.6132,1.7262,1.7971,1.9273,2.0662,2.1769,2.2532,2.3116,2.3505,2.3116,2.2408,2.1336,1.9464,1.7691,1.6598,1.5531,1.5053,1.5806,1.671,1.7375,1.7576,1.838,1.8555,1.7501,1.7689,1.7852,0.0,0.0,0.0,1.8321,1.8113,1.7688,1.6922,1.6043,1.5521,1.541,1.5264,1.5254,1.541,1.541,1.5557,1.583,1.6047,1.6125,1.6135,1.6387,1.6533,1.6562,1.7002,1.7187,1.7093,1.578,1.4928,1.4369,1.3004,1.2144,1.1583,1.1583,1.1516,1.1356,0.0,0.0,0.0,0.0,0.0,0.0,0.0,0.0,0.0,0.0,0.0,0.0,0.0,0.0,0.0,0.0,0.0,0.0,1.831,1.9311,2.0401,2.1499,2.2614,2.3904,2.5291,2.5046,2.5278,2.6025,2.6237,2.6395,2.645,2.7081,2.8135,2.9416,2.9464,2.9377,2.9295,2.8576,2.6395,2.3236,2.1964,1.9884,1.7399,1.5755,1.4732,1.4039,1.3037,1.2429,0.0,0.0,0.0,0.0,0.0,1.4482,1.499,1.6107,1.6782,1.7568,1.9358,2.0767,2.1904,2.2562,2.3131,2.355,2.355,2.2996,2.1936,2.0027,1.8375,1.6656,0.0,0.0,1.3511,1.4613,1.5341,1.5957,1.6484,1.7099,1.7501,0.0,0.0,0.0,0.0,0.0,0.0,1.8983,0.0,1.834,1.7578,1.6537,1.5745,1.54,1.5029,1.5019,1.5439,1.5469,1.5478,1.5488,1.5898,1.6164,1.6223,1.7002,1.7383,1.7402,1.7832,1.7998,1.7872,1.6548,1.5703,1.5072,1.3723,1.2706,1.1942,1.1955,1.171,1.143,0.0,0.0,0.0,0.0,0.0,0.0,0.0,0.0,0.0,0.0,0.0,0.0,0.0,0.0,0.0,0.0,0.0,0.0,1.7584,1.8124,1.8355,1.8156,1.996,2.1147,2.1631,2.2127,2.2702,2.344,2.2581,2.2387,2.2834,2.309,2.3674,2.4435,2.4484,2.4476,2.4406,2.3253,2.1665,1.9839,1.8504,1.698,1.5367,1.3706,1.2825,1.2392,0.0,0.0,0.0,0.0,0.0,0.0,0.0,1.5819,1.6283,1.7436,1.8186,1.8985,2.0823,2.1898,2.2577,2.3206,2.3131,2.2906,2.2906,2.1246,1.9456,1.8541,1.6023,1.3728,0.0,0.0,0.0,1.3498,1.5505,0.0,1.7137,1.8329,0.0,0.0,0.0,1.8668,1.8807,1.8895,0.0,0.0,1.8818,1.8124,1.6877,1.6479,1.6084,1.541,1.5312,1.5459,1.5889,1.623,1.6396,1.6396,1.6504,1.6728,1.7061,1.7285,1.7383,1.7402,1.7832,1.7832,1.7529,1.7148,1.6355,1.5172,1.4416,1.3592,1.2734,1.2328,1.2144,1.2037,0.0,0.0,0.0,0.0,0.0,0.0,0.0,0.0,0.0,0.0,0.0,0.0,0.0,0.0,0.0,0.0,0.0,0.0,0.0,1.7219,1.7189,1.6659,1.7935,1.8688,1.876,1.874,1.8924,1.9354,1.8482,1.8234,1.8575,1.8936,1.9436,2.002,2.0073,2.0246,2.0443,1.9401,1.8208,0.0,0.0,1.4663,1.3342,1.2139,1.1591,0.0,0.0,0.0,0.0,0.0,0.0,1.6027,1.6803,1.7505,1.82,1.9154,0.0,2.0524,2.1892,2.2636,2.3161,2.3505,2.3131,2.2532,2.1949,2.0198,1.8312,1.6958,1.4956,0.0,0.0,0.0,0.0,0.0,0.0,0.0,1.6936,1.8003,1.8894,0.0,1.9359,0.0,2.0062,1.9886,1.9849,0.0,1.9768,1.8908,1.7348,1.7485,1.7053,1.5762,1.5889,1.6016,1.6125,1.6309,1.6436,1.6445,1.6641,1.6963,1.7393,1.7578,1.7656,1.7676,0.0,1.7881,1.7646,1.7461,1.6788,1.5824,1.51,1.4235,1.3341,1.2813,1.2476,1.2278,0.0,0.0,0.0,0.0,0.0,0.0,0.0,0.0,0.0,0.0,0.0,0.0,0.0,0.0,0.0,0.0,0.0,0.0,0.0,0.0,0.0,1.5968,1.6313,1.6517,1.6517,1.5676,1.5196,1.5103,0.0,1.4483,1.4408,1.4949,1.5517,1.6054,1.5995,1.6308,1.6799,1.6233,1.5341,1.4228,1.3638,1.2719,1.1615,0.0,0.0,0.0,0.0,0.0,0.0,0.0,1.6067,1.7642,1.8293,1.9269,2.0266,2.093,2.1477,2.1964,2.2622,2.3191,2.358,2.349,2.2936,2.2099,2.0857,1.9331,1.7617,1.5619,0.0,1.3642,1.2323,0.0,1.3056,1.3301,0.0,1.5392,1.6572,1.7237,1.8204,1.9823,1.9962,2.0363,2.1493,2.1104,2.102,2.1455,2.1117,2.0214,1.8645,1.8935,1.8197,1.6223,1.6582,1.6602,1.6152,1.6211,1.624,1.6302,1.6631,1.7041,1.748,1.7842,1.8008,1.8008,1.8008,1.8008,1.7978,1.7617,1.7149,1.6638,1.5791,1.4841,1.3927,1.355,1.3078,1.2659,0.0,0.0,0.0,0.0,0.0,0.0,0.0,0.0,0.0,0.0,1.3127,1.3048,0.0,0.0,0.0,0.0,0.0,0.0,0.0,0.0,0.0,0.0,1.4822,1.5137,1.5137,0.0,0.0,0.0,0.0,0.0,1.2328,1.2165,1.2291,1.2634,1.2346,1.2308,1.2395,1.2294,1.199,1.1563,1.145,1.1244,1.1001,0.0,0.0,0.0,0.0,0.0,0.0,0.0,1.7145,1.8867,1.9317,2.0338,2.153,2.217,2.2461,2.2637,2.3266,2.352,2.3475,2.2966,2.1934,2.0842,2.0049,1.758,0.0,0.0,0.0,1.2627,1.2582,1.2813,0.0,1.3841,0.0,0.0,0.0,0.0,1.9346,0.0,0.0,0.0,0.0,0.0,0.0,0.0,0.0,2.1465,2.0132,1.9422,1.8298,1.6674,1.7041,1.7061,1.6621,1.6973,1.7148,1.7158,1.7236,1.75,1.79,1.7978,1.8008,1.8008,1.8008,0.0,1.8008,1.793,1.7667,1.7225,1.6637,1.6029,1.5488,1.4981,1.4759,1.4593,0.0,0.0,0.0,0.0,0.0,0.0,0.0,1.331,1.3243,1.303,1.3277,1.3325,1.2958,1.35,1.3771,0.0,0.0,0.0,0.0,0.0,0.0,0.0,0.0,0.0,0.0,0.0,0.0,0.0,0.0,0.0,0.0,0.0,0.0,0.0,0.0,0.0,0.0,0.0,1.1024,0.0,0.0,0.0,0.0,0.0,0.0,0.0,0.0,0.0,0.0,0.0,1.6288,1.8131,1.9707,2.1141,2.2203,2.2173,2.2637,2.3146,2.3131,2.3355,2.3445,2.2873,2.168,2.0363,1.8972,0.0,0.0,0.0,0.0,1.3146,1.2846,0.0,0.0,0.0,0.0,0.0,0.0,0.0,0.0,0.0,0.0,0.0,0.0,0.0,0.0,0.0,0.0,2.1836,2.0771,1.9553,1.8386,1.7393,1.7393,1.7178,1.6675,1.7168,1.7275,1.7051,1.7275,1.7607,1.8008,1.8008,1.8008,1.8008,1.8008,1.8008,1.8008,1.8008,1.7891,1.7638,1.7187,1.6415,1.5446,1.5022,1.4253,1.3435,0.0,0.0,0.0,0.0,0.0,0.0,0.0,1.3494,1.3398,1.287,1.3544,1.3829,1.3257,1.3647,1.3645,0.0,0.0,0.0,0.0,0.0,0.0,0.0,0.0,0.0,0.0,0.0,0.0,0.0,0.0,0.0,0.0,0.0,0.0,0.0,0.0,0.0,0.0,0.0,0.0,0.0,0.0,0.0,0.0,0.0,0.0,0.0,0.0,0.0,0.0,0.0,1.5154,1.6876,1.9001,2.0662,2.1754,2.138,2.2173,2.3116,2.2813,2.3131,2.3415,2.2652,2.147,1.9974,1.7951,1.6398,0.0,0.0,1.3668,1.3742,1.3205,0.0,0.0,0.0,0.0,0.0,0.0,0.0,0.0,0.0,0.0,0.0,0.0,0.0,0.0,0.0,0.0,2.2048,2.0993,1.9647,1.8591,1.7861,1.7549,1.7217,1.6875,1.7217,1.7207,1.6875,1.7217,1.7559,1.7881,1.7969,1.8008,1.8008,1.8008,1.8008,1.8008,1.8008,1.8008,1.7978,1.7646,1.681,1.5764,1.5187,1.4111,1.2891,0.0,0.0,0.0,0.0,0.0,0.0,0.0,1.3211,1.3398,1.287,1.3077,1.3288,1.3226,1.3305,1.2976,0.0,0.0,0.0,0.0,0.0,0.0,0.0,0.0,0.0,0.0,0.0,0.0,0.0,0.0,0.0,0.0,0.0,0.0,0.0,0.0,0.0,0.0,0.0,0.0,0.0,0.0,0.0,0.0,0.0,0.0,0.0,0.0,0.0,0.0,0.0,0.0,1.5933,1.6173,1.7535,1.9181,1.9705,0.0,0.0,2.2532,2.3131,2.331,2.2084,2.0767,1.9271,1.7326,0.0,0.0,1.3996,1.3625,1.3403,1.3752,0.0,0.0,0.0,0.0,0.0,0.0,0.0,0.0,0.0,0.0,0.0,0.0,0.0,0.0,0.0,0.0,2.2299,2.0715,2.0086,1.9061,1.7497,1.7402,1.7363,1.7324,1.7363,1.7363,1.7324,1.7363,1.7402,1.7451,1.7832,1.8008,1.8008,1.8008,1.8008,0.0,1.8008,1.8008,1.8008,1.7969,1.7833,1.7647,1.6738,1.6296,1.5896,0.0,0.0,0.0,0.0,0.0,0.0,1.3211,1.3435,1.3398,1.287,1.3413,1.3466,1.2468,1.2926,1.296,1.2106,0.0,0.0,0.0,0.0,0.0,0.0,0.0,0.0,0.0,0.0,0.0,0.0,0.0,0.0,0.0,0.0,0.0,0.0,0.0,0.0,0.0,0.0,0.0,0.0,0.0,0.0,0.0,0.0,0.0,0.0,0.0,0.0,0.0,0.0,0.0,0.0,1.4,1.4797,0.0,0.0,1.9435,2.1171,2.1425,2.2532,2.3295,2.2024,2.0677,1.9166,1.7174,0.0,0.0,1.3763,1.3785,1.3855,1.339,1.2766,1.2405,0.0,0.0,0.0,0.0,0.0,0.0,0.0,0.0,0.0,0.0,0.0,0.0,0.0,0.0,2.1587,2.0424,2.0091,1.9102,1.7448,1.7383,1.7256,1.6992,1.75,1.75,1.7002,1.7519,1.7627,1.7402,1.7822,1.8008,1.8008,1.8008,1.8008,0.0,1.8008,1.8008,1.8008,1.8008,1.7647,1.7139,1.6706,1.5644,1.4255,0.0,0.0,0.0,0.0,0.0,1.3376,1.3308,1.3462,1.3335,1.2599,1.3306,1.3321,1.1946,1.2436,1.2657,1.2133,1.2335,0.0,0.0,0.0,0.0,0.0,0.0,0.0,0.0,0.0,0.0,1.1607,0.0,0.0,0.0,0.0,0.0,0.0,0.0,0.0,0.0,0.0,0.0,0.0,0.0,0.0,0.0,0.0,0.0,0.0,0.0,0.0,0.0,0.0,0.0,0.0,0.0,0.0,0.0,0.0,1.7727,1.9579,2.0019,2.141,2.2532,2.1635,2.0243,1.8642,0.0,0.0,1.4779,1.3286,1.3624,1.3969,1.3155,1.2666,1.2366,0.0,0.0,0.0,0.0,0.0,0.0,0.0,0.0,0.0,0.0,0.0,0.0,0.0,0.0,2.1292,2.0238,1.9958,1.9171,1.7726,1.743,1.7153,1.6845,1.7258,1.7129,1.6543,1.7148,1.7275,1.7012,1.7568,1.7822,1.7832,1.7959,1.8008,0.0,1.8008,1.8008,1.8008,1.8008,1.7579,1.6982,1.6569,1.5291,1.3719,0.0,0.0,0.0,0.0,0.0,0.0,1.2703,1.3163,1.3183,1.1981,1.2411,1.2561,1.1865,1.1805,1.1805,1.179,1.1805,0.0,0.0,0.0,0.0,0.0,0.0,0.0,0.0,0.0,1.1173,1.091,1.091,1.0715,0.0,0.0,0.0,0.0,0.0,0.0,0.0,0.0,0.0,0.0,0.0,0.0,0.0,0.0,0.0,0.0,0.0,0.0,0.0,0.0,0.0,0.0,0.0,0.0,0.0,0.0,1.5711,1.704,1.8373,1.9705,2.0737,2.0722,1.9191,1.7401,0.0,0.0,1.3565,1.2692,1.3046,1.3462,1.3255,1.2747,1.2228,1.1688,1.1588,0.0,0.0,0.0,0.0,0.0,0.0,0.0,0.0,0.0,0.0,0.0,2.2297,0.0,2.025,1.982,1.92,1.8337,1.7595,1.7204,1.7193,1.6497,1.6145,1.6135,1.6145,1.6145,1.6164,1.6992,1.7393,1.7412,1.7832,1.8008,0.0,1.8008,1.8008,1.8008,1.8008,1.8008,1.7813,1.6395,1.5896,1.5646,0.0,0.0,0.0,0.0,0.0,0.0,0.0,1.2625,1.252,1.2117,1.2265,1.2247,1.1841,1.1961,1.2003,1.1826,1.1805,0.0,0.0,0.0,0.0,0.0,0.0,0.0,0.0,0.0,1.1488,1.186,1.121,1.1162,1.1686,1.1038,1.0739,0.0,0.0,0.0,0.0,0.0,0.0,0.0,0.0,0.0,0.0,0.0,0.0,0.0,0.0,0.0,0.0,0.0,0.0,0.0,0.0,0.0,0.0,1.3464,1.4517,1.559,1.6473,1.7655,1.8534,1.8085,1.7488,1.6801,1.5993,0.0,1.5002,1.4398,1.4226,1.3956,1.3192,1.2698,1.2228,1.1676,1.1588,0.0,0.0,0.0,0.0,0.0,0.0,0.0,0.0,0.0,0.0,0.0,2.0815,2.0407,1.9941,1.9834,1.9306,1.8304,1.7584,1.7183,1.7183,1.7026,1.666,1.6135,1.668,1.665,1.6145,1.667,1.71,1.7393,1.7529,1.7744,1.8008,1.8008,1.7842,1.7578,1.7578,1.7402,1.7054,1.6641,1.5936,1.5142,0.0,0.0,0.0,0.0,0.0,0.0,0.0,1.2376,1.2291,1.2066,1.2231,1.2251,1.1982,1.2086,1.2128,1.1976,1.1869,0.0,0.0,0.0,0.0,0.0,0.0,0.0,1.149,1.149,1.1765,1.2293,1.1461,1.1476,1.2279,1.1342,1.0968,1.1048,1.0739,0.0,0.0,0.0,0.0,0.0,0.0,0.0,1.092,0.0,0.0,0.0,0.0,0.0,0.0,0.0,0.0,0.0,0.0,0.0,0.0,0.0,1.3044,1.3855,0.0,1.58,1.6578,1.6413,1.6159,0.0,0.0,0.0,1.4911,1.4486,1.4352,1.4048,1.313,1.2961,1.2724,1.2021,1.2077,0.0,0.0,0.0,0.0,0.0,0.0,0.0,0.0,0.0,0.0,0.0,2.0451,2.0037,1.9811,1.9798,1.9519,1.8873,1.8149,1.7649,1.7374,1.7144,1.6665,1.582,1.6377,1.6348,1.583,1.6279,1.6719,1.7148,1.7314,1.7627,0.0,1.7842,1.7617,1.7363,1.7197,1.6973,1.6709,1.6543,1.599,1.5345,0.0,0.0,0.0,0.0,0.0,0.0,0.0,1.2396,1.2396,1.1918,1.2296,1.2514,1.2251,1.221,1.2205,1.2205,0.0,0.0,0.0,0.0,0.0,0.0,0.0,0.0,1.1805,1.1805,1.1985,1.2342,1.1702,1.1745,1.24,1.147,1.1165,1.139,1.1062,1.092,1.0897,1.0944,1.0944,1.0897,1.092,1.092,0.0,0.0,0.0,0.0,0.0,0.0,0.0,0.0,0.0,0.0,0.0,0.0,0.0,0.0,0.0,0.0,0.0,1.4109,1.4749,1.5364,1.5124,1.4722,0.0,0.0,0.0,0.0,1.3724,1.3869,1.3067,1.3446,1.3585,1.2589,0.0,0.0,0.0,0.0,0.0,0.0,0.0,0.0,0.0,0.0,0.0,2.1405,2.0891,2.0335,1.9886,1.9809,1.9822,1.9924,1.9271,1.8464,1.7633,1.6899,1.6181,1.541,1.5439,1.5459,1.5469,1.585,1.6279,0.0,1.7129,1.7549,1.793,1.751,1.7334,1.7295,1.6855,1.667,1.6592,1.6172,1.6076,1.6017,0.0,0.0,0.0,0.0,0.0,0.0,0.0,0.0,0.0,0.0,1.2533,1.2572,1.2514,1.2332,1.2205,0.0,0.0,0.0,0.0,0.0,0.0,0.0,0.0,0.0,1.1805,1.1805,1.2097,1.2668,1.252,1.2787,1.3441,1.2701,1.2376,1.2408,1.1572,1.1094,1.092,1.1392,1.1324,1.092,1.1127,1.1219,0.0,0.0,0.0,0.0,1.1615,1.137,0.0,0.0,0.0,0.0,0.0,0.0,0.0,0.0,1.1698,1.1865,1.2179,0.0,1.2538,1.2688,1.3391,1.4049,0.0,0.0,0.0,0.0,0.0,1.3912,1.3331,1.3588,1.367,0.0,0.0,0.0,0.0,0.0,0.0,0.0,0.0,0.0,0.0,0.0,0.0,2.0275,1.9576,1.9585,2.0451,1.9956,2.0086,2.1079,2.0914,1.9824,1.7633,1.7231,1.6499,1.542,1.5752,1.5908,1.5908,1.5674,1.5996,1.6719,1.6475,1.6816,1.75,1.7061,1.6885,1.6836,1.6396,1.6016,1.5713,1.5605,1.5566,1.5547,0.0,0.0,0.0,0.0,0.0,0.0,0.0,0.0,0.0,0.0,0.0,1.261,1.261,1.2372,0.0,0.0,0.0,0.0,0.0,0.0,0.0,0.0,0.0,1.1805,1.1805,1.1805,1.2284,1.3256,1.2966,1.3136,1.3795,1.3107,1.2651,1.2314,1.1763,1.146,1.1324,1.1659,1.1615,1.1324,1.1468,0.0,0.0,0.0,0.0,0.0,1.1482,1.1347,0.0,1.1164,1.0774,1.0426,0.0,0.0,0.0,0.0,1.1653,1.1805,1.1805,1.1805,1.1865,1.2179,1.3032,1.381,1.381,0.0,0.0,0.0,0.0,0.0,1.3648,0.0,0.0,0.0,0.0,0.0,0.0,0.0,0.0,0.0,0.0,0.0,0.0,0.0,2.1506,2.0639,1.9672,1.9606,2.0652,1.9989,2.0164,2.1468,2.1242,2.0244,1.8316,1.7959,1.7105,1.5713,1.5752,1.5762,1.5752,1.5518,1.5781,1.6416,1.6172,1.6445,1.7051,1.6611,1.6426,1.6377,1.5937,1.5615,1.5468,1.5748,1.5921,1.5979,0.0,0.0,0.0,0.0,0.0,0.0,0.0,0.0,0.0,0.0,0.0,0.0,0.0,0.0,0.0,0.0,0.0,0.0,0.0,0.0,0.0,0.0,1.1805,1.185,1.1939,1.185,1.2403,1.366,1.3166,1.3241,1.3795,1.3211,1.2523,1.1805,1.1805,1.1805,1.1805,1.1805,1.1805,1.1805,1.1805,0.0,0.0,0.0,0.0,0.0,0.0,0.0,0.0,1.1141,1.092,1.0897,1.0897,0.0,0.0,0.0,0.0,0.0,1.1805,1.1865,1.2059,1.2531,1.3136,1.366,1.366,0.0,0.0,0.0,0.0,0.0,0.0,0.0,0.0,0.0,0.0,0.0,0.0,0.0,0.0,0.0,0.0,0.0,0.0,2.2359,2.192,2.128,2.011,1.9873,2.0778,2.0098,2.0322,2.1719,2.1081,2.0306,1.9336,1.8688,1.7582,1.6017,1.5586,1.5449,1.5508,1.5439,1.5654,1.6115,1.5986,0.0,1.6602,1.6143,1.6066,1.6076,1.5694,1.5584,1.5642,1.6425,1.6652,1.6775,0.0,0.0,0.0,0.0,0.0,0.0,0.0,0.0,0.0,0.0,0.0,0.0,0.0,0.0,0.0,0.0,0.0,0.0,0.0,0.0,0.0,1.1775,1.1805,1.2059,1.2636,1.2089,1.2179,1.2966,1.3421,1.3705,1.381,1.3705,1.2987,1.1805,1.1805,1.1805,1.1805,1.1805,1.1805,1.1805,1.1805,0.0,0.0,0.0,0.0,0.0,0.0,0.0,0.0,1.1287,1.1094,1.0897,1.0897,0.0,0.0,0.0,0.0,0.0,1.1805,1.2209,1.2546,1.2059,1.2471,1.2966,1.2966,0.0,0.0,0.0,0.0,0.0,0.0,0.0,0.0,0.0,0.0,0.0,0.0,0.0,0.0,0.0,0.0,0.0,2.0476,2.1104,2.1179,2.0137,1.932,1.9564,2.1305,2.0657,2.1049,2.279,2.1736,2.0852,2.0355,1.8619,1.6963,1.5508,1.5439,1.5605,1.5947,1.5576,1.5654,1.6105,0.0,1.5762,1.6133,1.5693,1.5732,1.6136,1.6267,1.6322,1.6425,1.7146,1.7413,1.759,0.0,0.0,0.0,0.0,0.0,0.0,0.0,0.0,0.0,0.0,0.0,0.0,0.0,0.0,0.0,0.0,0.0,0.0,0.0,0.0,1.1326,1.1246,1.161,1.2104,1.2786,1.2516,1.2861,1.3895,1.4184,1.4154,1.3769,1.3062,1.2388,1.1805,1.1805,1.1805,1.1805,1.1805,1.1805,1.1805,0.0,0.0,0.0,0.0,0.0,0.0,0.0,0.0,0.0,0.0,1.1378,1.1164,1.1324,0.0,0.0,0.0,0.0,0.0,1.1805,1.2014,1.2269,1.2336,1.2837,1.3331,1.3331,0.0,0.0,0.0,0.0,0.0,0.0,0.0,0.0,0.0,0.0,0.0,0.0,0.0,0.0,0.0,0.0,0.0,2.1644,2.2071,2.192,2.079,2.0037,2.0067,2.1029,2.0353,2.0649,2.2163,2.1411,2.0656,2.0062,1.8846,1.7509,1.6123,1.5644,1.5518,1.5703,1.5498,1.5565,1.5861,0.0,1.5895,1.6455,1.6245,1.6423,1.6937,1.7054,1.709,1.7191,1.7907,1.8447,1.8857,0.0,0.0,0.0,0.0,0.0,0.0,0.0,0.0,0.0,0.0,0.0,0.0,0.0,0.0,0.0,0.0,0.0,0.0,0.0,0.0,1.1437,1.1137,1.162,1.2246,1.3026,1.2891,1.3385,1.4558,1.4558,1.4214,1.354,1.2508,1.1939,1.1805,1.1805,1.1805,1.1805,1.1805,1.1805,1.1805,0.0,0.0,0.0,0.0,0.0,0.0,0.0,0.0,0.0,0.0,0.0,0.0,0.0,0.0,0.0,1.1948,1.1925,1.1835,1.1984,1.2029,1.2119,1.2486,0.0,1.366,1.3974,0.0,0.0,0.0,0.0,0.0,0.0,0.0,0.0,0.0,0.0,0.0,0.0,0.0,0.0,0.0,0.0,2.2159,2.2874,2.2877,2.2485,2.138,2.0765,2.0538,2.069,2.0153,2.0342,2.1468,2.0832,2.0214,1.9757,1.8885,1.7947,1.689,1.6078,1.5642,1.5642,1.5468,1.5568,1.5915,1.5915,1.6331,1.702,1.702,1.7243,1.7633,1.7797,1.7961,1.8178,1.8768,1.9307,1.9823,0.0,0.0,0.0,0.0,0.0,0.0,0.0,0.0,0.0,0.0,0.0,0.0,0.0,0.0,0.0,0.0,0.0,0.0,0.0,0.0,1.1233,1.2056,1.2154,1.2671,1.3705,1.3107,1.3136,1.3885,1.3885,1.3525,1.2876,1.2771,1.2411,1.1805,1.1805,1.1805,1.1805,1.1805,1.1805,1.1805,1.1805,0.0,0.0,0.0,0.0,0.0,0.0,0.0,0.0,0.0,0.0,0.0,0.0,0.0,1.2703,1.2703,1.2284,1.1939,1.2576,1.2726,1.2591,1.2014,1.2396,0.0,1.4438,0.0,0.0,0.0,0.0,0.0,0.0,0.0,0.0,0.0,0.0,0.0,0.0,0.0,0.0,0.0,0.0,2.2849,2.241,2.2372,2.192,2.0857,2.0727,2.0702,2.0718,2.0665,2.0916,2.1468,2.0324,1.9817,2.0167,1.8496,1.7611,1.7523,1.6797,1.6436,1.6379,1.569,1.5796,1.644,1.644,1.6869,1.7522,1.7522,1.7544,1.7688,1.8328,1.9044,1.9643,1.9695,1.9747,1.9874,0.0,0.0,0.0,0.0,0.0,0.0,0.0,0.0,0.0,0.0,0.0,0.0,0.0,0.0,0.0,0.0,0.0,0.0,0.0,1.1712,1.1826,1.219,1.2205,1.266,1.3657,1.3267,1.339,1.4053,1.3458,1.3056,1.2786,1.2358,1.2029,1.1805,1.1805,1.1805,1.1805,1.1805,1.1805,1.1805,1.1805,1.1805,0.0,0.0,0.0,0.0,0.0,0.0,0.0,0.0,1.2164,1.2164,1.2164,1.2164,1.2254,1.2681,1.2336,1.1939,1.2621,1.3092,1.3361,1.3121,0.0,0.0,0.0,0.0,0.0,0.0,0.0,0.0,0.0,0.0,0.0,0.0,0.0,0.0,0.0,0.0,0.0,0.0,2.2836,2.2535,2.2334,2.1995,2.1481,2.0781,2.0718,2.0567,2.015,2.0125,2.0225,2.0439,1.9961,1.9777,1.9974,1.9303,1.8992,1.8939,1.7302,1.6492,1.6492,1.6208,1.6325,1.67,1.7174,1.7769,1.847,1.847,1.8662,1.898,1.9254,1.9527,1.9798,1.9798,1.9798,1.9836,0.0,0.0,0.0,0.0,0.0,0.0,0.0,0.0,0.0,0.0,0.0,0.0,0.0,0.0,0.0,0.0,0.0,0.0,1.1918,1.2102,1.2231,1.2332,1.2412,1.2752,1.3412,1.3225,1.338,1.3883,1.3023,1.2554,1.2486,1.2195,1.2131,1.2264,1.203,1.2061,1.2249,1.1923,1.1805,1.182,1.2029,1.1984,0.0,0.0,0.0,0.0,0.0,0.0,0.0,0.0,1.2433,1.2388,1.2179,1.2104,1.2216,1.2666,1.2336,1.1939,1.2621,1.3121,1.354,0.0,0.0,0.0,0.0,0.0,0.0,0.0,0.0,0.0,0.0,0.0,0.0,0.0,0.0,0.0,0.0,0.0,0.0,2.2611,2.2284,2.2046,2.2046,2.1707,2.1255,2.0756,2.0718,2.0413,1.9836,1.9798,1.9798,1.9798,1.9798,1.9798,1.9798,1.9798,1.9683,1.9423,1.7907,1.709,1.681,1.6595,1.6584,1.671,1.7235,1.788,1.8588,1.8804,1.9269,1.9798,1.9798,1.9798,1.9798,1.9798,1.9798,1.9798,0.0,0.0,0.0,0.0,0.0,0.0,0.0,0.0,0.0,0.0,0.0,0.0,0.0,0.0,0.0,0.0,0.0,0.0,1.2205,1.2205,1.2332,1.2591,1.2869,1.3013,1.3013,1.3013,1.3057,1.3173,1.253,1.2066,1.1826,1.2356,1.2839,1.3259,1.2525,1.2603,1.3221,1.2212,1.1805,1.185,1.2531,1.2411,1.1954,0.0,0.0,0.0,0.0,0.0,0.0,0.0,1.381,1.369,1.3026,1.2801,1.2801,1.2801,1.2336,1.1954,1.2636,1.2831,0.0,0.0,0.0,0.0,0.0,0.0,0.0,0.0,0.0,0.0,0.0,0.0,0.0,0.0,0.0,0.0,0.0,0.0,2.1493,2.1493,2.1481,2.1481,2.1481,2.1481,2.1242,2.0756,2.0706,2.0401,1.9836,1.9798,1.9798,1.9798,1.9798,1.9798,1.9798,1.9798,1.9423,1.8715,1.8715,1.8328,1.7578,1.681,1.6482,1.6482,1.6482,1.6922,1.7688,1.8394,1.915,1.9798,1.9798,1.9798,1.9811,1.9798,1.9798,1.9811,0.0,0.0,0.0,0.0,0.0,0.0,0.0,0.0,0.0,0.0,0.0,0.0,0.0,0.0,0.0,0.0,0.0,0.0,1.2475,1.2665,1.2703,1.261,1.2869,1.3013,1.3013,1.3013,1.2929,1.2792,1.2586,1.2435,1.2356,1.2316,1.2401,1.2505,1.2094,1.2024,1.2227,1.1923,1.1805,1.182,1.2014,1.2254,1.2561,0.0,0.0,0.0,0.0,0.0,0.0,0.0,0.0,0.0,1.3026,1.2801,1.2801,1.2801,1.2666,1.2666,1.3316,0.0,0.0,0.0,0.0,0.0,0.0,0.0,0.0,0.0,0.0,0.0,0.0,0.0,0.0,0.0,0.0,0.0,0.0,2.1832,2.1493,2.1493,2.1142,2.097,2.097,2.0539,2.0238,2.0075,2.0062,1.9987,1.9811,1.9798,1.9798,1.9798,1.9798,1.9798,1.9798,1.9798,1.9423,1.8715,1.8398,1.8055,1.7578,1.7357,1.7246,1.7246,1.7246,1.7677,1.8447,1.915,1.9579,1.9798,1.9798,2.0049,2.0363,1.9949,2.0062,2.0351,0.0,0.0,0.0,0.0,0.0,0.0,0.0,0.0,0.0,0.0,1.1838,1.1785,0.0,0.0,0.0,1.2205,1.2451,0.0,1.261,1.2759,1.2815,1.2759,1.2906,1.3049,1.3156,1.3156,1.3069,1.2926,1.2815,1.2665,1.2451,1.2776,1.2963,1.3022,1.2565,1.2529,1.2749,1.208,1.1939,1.2209,1.2493,1.2837,1.3265,0.0,0.0,0.0,0.0,0.0,0.0,0.0,0.0,0.0,1.2688,0.0,1.2411,1.2411,1.2762,1.3286,1.369,0.0,0.0,0.0,0.0,0.0,0.0,0.0,0.0,0.0,0.0,0.0,0.0,0.0,0.0,0.0,0.0,0.0,0.0,2.1179,2.074,2.0539,2.0213,2.0012,2.0012,1.9497,1.9258,1.9472,1.9296,1.9258,1.9484,1.9497,1.9585,1.9798,1.9798,1.9798,1.9798,1.9798,1.9423,1.8715,1.8458,1.8102,1.7567,1.7148,1.684,1.6743,1.6743,1.7291,1.8274,1.8447,1.8992,1.9747,1.9475,1.9738,2.0275,1.9924,2.0024,2.0275,0.0,0.0,0.9515,0.9586,0.0,0.0,0.0,0.0,0.0,1.2949,1.2995,1.2869,0.0,0.0,0.0,1.2291,1.2475,1.261,1.263,1.261,1.2722,1.2942,1.2995,1.3121,1.3396,1.3396,1.3379,1.3363,1.3121,1.2789,1.238,1.344,1.4053,1.4265,1.3505,1.3551,1.4062,1.247,1.2149,1.2771,1.3376,1.3705,1.3944,1.5169,0.0,0.0,0.0,0.0,0.0,0.0,0.0,0.0,1.2299,1.1895,1.188,1.182,1.2762,1.3825,0.0,0.0,0.0,0.0,0.0,0.0,0.0,0.0,0.0,0.0,0.0,0.0,0.0,0.0,0.0,0.0,0.0,0.0,0.0,2.0125,1.956,1.9033,1.8933,1.8908,1.8908,1.8505,1.8405,1.892,1.8493,1.843,1.8883,1.8945,1.9246,1.971,1.9773,1.9798,1.9798,1.9798,1.9423,1.8715,1.8667,1.8293,1.7556,1.6471,1.5741,1.541,1.5429,1.6203,1.7468,1.6922,1.7907,1.9643,1.9044,1.9239,1.9874,1.9823,1.9836,1.9874,0.0,0.0,0.9776,1.0929,0.0,0.0,0.0,0.0,1.2653,1.2962,1.2815,1.2668,1.261,1.261,0.0,1.2813,1.2703,1.2687,1.2906,1.2722,1.263,1.2668,1.2887,1.3121,1.3396,1.3396,1.3294,1.3085,1.3031,1.3219,1.3601,1.3436,1.368,1.4185,1.3289,1.2969,1.3068,1.2178,1.188,1.2029,1.2164,1.2867,1.384,1.4124,1.4692,0.0,0.0,0.0,0.0,0.0,0.0,0.0,1.2846,1.2591,1.2463,1.1939,1.2762,1.3914,0.0,0.0,0.0,0.0,0.0,0.0,0.0,0.0,0.0,0.0,0.0,0.0,0.0,0.0,0.0,0.0,0.0,0.0,0.0,1.9811,1.9108,1.8995,1.8643,1.838,1.838,1.8279,1.8254,1.8367,1.8279,1.8254,1.838,1.8794,1.9033,1.9196,1.9585,1.9798,1.9798,1.9798,1.9423,1.8715,1.8362,1.8008,1.7567,1.6759,1.6001,1.5391,1.5706,1.6137,1.681,1.7786,1.8501,1.8992,1.9423,1.997,2.0426,1.9962,2.0087,2.0413,0.0,0.0,0.0,0.0,0.0,0.0,0.0,0.0,1.2407,1.2748,1.2703,1.261,1.261,1.2706,0.0,0.0,1.2722,1.2741,1.2626,1.2491,1.2412,1.2412,1.2665,1.2871,1.2998,1.3033,1.2944,1.2815,1.2684,1.2955,1.3621,1.3649,1.3966,1.4476,1.3976,1.357,1.3226,1.2553,1.2291,1.2299,1.2628,1.3376,1.4318,1.4633,1.5199,1.5754,1.5409,0.0,0.0,0.0,0.0,0.0,0.0,0.0,1.2666,1.1999,1.2762,1.4019,0.0,0.0,0.0,0.0,0.0,0.0,0.0,0.0,0.0,0.0,0.0,0.0,0.0,0.0,0.0,0.0,0.0,0.0,1.9849,1.9158,1.853,1.8267,1.799,1.7815,1.7815,1.7564,1.7513,1.779,1.7551,1.7513,1.779,1.8078,1.848,1.8958,1.9296,1.9547,1.9798,1.9798,1.9592,1.9202,1.8283,1.7478,1.6688,1.6369,1.57,1.4795,1.521,1.5873,1.6776,1.7379,1.8274,1.9254,1.9254,1.9661,2.0213,1.9911,1.9987,2.0213,0.0,0.0,0.0,0.0,0.0,0.0,0.0,0.0,0.0,1.253,1.261,1.261,1.261,1.2797,1.2741,0.0,0.0,0.0,1.2246,1.2205,1.2205,1.2205,1.2455,1.261,1.261,1.261,1.2572,1.2533,1.2312,1.2586,1.3306,1.3751,1.4308,1.4947,1.4722,1.4378,1.3929,1.3256,1.2921,1.2846,1.3391,1.4034,1.4677,1.5244,1.5547,1.5653,1.5635,1.5218,1.4656,1.4528,0.0,0.0,0.0,0.0,1.2531,1.1954,1.2673,1.3899,0.0,0.0,0.0,0.0,0.0,0.0,0.0,0.0,0.0,0.0,0.0,0.0,0.0,0.0,0.0,0.0,0.0,0.0,1.8819,1.8405,1.789,1.7438,1.73,1.7237,1.7237,1.6798,1.6722,1.72,1.6785,1.6722,1.7212,1.7325,1.784,1.8857,1.8933,1.9284,1.9798,1.9798,1.9798,1.9798,1.846,1.71,1.5669,1.5754,1.5319,1.4419,1.4715,1.5618,1.6913,1.6772,1.7841,1.9579,1.9097,1.9254,1.9798,1.9798,1.9798,1.9798,0.0,0.0,0.0,0.0,0.0,0.0,0.0,0.0,0.0,0.0,1.261,1.261,1.261,1.263,1.263,1.2553,1.2412,1.2287,1.219,0.0,0.0,1.2205,1.2455,1.261,1.261,1.261,1.2475,1.2251,1.2226,0.0,0.0,0.0,0.0,1.5619,1.4453,1.4214,1.4618,1.3959,1.3331,1.2816,1.2906,1.3331,1.3944,1.4034,1.4534,1.5152,1.5,1.4593,1.408,1.3322,1.3011,0.0,0.0,0.0,1.191,1.182,1.2328,0.0,0.0,0.0,0.0,0.0,0.0,0.0,0.0,0.0,0.0,0.0,0.0,0.0,0.0,0.0,0.0,0.0,0.0,1.8229,1.8304,1.784,1.7463,1.7388,1.6936,1.6635,1.6635,1.6559,1.6547,1.6622,1.6559,1.6559,1.6635,1.7112,1.7664,1.8292,1.8781,1.9284,1.9798,1.9798,1.9798,1.9798,1.9132,1.7661,1.5541,1.553,1.5509,1.5481,1.5161,1.5612,1.6623,1.7224,1.8015,1.8874,1.9423,1.9695,1.9798,1.9798,1.9798,1.9695,0.0,0.0,0.0,0.0,0.0,0.0,0.0,0.0,0.0,0.0,0.0,1.2154,1.2154,1.2291,1.2332,1.2154,1.219,1.2143,1.1997,1.1976,1.1976,1.1976,1.2086,1.2154,1.2154,1.2154,1.2092,1.1976,0.0,0.0,0.0,1.2712,1.3505,0.0,0.0,1.4141,1.4056,1.3756,1.323,1.2661,1.3058,1.3507,1.3987,1.4127,1.4371,1.4602,1.4299,1.3613,1.2864,1.2808,1.2571,1.2264,1.2118,0.0,0.0,0.0,0.0,0.0,0.0,0.0,0.0,0.0,0.0,0.0,0.0,0.0,0.0,0.0,0.0,0.0,0.0,0.0,0.0,0.0,0.0,1.7375,1.7702,1.725,1.6898,1.6898,1.6672,1.6522,1.6522,1.6522,1.6522,1.6522,1.6522,1.6522,1.6522,1.676,1.7162,1.7727,1.8279,1.8832,1.9359,1.966,1.9275,1.8235,1.7583,1.6429,1.4882,1.4882,1.4782,1.4652,1.5017,1.5845,1.7017,1.7882,1.8661,1.9371,1.9695,1.9798,1.9747,1.9319,1.9202,1.9097,0.0,0.0,0.0,0.0,0.0,0.0,0.0,0.0,0.0,0.0,0.0,1.1805,1.1805,0.0,0.0,0.0,1.1982,1.2003,1.1811,1.1805,1.1805,1.1805,1.1805,1.188,1.2044,1.188,1.188,1.2044,0.0,0.0,1.2912,1.265,1.3347,0.0,1.4398,1.407,0.0,0.0,0.0,1.2799,1.3293,1.3678,1.3969,1.4179,1.424,1.4166,1.3974,1.3176,0.0,0.0,0.0,0.0,0.0,0.0,0.0,0.0,0.0,0.0,0.0,0.0,0.0,0.0,0.0,0.0,0.0,0.0,0.0,0.0,0.0,0.0,0.0,0.0,0.0,0.0,0.0,1.6672,1.7099,1.6785,1.6522,1.6522,1.6522,1.6522,1.6522,1.6522,1.6522,1.6522,1.6522,1.6522,1.6522,1.6522,1.6848,1.7564,1.799,1.853,1.9221,1.9472,1.8802,1.7294,1.6425,1.5509,1.4467,1.4321,1.4146,1.3989,1.4797,1.5994,1.742,1.8131,1.8992,1.9798,1.9798,1.9695,1.9475,1.8874,1.8555,1.8328,0.0,0.0,0.0,0.0,0.0,0.0,0.0,0.0,0.0,0.0,0.0,1.1805,1.1805,1.1811,1.1826,1.1805,1.1811,1.1811,1.1805,1.1805,1.1805,1.1805,1.1805,0.0,1.2741,1.2119,1.2104,0.0,0.0,0.0,1.3178,1.3346,1.3622,1.394,1.3662,1.3888,1.446,0.0,0.0,0.0,0.0,1.3514,0.0,0.0,0.0,0.0,0.0,0.0,0.0,0.0,0.0,0.0,0.0,0.0,0.0,0.0,0.0,0.0,0.0,0.0,0.0,0.0,0.0,0.0,0.0,0.0,0.0,0.0,0.0,0.0,0.0,0.0,0.0,0.0,0.0,1.6522,1.6559,1.6534,1.6522,1.6522,1.6522,1.6522,1.6522,1.6522,1.6522,1.6522,1.6522,1.6522,1.6522,1.6522,1.7024,1.8129,1.8191,1.8706,1.9748,1.9296,1.8745,1.8134,1.6942,1.5788,1.464,1.4082,1.4031,1.439,1.4913,1.6031,1.7609,1.7665,1.8489,1.9798,1.9798,1.9371,1.8768,1.8715,1.8286,1.7523,0.0,0.0,0.0,0.0,0.0,0.0,0.0,0.0,0.0,0.0,0.0,0.0,0.0,1.2059,1.1969,1.2411,1.2456,1.2613,1.3062,1.2673,1.2628,1.3062,1.2658,1.2771,1.3436,1.2777,1.263,0.0,0.0,1.2538,1.2775,1.299,1.3178,1.3263,1.3305,1.3454,1.3682,1.3682,0.0,0.0,0.0,0.0,0.0,0.0,0.0,0.0,0.0,0.0,0.0,0.0,0.0,0.0,0.0,0.0,0.0,0.0,0.0,0.0,0.0,0.0,0.0,0.0,0.0,0.0,0.0,0.0,0.0,0.0,0.0,0.0,0.0,0.0,0.0,0.0,0.0,1.6522,1.6522,1.6522,1.6522,1.6522,1.6522,1.6522,1.6522,1.6522,1.6522,1.6522,1.6522,1.6522,1.6522,1.6522,1.6873,1.7652,1.8028,1.8511,1.9085,1.8576,1.7843,1.6936,1.6097,1.5516,1.5204,1.4611,1.4978,1.6008,1.5383,1.5838,1.7131,1.7444,1.7895,1.8394,1.8394,1.8221,1.7961,1.7468,1.7146,1.681,0.0,0.0,0.0,0.0,0.0,0.0,0.0,0.0,0.0,0.0,0.0,0.0,0.0,0.0,1.2426,1.3086,1.2936,1.3077,1.3765,1.2957,1.2852,1.3765,1.3151,1.3211,1.4124,1.3342,1.3121,0.0,0.0,0.0,0.0,1.3041,1.3142,1.3007,1.3124,1.3198,0.0,0.0,0.0,1.3198,0.0,0.0,1.3894,0.0,0.0,0.0,0.0,0.0,0.0,0.0,0.0,0.0,0.0,0.0,0.0,0.0,0.0,0.0,0.0,0.0,0.0,0.0,0.0,0.0,0.0,0.0,0.0,0.0,0.0,0.0,0.0,0.0,0.0,0.0,0.0,1.6522,1.6522,1.6522,1.6522,1.6522,1.6522,1.6522,1.6522,1.6522,1.6522,1.6522,1.6522,0.0,1.6522,1.6522,1.6873,1.7639,1.8016,1.8375,1.879,1.8089,1.7362,1.6581,1.5969,1.5606,1.5415,1.4901,1.5367,1.6565,1.5573,1.587,1.7055,1.717,1.7357,1.7578,1.7578,1.7468,1.7191,1.6652,1.6322,1.6036,0.0,0.0,0.0,0.0,0.0,0.0,0.0,0.0,0.0,1.2831,0.0,0.0,0.0,0.0,0.0,1.378,1.3226,1.3136,1.3799,1.2605,1.2455,1.3759,1.3187,1.3426,1.4755,1.3743,1.3483,1.4084,0.0,0.0,0.0,0.0,1.3648,1.3198,1.3185,1.3173,1.3135,0.0,1.2743,1.3232,0.0,1.3539,1.4013,0.0,0.0,0.0,1.6292,1.6124,0.0,0.0,0.0,0.0,0.0,0.0,0.0,0.0,0.0,0.0,0.0,0.0,0.0,0.0,0.0,0.0,0.0,0.0,0.0,0.0,0.0,0.0,0.0,0.0,0.0,0.0,0.0,1.6522,1.6522,1.6522,1.6522,1.6522,1.6522,1.6522,1.6522,1.6522,1.6522,1.6522,1.6522,1.6522,1.6522,1.6534,1.7049,1.8141,1.8191,1.8468,1.8945,1.7928,1.7388,1.7375,1.6696,1.6021,1.5319,1.4822,1.5086,1.5891,1.5416,1.6051,1.7478,1.68,1.6922,1.7523,1.7523,1.709,1.6492,1.6492,1.6036,1.541,0.0,0.0,0.0,0.0,0.0,0.0,1.2456,1.2269,1.2418,0.0,0.0,0.0,1.4393,1.4348,1.4318,1.4498,1.4348,1.4406,1.4732,1.3948,1.371,1.4264,1.3656,1.3713,1.4576,1.3807,1.3585,1.3956,1.3351,1.3063,1.3128,1.3327,1.3323,0.0,1.2785,1.2609,1.2655,1.3245,0.0,0.0,1.4554,1.4951,0.0,0.0,0.0,0.0,0.0,1.6738,1.6324,0.0,1.5649,1.3994,0.0,0.0,0.0,0.0,0.0,0.0,1.1164,0.0,0.0,0.0,0.0,0.0,1.2767,1.3875,1.521,0.0,0.0,0.0,0.0,0.0,0.0,0.0,0.0,1.6522,1.6522,1.6522,1.6522,1.6522,1.6522,1.6522,1.6522,1.6522,1.6522,0.0,1.6522,1.6522,1.6522,1.6911,1.7287,1.7601,1.8003,1.8016,1.7641,1.7483,1.7136,1.6606,1.6524,1.6332,1.6068,1.5556,1.5677,1.6214,1.5092,1.5067,1.5881,1.6311,1.6312,1.6026,1.6026,1.5853,1.569,1.569,1.5584,1.541,0.0,0.0,1.1805,1.1805,0.0,1.2343,1.2741,1.2927,1.3331,0.0,0.0,0.0,1.4707,1.5064,1.513,1.4947,1.4668,1.4601,1.4833,1.3968,1.3752,1.446,1.386,1.3819,1.4487,1.3938,1.3749,1.3901,1.3311,1.3073,1.3198,1.3198,1.3198,1.3185,1.286,1.2683,0.0,0.0,0.0,0.0,1.4484,0.0,0.0,1.6491,1.6835,0.0,0.0,0.0,1.7507,1.7585,1.6694,0.0,0.0,0.0,0.0,0.0,0.0,0.0,0.0,0.0,0.0,0.0,0.0,0.0,1.2242,1.3226,1.4495,0.0,0.0,0.0,0.0,0.0,0.0,0.0,0.0,1.6258,1.6484,1.6522,1.6522,1.6522,1.6522,1.6522,1.6522,1.6522,1.6522,1.6522,1.6522,1.6522,1.6522,1.6835,1.7137,1.7375,1.7463,1.7418,1.7241,1.7095,1.6687,1.6029,1.6296,1.6121,1.5536,1.53,1.5415,1.5851,1.49,1.4753,1.5237,1.5941,1.5808,1.5166,1.5342,1.541,1.541,1.541,1.541,1.541,0.0,0.0,1.182,1.1895,1.2351,1.2771,1.2996,1.3925,1.4648,0.0,1.4902,1.4902,1.4902,1.5397,1.5551,1.5134,1.4499,1.4223,1.4428,1.3318,1.3165,1.4301,1.3775,1.3748,1.4328,1.4032,1.3835,1.3835,1.3391,1.3198,1.3198,1.3198,1.3198,1.3198,1.3198,1.3073,1.2975,0.0,0.0,1.4122,1.3998,1.4887,0.0,0.0,1.7611,0.0,1.8724,1.8968,1.8788,1.8135,1.7441,0.0,0.0,0.0,0.0,0.0,1.2784,0.0,0.0,0.0,0.0,0.0,0.0,0.0,1.2659,1.3302,1.4178,1.6303,1.6589,0.0,0.0,0.0,0.0,0.0,0.0,1.5819,1.6434,1.6522,1.6522,1.6522,1.6522,1.6522,1.6522,1.6522,1.6522,1.6522,1.6522,1.6522,1.6522,1.6522,1.676,1.7262,1.6785,1.6773,1.7275,1.6773,1.6194,1.5599,1.6097,1.561,1.4328,1.4475,1.4658,1.4913,1.4566,1.4639,1.5039,1.5509,1.5314,1.4824,1.5244,1.541,1.541,1.541,1.5439,1.5488,1.1805,1.1805,1.1969,1.2516,1.2276,1.2538,1.4154,1.373,1.3775,1.5394,1.5604,1.5604,1.5604,1.5375,1.5195,1.5104,1.467,1.4314,1.4019,1.3773,1.3565,1.3446,1.3323,1.331,1.3446,1.3391,1.3323,1.3323,1.3232,1.3198,1.3198,1.3198,1.3198,1.3198,1.3198,1.3127,0.0,0.0,0.0,1.5145,1.6369,0.0,1.7525,1.8733,1.923,1.9331,1.9477,1.9281,1.8659,0.0,1.6597,1.6271,0.0,0.0,0.0,0.0,0.0,0.0,0.0,0.0,0.0,0.0,0.0,0.0,1.2808,1.2503,1.2581,0.0,1.4059,0.0,0.0,0.0,0.0,0.0,0.0,1.5379,1.6371,1.6522,1.6522,1.6522,1.6522,1.6522,1.6522,1.6522,1.6522,1.6522,1.6522,1.6522,1.6522,1.6522,1.6572,1.6685,1.6572,1.6572,1.6685,1.6572,1.6194,1.5588,1.5695,1.5097,1.3905,1.3952,1.3728,1.3352,1.3273,1.3482,1.3858,1.4284,1.4572,1.4824,1.5244,1.541,1.541,1.541,1.5635,1.5937,1.1865,1.2343,1.2688,1.2343,1.2837,1.351,1.4199,1.4315,1.4659,1.5664,1.561,1.5448,1.5448,1.5074,1.4721,1.4533,1.431,1.4019,1.3581,1.3547,1.3459,1.3198,1.3198,1.3198,1.3198,1.3198,1.3198,1.3198,1.3198,1.3198,1.3198,1.3198,0.0,0.0,1.3331,0.0,0.0,0.0,1.4772,1.561,1.6427,0.0,1.7802,1.8822,1.9196,1.9206,1.9287,1.9132,1.8682,1.7261,1.7135,0.0,0.0,1.5282,1.4752,0.0,1.3298,1.267,0.0,0.0,0.0,1.2242,0.0,0.0,0.0,1.2699,1.2729,1.4119,0.0,0.0,0.0,0.0,0.0,0.0,0.0,1.4249,1.4763,1.5777,1.6522,1.6522,1.6522,1.6522,1.6522,1.6522,1.6522,1.6522,1.6522,1.6522,1.6522,1.6522,1.6522,1.6522,1.6522,1.638,1.6051,1.6051,1.5599,1.4675,1.4675,1.4236,1.3324,1.3324,1.32,1.2891,1.3105,1.3311,1.3555,1.4199,1.459,1.4824,1.5244,1.541,1.541,1.541,1.5547,1.5762,1.2149,1.2972,1.3421,1.2194,1.3436,1.4468,1.4064,1.4832,1.549,1.5521,1.5225,1.5011,1.5139,1.4697,0.0,1.408,1.3868,1.3615,0.0,0.0,1.3198,1.3198,1.3198,1.3198,1.3198,1.3198,1.3198,1.3198,1.3198,1.3198,1.3198,1.3198,0.0,0.0,0.0,0.0,0.0,0.0,0.0,1.6188,0.0,1.6892,1.7772,1.8597,1.8807,1.8723,1.8973,1.9043,1.889,1.7899,0.0,1.8669,1.7498,1.6681,0.0,0.0,0.0,0.0,0.0,0.0,0.0,0.0,0.0,1.268,0.0,0.0,0.0,0.0,0.0,0.0,0.0,0.0,0.0,0.0,0.0,0.0,0.0,1.4626,0.0,1.584,1.607,1.6195,1.6195,1.6296,1.6409,1.6509,1.6421,1.6409,1.6509,1.6522,1.6522,1.6522,1.638,1.6095,1.5588,1.5499,1.4869,1.3815,1.3815,1.3457,1.2881,1.2881,1.2881,1.29,1.333,1.3555,1.3691,1.4463,1.4834,1.4941,1.5283,1.541,1.541,1.541,1.5469,1.5596,1.2936,1.3286,1.357,1.2831,1.3361,1.4094,1.4603,1.4451,1.437,1.462,1.4596,1.474,0.0,0.0,0.0,0.0,0.0,0.0,1.3198,0.0,0.0,1.3198,1.3198,1.3198,1.3198,1.3198,1.3198,1.3198,1.3198,1.3198,1.3198,1.3198,0.0,0.0,1.3242,0.0,0.0,0.0,1.6637,0.0,1.8134,1.8104,0.0,1.9091,1.9211,1.8792,1.9379,1.9603,1.9498,0.0,1.8991,1.9203,0.0,1.6438,1.6159,0.0,0.0,0.0,0.0,0.0,0.0,0.0,1.311,0.0,0.0,0.0,1.2506,1.2632,0.0,0.0,0.0,0.0,0.0,0.0,0.0,0.0,1.1776,1.2831,1.3574,1.3574,1.4463,1.5104,1.5104,1.5492,1.5994,1.6441,1.607,1.6007,1.6497,1.6522,1.6522,1.6522,1.5964,1.5676,1.5588,1.505,1.4468,1.3815,1.3815,1.3457,1.2881,1.2881,1.2881,1.29,1.333,1.3721,1.4048,1.459,1.501,1.5342,1.5391,1.541,1.541,1.541,1.5654,1.6055,1.357,1.4229,1.4618,1.357,1.4259,1.4917,1.4812,1.473,1.4639,1.4523,1.431,0.0,0.0,0.0,0.0,0.0,0.0,1.3848,0.0,0.0,0.0,0.0,0.0,0.0,1.3697,1.3396,1.3198,1.3198,1.3198,1.3198,1.3198,1.3493,0.0,0.0,1.4351,0.0,1.5456,0.0,0.0,0.0,0.0,0.0,0.0,1.9181,1.951,1.9316,1.9585,1.969,1.9645,0.0,1.9004,0.0,0.0,0.0,0.0,0.0,0.0,0.0,0.0,0.0,0.0,0.0,0.0,0.0,1.3348,0.0,1.2847,0.0,0.0,0.0,0.0,0.0,0.0,0.0,1.0772,0.0,0.0,0.0,1.2484,0.0,0.0,0.0,1.4853,1.4828,1.5103,1.5969,1.553,1.5454,1.6007,1.6346,1.6337,1.6008,1.572,1.5264,1.4538,1.4318,1.3873,1.3286,1.3286,1.3152,1.2881,1.2881,1.2881,1.292,1.3584,1.3912,1.4136,1.4873,1.5254,1.541,1.541,1.541,1.541,1.541,1.5527,1.5781,1.4438,0.0,0.0,0.0,0.0,0.0,1.4674,0.0,0.0,0.0,0.0,0.0,1.4683,1.3986,0.0,0.0,0.0,1.4475,0.0,0.0,1.4337,0.0,0.0,0.0,0.0,0.0,1.3348,1.3198,1.3323,1.3391,0.0,0.0,0.0,0.0,0.0,1.5785,1.5881,0.0,0.0,1.8268,1.8268,1.8268,1.8343,1.9121,1.9525,1.969,1.969,1.969,1.969,1.969,1.9023,0.0,1.7658,0.0,0.0,0.0,0.0,0.0,1.4211,0.0,0.0,0.0,0.0,0.0,0.0,0.0,0.0,0.0,0.0,0.0,0.0,0.0,0.0,0.0,0.0,1.033,0.0,0.0,0.0,0.0,0.0,0.0,0.0,1.3871,1.4097,1.5205,1.4739,1.4789,1.5655,1.607,1.6077,1.562,1.5454,1.4869,1.3815,1.3647,1.3385,1.3047,1.2939,1.2939,1.3047,1.293,1.3086,1.3371,1.3861,1.4306,1.4626,1.5155,1.541,1.541,1.541,1.541,1.541,1.541,1.541,1.5537,1.5739,1.5769,0.0,0.0,0.0,0.0,0.0,0.0,0.0,0.0,0.0,0.0,0.0,0.0,0.0,0.0,0.0,1.489,1.4916,0.0,1.4337,0.0,0.0,1.4072,0.0,0.0,0.0,1.3198,1.3648,0.0,0.0,0.0,0.0,0.0,0.0,1.573,1.7093,1.8015,1.8852,1.963,1.963,1.963,1.9555,0.0,1.9136,1.969,1.969,0.0,0.0,1.969,1.9354,0.0,0.0,0.0,0.0,0.0,0.0,0.0,0.0,0.0,0.0,1.4752,0.0,0.0,0.0,0.0,1.3198,0.0,0.0,0.0,0.0,0.0,0.0,0.0,0.0,0.0,0.0,0.0,0.0,0.0,0.0,0.0,0.0,1.2467,1.2918,0.0,1.3596,1.3949,1.5605,1.5718,1.5694,1.562,1.5005,1.4422,1.3826,1.3238,1.3126,1.3486,1.3076,1.3096,1.3477,1.3066,1.3528,1.451,1.424,1.4777,1.5846,1.5501,1.541,1.541,1.541,1.541,1.541,1.541,1.541,1.5537,0.0,0.0,0.0,0.0,0.0,0.0,0.0,1.4052,0.0,0.0,0.0,0.0,0.0,0.0,1.5079,0.0,0.0,1.5567,1.5932,1.5442,0.0,0.0,0.0,1.4626,0.0,0.0,0.0,1.3648,1.3835,0.0,0.0,0.0,0.0,0.0,0.0,1.6627,0.0,0.0,0.0,0.0,0.0,1.8777,1.8463,0.0,1.9495,1.969,1.969,1.969,0.0,1.969,1.9132,1.8299,1.7935,1.6982,1.5885,1.5547,1.5205,1.5067,0.0,0.0,1.6208,1.6007,0.0,0.0,0.0,0.0,0.0,0.0,0.0,0.0,0.0,0.0,0.0,0.0,0.0,0.0,0.0,1.0219,1.0596,0.0,0.0,0.0,0.0,0.0,0.0,0.0,1.3546,0.0,1.5078,1.5492,1.5669,1.562,1.541,1.4824,1.3815,1.36,1.3357,1.3096,1.2949,1.3105,1.3506,1.388,1.4383,1.5035,1.5194,1.5527,1.5867,1.5558,1.541,1.541,1.541,1.541,1.541,1.541,1.541,1.5537,1.5799,0.0,0.0,0.0,0.0,0.0,0.0,0.0,0.0,0.0,1.4579,0.0,1.5841,0.0,1.6009,0.0,1.6462,1.6328,1.6497,1.6007,0.0,1.6497,1.5833,0.0,0.0,0.0,0.0,0.0,1.4387,1.447,0.0,0.0,0.0,0.0,0.0,0.0,0.0,0.0,1.8493,0.0,0.0,1.8448,0.0,0.0,1.9331,1.9375,0.0,1.9566,1.9406,1.9406,1.8688,1.7827,1.7827,1.698,1.5982,1.5982,1.5881,1.5869,1.6384,1.6936,0.0,1.6923,1.6672,0.0,1.5205,0.0,0.0,0.0,0.0,0.0,0.0,0.0,0.0,0.0,0.0,0.0,0.0,1.0973,1.1462,0.0,0.0,0.0,0.0,0.0,0.0,0.0,0.0,0.0,0.0,1.5255,1.5472,1.5608,1.5588,1.5039,1.3815,1.3815,1.3621,1.333,1.3174,1.3398,1.3955,1.4286,1.48,1.5448,1.5494,1.5722,1.6108,1.5571,1.541,1.541,1.541,1.541,1.541,1.541,1.5615,1.5967,0.0,0.0,0.0,0.0,1.5418,0.0,0.0,0.0,1.5098,0.0,1.5428,1.6452,1.6338,1.6927,1.7317,1.7341,1.7353,0.0,1.6595,1.6103,0.0,0.0,1.6596,1.6559,1.6519,0.0,0.0,0.0,1.525,1.5104,1.5134,0.0,0.0,0.0,1.5799,0.0,1.6756,1.7369,1.8041,1.8702,1.8747,1.8732,1.8702,1.8747,1.8732,1.8792,1.945,1.9369,1.8893,1.8893,1.8185,1.7312,1.7312,1.6909,1.6522,1.6522,1.6911,1.7225,1.6741,1.6986,1.7471,1.7471,1.7055,0.0,0.0,0.0,1.5731,0.0,0.0,0.0,0.0,0.0,0.0,0.0,0.0,0.0,0.0,0.0,0.0,1.2454,0.0,0.0,0.0,0.0,0.0,0.0,0.0,0.0,0.0,1.4916,1.5126,1.5604,1.5644,1.5119,1.3909,1.3884,1.3957,1.4145,1.3763,1.4027,1.4821,1.441,1.4861,1.5867,1.5184,1.5481,1.6436,1.569,1.541,1.541,1.541,1.541,1.541,1.5439,1.5996,1.6675,1.5799,1.5799,1.5799,0.0,1.5418,1.5043,0.0,0.0,0.0,0.0,1.5758,1.6512,1.6844,1.7498,1.7887,1.7894,1.7907,0.0,0.0,0.0,0.0,1.7693,1.7678,1.7509,1.7095,1.6564,0.0,1.5941,1.5375,1.5285,1.561,0.0,0.0,0.0,0.0,0.0,1.6726,1.6891,1.7623,1.8747,1.9226,1.9136,1.8747,0.0,1.9136,1.8792,1.945,1.9369,1.8893,1.8893,1.8185,1.7312,1.7312,1.6909,1.6522,1.6522,1.6622,1.6885,1.7575,1.7868,1.8084,1.8474,1.8188,1.7664,1.725,0.0,0.0,0.0,0.0,0.0,0.0,0.0,0.0,0.0,0.0,0.0,0.0,0.0,0.0,1.2935,0.0,0.0,0.0,0.0,0.0,0.0,0.0,0.0,0.0,0.0,1.5565,1.5674,1.6492,1.6377,1.5129,1.4998,1.4974,1.5137,1.486,1.5059,1.5618,1.6042,1.6299,1.636,1.6146,1.6218,1.6436,1.569,1.541,1.541,1.541,1.541,1.5449,1.5781,1.625,1.6777,1.5799,0.0,0.0,1.5799,0.0,0.0,1.5525,0.0,0.0,1.6064,1.7092,0.0,1.7784,1.8393,1.8688,1.8458,1.8458,0.0,1.8145,0.0,0.0,1.8106,1.8341,1.8289,1.8026,1.7562,0.0,1.6796,0.0,0.0,1.5799,0.0,0.0,0.0,0.0,1.5979,0.0,1.6891,1.7563,1.8328,1.8986,1.9031,0.0,1.9121,1.9211,1.9181,1.9555,1.9207,1.8535,1.8535,1.7827,1.6951,1.6951,1.6752,1.6572,1.6823,1.727,1.7764,1.8442,1.914,1.9753,1.9825,1.9601,1.9179,1.866,1.8071,1.7568,0.0,1.7024,1.6484,0.0,0.0,0.0,0.0,0.0,0.0,0.0,0.0,0.0,0.0,1.3198,0.0,0.0,0.0,0.0,0.0,0.0,0.0,0.0,0.0,1.5304,1.6032,1.6434,1.6213,1.5267,1.5359,1.5438,1.5426,1.5581,1.5806,1.6195,1.658,1.6509,1.6036,1.6036,1.6036,1.5979,1.5584,1.541,1.541,1.541,1.541,1.5469,1.5908,1.6348,1.6768,0.0,0.0,0.0,0.0,0.0,0.0,0.0,1.7087,0.0,1.7209,0.0,1.9346,1.8762,1.9286,1.953,1.9043,0.0,1.8817,1.8341,1.8302,1.8302,1.8302,1.8765,1.9006,1.9006,1.8806,0.0,0.0,0.0,0.0,0.0,0.0,0.0,0.0,0.0,0.0,0.0,1.7206,1.7742,1.7876,1.8568,1.8837,1.8837,1.8837,1.9181,1.969,1.969,1.9043,1.8224,1.8224,1.7544,1.671,1.671,1.6761,1.6926,1.7479,1.8396,1.9253,1.9297,2.0457,2.1522,2.1101,2.0968,2.0762,2.021,1.9636,1.922,1.9133,1.8012,1.7333,1.8181,0.0,0.0,0.0,0.0,0.0,0.0,0.0,0.0,0.0,0.0,0.0,0.0,0.0,0.0,0.0,0.0,0.0,0.0,0.0,1.4815,1.6145,1.6007,1.5583,1.4935,1.5496,1.5672,1.5516,1.5998,1.6351,1.6492,1.6492,1.6093,1.541,1.541,1.541,1.541,1.541,1.541,1.541,1.541,1.541,1.5459,1.584,1.6299,1.6738,0.0,0.0,0.0,0.0,0.0,1.6353,1.7989,1.7471,1.7039,1.751,1.8354,1.8837,1.8717,1.9286,1.9639,1.9566,1.9566,0.0,0.0,0.0,0.0,1.9406,1.953,1.9566,1.9566,1.8996,1.8388,0.0,0.0,0.0,0.0,0.0,0.0,0.0,0.0,0.0,1.6592,1.7369,0.0,1.8583,1.9241,1.951,1.951,1.951,1.9585,1.969,1.969,1.9281,1.8765,1.8765,1.8341,1.7827,1.7827,1.8194,1.8658,1.8768,1.9331,2.0029,2.0458,2.0821,2.1115,2.1465,2.1559,2.1411,2.0811,2.0552,2.0317,1.9762,1.9872,1.9821,1.9094,0.0,0.0,0.0,0.0,0.0,0.0,0.0,0.0,0.0,0.0,1.377,0.0,0.0,0.0,0.0,0.0,0.0,0.0,0.0,1.4689,0.0,1.6225,1.6591,0.0,1.6241,1.6649,1.6783,1.6578,1.6448,1.6492,1.6492,1.6093,1.541,1.541,1.541,1.541,1.541,1.541,1.541,1.541,1.541,1.542,1.5498,1.6035,1.6787,0.0,0.0,0.0,0.0,0.0,0.0,0.0,1.7921,0.0,1.8657,1.9016,1.9211,1.9211,1.9495,1.969,1.969,1.969,1.969,1.969,1.969,1.969,1.969,1.969,0.0,1.969,1.9375,1.8732,1.7697,0.0,0.0,0.0,0.0,0.0,0.0,0.0,1.6428,0.0,0.0,0.0,1.8762,1.942,1.969,1.969,1.969,1.969,1.969,1.969,1.953,1.9281,1.9006,1.8786,1.8602,1.8602,1.9072,1.9683,1.9946,2.0526,2.1155,2.1701,2.2047,2.2366,2.2644,2.2209,2.1602,2.1342,2.1028,2.0696,2.0396,2.0361,1.9956,1.8481,1.7312,0.0,0.0,0.0,0.0,0.0,0.0,0.0,0.0,0.0,0.0,0.0,0.0,0.0,0.0,0.0,0.0,0.0,0.0,1.4299,0.0,0.0,0.0,1.5706,0.0,1.688,1.6693,1.6688,1.6575,1.6492,1.6492,1.6093,1.541,1.541,1.541,1.543,1.5654,1.5615,1.543,1.5664,1.5615,1.5439,1.5664,1.6162,1.6758,0.0,1.6098,0.0,0.0,1.6473,0.0,1.7772,1.8373,1.8942,1.96,1.969,1.969,1.969,1.969,1.969,1.969,1.969,1.969,1.969,1.969,1.969,1.969,1.969,1.969,1.969,1.969,1.9106,0.0,0.0,0.0,0.0,0.0,0.0,0.0,0.0,0.0,0.0,0.0,1.8792,1.8957,1.948,1.969,1.969,1.969,1.969,1.969,1.969,1.969,1.9639,1.9207,1.9132,1.9244,1.9385,1.9906,2.0557,2.1121,2.1757,2.2338,2.2789,2.3246,2.3595,2.3595,2.2741,2.1899,2.1744,2.1342,2.093,2.0845,2.0571,1.9813,1.8093,1.7486,1.7061,0.0,0.0,0.0,0.0,0.0,0.0,0.0,0.0,0.0,1.4097,0.0,0.0,0.0,0.0,0.0,1.406,0.0,0.0,0.0,1.5567,1.5599,1.5476,0.0,1.6729,1.6176,1.6376,1.6392,1.6265,1.6265,1.5921,1.541,1.541,1.5469,1.5576,1.5918,1.5859,1.5586,1.5988,1.5791,1.5469,1.5908,1.6348,1.6685,0.0,0.0,0.0,0.0,0.0,0.0,1.8418,1.8672,1.8942,1.96,1.969,1.969,1.969,1.969,1.969,1.969,1.969,1.969,1.969,1.969,1.969,1.969,1.969,1.969,1.969,1.969,1.9331,0.0,0.0,1.7324,0.0,0.0,0.0,0.0,0.0,0.0,1.8523,1.8657,1.9046,1.96,1.966,1.969,1.969,1.969,1.969,1.969,1.969,1.969,1.969,1.9639,1.9647,1.976,2.0347,2.1,2.1694,2.2349,2.2971,2.3434,2.3493,2.3551,2.3595,2.3595,2.3098,2.2452,2.1852,2.1663,2.1472,2.093,2.1218,2.1021,1.925,1.9357,1.8832,0.0,0.0,0.0,0.0,0.0,0.0,0.0,0.0,0.0,0.0,1.3546,0.0,0.0,1.3198,0.0,0.0,0.0,0.0,1.4223,1.5178,1.5393,1.47,1.612,1.6446,1.5731,1.5628,1.5545,1.5526,1.5526,1.5468,1.541,1.541,1.5635,1.6066,1.6105,1.6096,1.6066,1.6105,1.5791,1.5469,1.5908,1.6348,1.6787,0.0,0.0,0.0,0.0,0.0,0.0,0.0,1.9031,1.939,1.9645,1.969,1.969,1.969,1.969,1.969,1.969,1.969,1.969,1.969,1.969,1.969,1.969,1.969,1.969,1.969,1.969,1.9361,0.0,0.0,0.0,0.0,0.0,0.0,1.7309,1.7712,1.8208,1.8732,1.9121,1.9435,1.969,1.969,1.9929,2.0258,1.9839,1.9944,2.0243,1.9824,1.969,1.969,1.969,1.9959,2.0348,2.0632,2.1171,2.1829,2.2488,2.2847,2.3131,2.349,2.3595,2.3595,2.3595,2.2846,2.2039,2.1744,2.1424,2.1064,2.0845,2.0979,2.082,1.9739,1.9438,1.9009,1.7886,0.0,0.0,0.0,0.0,0.0,0.0,0.0,0.0,0.0,0.0,0.0,0.0,0.0,0.0,0.0,0.0,0.0,1.4017,0.0,1.5433,1.5017,1.5844,1.6052,1.5704,1.5491,1.541,1.541,1.541,1.541,1.543,1.5693,1.5908,1.6164,1.6641,1.6543,1.6154,1.6357,1.6191,1.585,1.6299,1.6738,1.7187,1.823,0.0,1.7981,0.0,1.8403,1.8702,1.8702,1.9271,1.969,1.969,1.969,1.969,1.969,1.969,1.969,1.969,1.969,1.969,1.969,1.969,1.969,1.969,1.969,0.0,1.969,1.969,1.945,1.8986,1.8328,0.0,0.0,1.7309,1.7354,1.7996,1.8493,1.8807,1.9031,1.9495,1.969,1.9705,1.9899,2.0288,2.0662,2.0168,2.0288,2.0617,1.9929,1.969,1.969,1.969,2.0154,2.0752,2.0946,2.1321,2.1859,2.2697,2.2951,2.3041,2.3475,2.3465,2.3334,2.3334,2.2377,2.1424,2.1424,2.1113,2.0795,2.0795,2.0795,2.0557,1.9699,1.9284,1.882,1.8319,0.0,0.0,0.0,1.671,0.0,0.0,1.4815,1.4916,1.4916,1.4023,0.0,0.0,0.0,0.0,0.0,0.0,0.0,1.4482,1.4908,1.5142,1.527,1.5549,1.5675,1.5624,1.5494,1.541,1.541,1.541,1.541,1.5439,1.5879,1.6194,1.6318,1.707,1.7012,1.6484,1.6797,1.665,1.6318,1.6758,1.7119,1.7451,1.9632,1.9136,1.8687,1.8687,1.8702,1.8702,1.8702,1.9271,1.969,1.969,1.969,1.969,1.969,1.969,1.969,1.969,1.969,1.969,1.969,1.969,1.969,0.0,0.0,1.969,1.969,1.969,1.969,1.9675,0.0,0.0,1.8672,1.7981,1.8041,1.8687,1.8702,1.9061,1.9675,1.969,1.969,1.975,2.0423,2.0707,2.0722,2.0707,2.0707,2.0617,1.9929,1.969,1.969,1.969,2.0154,2.0827,2.1485,2.168,2.1949,2.3221,2.3595,2.3595,2.3595,2.3143,2.2694,2.2694,2.1752,2.0795,2.0795,2.0795,2.0795,2.0795,2.0795,2.044,1.9232,1.8983,1.8432,1.6823,0.0,0.0,0.0,1.6023,0.0,1.4362,1.4576,1.4916,1.4916,1.4412,0.0,0.0,0.0,0.0,0.0,0.0,0.0,1.5615,1.453,1.4305,1.5174,1.5148,1.5216,1.54,1.541,1.541,1.541,1.541,1.541,1.5439,1.5879,1.6318,1.6758,1.7197,1.7373,1.7363,1.7373,1.7109,1.6777,1.7217,1.7383,1.7451,2.0539,2.0393,2.0186,1.9836,1.9802,1.9714,1.9431,1.9555,1.969,1.969,1.969,1.969,1.969,1.969,1.969,0.0,1.969,1.969,0.0,1.969,1.969,1.969,1.969,1.969,1.969,1.969,1.969,1.969,0.0,1.9173,1.9173,1.908,1.9166,1.9375,1.9375,1.9495,1.969,1.969,1.969,1.9705,1.9929,2.0288,2.0662,2.0183,2.0303,2.0617,1.9929,1.969,1.975,2.0228,2.0528,2.0917,2.2024,2.2054,2.1859,2.2712,2.264,2.2411,2.2848,2.2529,2.1993,2.1993,2.1403,2.0795,2.0795,2.0459,2.0105,2.0105,2.0105,2.0004,1.9636,1.9271,1.8731,1.7815,1.7965,0.0,1.5969,0.0,1.6384,1.5304,1.5029,1.5054,1.5392,1.5279,0.0,0.0,0.0,0.0,0.0,0.0,1.5441,1.5441,1.5434,1.5289,1.4938,1.4884,1.5077,1.541,1.541,1.541,1.541,1.541,1.541,1.5439,1.5879,1.6318,1.6768,1.7207,1.7383,1.7383,1.7383,1.7305,1.7197,1.7334,1.7568,1.7832,2.1006,2.0991,2.0894,2.0616,2.055,2.0431,2.0,1.9945,1.9874,1.9711,1.969,1.969,1.969,1.969,0.0,1.969,1.969,1.969,1.969,1.969,1.969,1.969,1.969,1.9782,1.9909,1.9945,2.0,2.0174,2.0059,2.0047,2.0113,2.0253,2.0352,2.0438,2.0438,2.0303,2.0094,2.0333,2.0303,2.0094,2.0348,2.0692,2.1006,2.0333,2.0348,2.0617,1.9929,1.9854,2.0139,2.0572,2.1036,2.1605,2.2428,2.2423,2.2155,2.2596,2.2382,2.2101,2.2292,2.1866,2.1342,2.1342,2.0868,2.0396,2.0396,2.0105,1.9798,1.9798,1.9798,1.9798,1.9798,1.9208,1.8606,1.8254,1.8028,1.7501,1.6371,0.0,1.6484,0.0,0.0,1.563,0.0,1.6195,1.6183,0.0,0.0,0.0,0.0,0.0,1.6113,1.5964,1.5898,1.5584,1.5154,1.4887,1.5,1.541,1.541,1.541,1.541,1.541,1.541,1.5449,1.6055,1.6475,1.6777,1.7373,1.7617,1.7617,1.7617,1.7617,1.7617,1.7617,1.7783,1.8008,2.1214,2.1135,2.1119,2.1119,2.1071,2.0894,2.0416,2.0348,2.0227,1.9854,1.9782,1.9782,1.9782,1.9782,1.9782,1.9782,1.9747,1.9747,1.9782,1.9782,1.9782,1.9782,1.9827,2.0041,2.041,2.041,2.063,2.1023,2.0991,2.1112,2.1372,2.1337,2.143,2.1695,2.1695,2.1335,2.0752,2.1365,2.1246,2.0692,2.1365,2.1605,2.15,2.0932,2.0677,2.0557,1.9914,2.0124,2.0722,2.0767,2.1605,2.2622,2.267,2.2658,2.2637,2.2694,2.2649,2.2452,2.1805,2.121,2.0746,2.0746,2.0245,1.9798,1.9798,1.9798,1.9798,1.9798,1.9798,1.9798,1.9798,1.8932,1.8204,1.8204,1.7702,1.6936,1.5844,1.6597,1.6741,0.0,0.0,1.6547,1.6622,1.7162,1.7463,0.0,0.0,0.0,0.0,1.6691,1.6264,1.7179,1.599,1.55,1.5735,1.5149,1.5039,1.5459,1.5459,1.5478,1.5508,1.5469,1.5459,1.5508,1.6328,1.6689,1.6748,1.7607,1.7969,1.7969,1.7998,1.8008,1.8008,1.8008,1.8008,1.8008,2.2722,2.2387,2.2052,2.2274,2.182,2.1306,2.0894,2.0829,2.0797,2.0698,2.0698,2.0698,2.0698,2.0698,2.0698,2.0698,2.0364,2.0296,2.0665,2.0698,2.0698,2.0698,2.1221,2.1573,2.1658,2.1658,2.1601,2.146,2.115,2.1293,2.1827,2.1463,2.143,2.1695,2.1695,2.1335,2.0722,2.0887,2.0557,1.9989,2.0677,2.0632,2.0198,2.0572,2.0378,1.9914,1.975,2.0124,2.0797,2.1291,2.1665,2.2017,2.2542,2.2351,2.2031,2.2565,2.1988,2.1224,2.1077,2.0547,2.0055,2.0055,1.9901,1.9798,1.9798,1.9798,1.9798,1.9798,1.9798,1.9798,1.9798,1.8932,1.8204,1.8204,1.7375,1.6484,1.5793,1.5919,1.6107,0.0,1.6358,1.6861,1.7727,1.8304,1.8292,0.0,0.0,1.8329,1.7614,1.7974,1.8215,1.8322,1.7489,1.6797,1.6325,1.5598,1.5478,1.5908,1.5908,1.6084,1.6406,1.6064,1.5908,1.5918,1.6133,1.6221,1.6289,1.7168,1.7529,1.7568,1.7881,1.8008,1.8008,1.8008,1.8008,1.8008,2.3257,2.3071,2.2962,2.3441,2.3193,2.2772,2.2378,2.2346,2.2232,2.2018,2.2018,2.2018,2.2018,2.2018,2.1955,2.1778,2.1069,2.0731,2.0991,2.1327,2.1487,2.1487,2.2194,2.2715,2.2899,2.2899,2.2752,2.2412,2.2545,2.2541,2.2458,2.2528,2.2578,2.2562,2.2562,2.2203,2.1605,2.1605,2.1216,2.0602,2.0692,2.0483,2.0168,2.0228,2.0019,1.9735,2.0049,2.0587,2.1261,2.1919,2.2159,2.2204,2.2582,2.2041,2.137,2.1702,2.1321,2.0746,2.0459,2.0105,1.9798,1.9798,1.9798,1.9798,1.9798,1.9798,1.9798,1.9798,1.9798,1.9798,1.9798,1.871,1.7894,1.8157,1.6814,1.5738,1.569,1.5906,1.6183,1.6484,1.72,1.7915,1.853,1.907,1.9133,1.853,1.8819,1.8869,1.8505,1.8832,1.8782,1.8358,1.8158,1.7578,1.6482,1.5758,1.5527,1.5762,1.6027,1.6191,1.6416,1.6172,1.6125,1.6125,1.6125,1.6125,1.6174,1.6807,1.7207,1.7402,1.7637,1.7842,1.7988,1.7793,1.7725,1.7695,2.3562,2.363,2.3799,2.4557,2.456,2.4382,2.4032,2.4,2.3852,2.3434,2.34,2.34,2.34,2.34,2.3291,2.2992,2.2099,2.1488,2.1359,2.1973,2.2345,2.2442,2.3173,2.3749,2.4133,2.4166,2.3978,2.3562,2.4093,2.3967,2.3155,2.3724,2.3833,2.3595,2.3505,2.3116,2.2532,2.2532,2.2084,2.1365,2.1006,2.0737,2.0513,2.0139,1.9929,1.9929,2.0617,2.1291,2.1934,2.2488,2.2628,2.2534,2.256,2.1683,2.0641,2.0633,2.066,2.0497,1.9952,1.9798,1.9798,1.9798,1.9798,1.9798,1.9798,1.9748,1.971,1.9786,1.9673,1.961,1.9773,1.8375,1.7364,1.7972,1.6239,1.5019,1.5611,1.617,1.6541,1.676,1.8056,1.9008,1.9083,1.9547,1.9798,1.9798,1.9397,1.9296,1.966,1.9334,1.8783,1.8094,1.8494,1.8015,1.6482,1.5758,1.5449,1.5518,1.5957,1.6262,1.6321,1.6191,1.6162,1.6223,1.6154,1.6086,1.6006,1.6514,1.6914,1.7197,1.7334,1.7598,1.7881,1.7588,1.7441,1.7334,2.5,2.4746,2.4543,2.5304,2.4898,2.4475,2.4413,2.4413,2.4382,2.4303,2.4303,2.4303,2.4303,2.4303,2.4301,2.4245,2.4065,2.3698,2.3063,2.3113,2.3496,2.4101,2.4809,2.5261,2.5326,2.5343,2.5004,2.4337,2.398,2.388,2.3925,2.3584,2.3488,2.358,2.3056,2.2458,2.1844,2.1844,2.1126,2.0094,2.1126,2.0857,1.9959,2.0991,2.1036,2.0632,2.1306,2.1964,2.2547,2.2679,2.2319,2.1856,2.1839,2.1003,1.9982,1.9965,1.9952,1.9952,1.985,1.9798,1.9798,1.9798,1.9798,1.9798,1.9798,1.9459,1.9271,1.971,1.9083,1.8731,1.9635,1.7995,1.6737,1.741,1.6008,1.5019,1.5611,1.617,1.6873,1.7827,1.8593,1.9196,1.9635,1.9761,1.9798,1.9798,1.9723,1.9522,1.9171,1.9484,1.9421,1.8821,1.8726,1.8015,1.6482,1.5758,1.5596,1.6027,1.6416,1.6816,1.7168,1.6797,1.6631,1.6611,1.623,1.5859,1.5576,1.6396,1.6553,1.6338,1.709,1.7422,1.7519,1.7803,1.7686,1.7373,2.5321,2.522,2.5169,2.6031,2.5896,2.5676,2.5676,2.5676,2.5676,2.5676,2.5676,2.5676,2.5676,2.5676,2.5524,2.5118,2.5084,2.4949,2.4611,2.4577,2.4746,2.5067,2.5795,2.6184,2.6184,2.5933,2.543,2.4679,2.4568,2.4211,2.3669,2.3809,2.36,2.3086,2.2802,2.2544,2.2203,2.1844,2.1545,2.1321,2.159,2.1111,2.0348,2.1321,2.1291,2.0857,2.1859,2.2428,2.2768,2.3056,2.2513,2.1675,2.1708,2.0815,1.9824,1.9774,1.9798,1.9798,1.9798,1.9798,1.9798,1.9798,1.9798,1.9798,1.9798,1.961,1.951,1.9748,1.9183,1.8684,1.8855,1.7545,1.6416,1.6435,1.5524,1.5019,1.5611,1.6434,1.7287,1.8103,1.8945,1.9535,1.9773,1.9798,1.9798,1.9798,1.9798,1.9698,1.9459,1.9673,1.9698,1.9447,1.8543,1.7578,1.6482,1.5758,1.5508,1.5723,1.6162,1.6475,1.666,1.6465,1.6367,1.6348,1.5898,1.5596,1.5449,1.585,1.6035,1.6184,1.6777,1.7178,1.7402,1.7598,1.7549,1.7344,2.5462,2.553,2.5597,2.6233,2.635,2.635,2.635,2.635,2.635,2.635,2.647,2.6556,2.6556,2.6624,2.6471,2.5913,2.5862,2.5862,2.5862,2.5862,2.5862,2.5862,2.6404,2.6691,2.6691,2.6227,2.5697,2.5069,2.5024,2.4524,2.3566,2.3994,2.3747,2.2877,2.2742,2.2724,2.2679,2.2143,2.2039,2.2203,2.1994,2.144,2.0797,2.162,2.1605,2.1321,2.2473,2.2892,2.2966,2.3258,2.2651,2.1663,2.152,2.0706,1.9798,1.9798,1.9798,1.9773,1.966,1.971,1.9773,1.966,1.971,1.9798,1.9798,1.971,1.966,1.9773,1.9284,1.8722,1.8359,1.7279,1.6334,1.6074,1.5449,1.5283,1.6161,1.7024,1.7815,1.8493,1.9296,1.9798,1.9798,1.9798,1.9798,1.9798,1.9798,1.9798,1.9798,1.9798,1.9631,1.9307,1.8167,1.7257,1.6482,1.5758,1.541,1.542,1.5859,1.6125,1.6125,1.6125,1.6125,1.6096,1.5596,1.541,1.541,1.541,1.5605,1.5967,1.6514,1.6943,1.7256,1.7451,1.7471,1.7324,2.5889,2.595,2.5806,2.5395,2.5297,2.5297,2.5297,2.5297,2.5297,2.5297,2.5726,2.6049,2.6049,2.6436,2.6674,2.6623,2.6623,2.6623,2.6623,2.6623,2.6623,2.6623,2.6657,2.6691,2.6691,2.6227,2.598,2.5931,2.4957,2.4399,2.4312,2.3864,2.3608,2.3505,2.2936,2.2724,2.2724,2.2664,2.1934,2.0961,2.2143,2.1844,2.0857,2.2113,2.2619,2.2622,2.3295,2.3535,2.3448,2.295,2.23,2.1615,2.1028,2.0396,1.9798,1.9798,1.9798,1.9698,1.9221,1.9434,1.9685,1.9158,1.9447,1.9798,1.9798,1.9434,1.9221,1.9698,1.8982,1.8417,1.8833,1.7544,1.6604,1.7177,1.6313,1.611,1.7772,1.8091,1.853,1.956,1.9748,1.9798,1.9798,1.9798,1.9798,1.9798,1.9798,1.9798,1.9798,1.9798,1.915,1.7797,1.7688,1.7257,1.6482,1.5758,1.541,1.542,1.5859,1.6125,1.6125,1.6125,1.6125,1.6096,1.5596,1.541,1.541,1.541,1.543,1.5547,1.6396,1.6748,1.6875,1.7676,1.7715,1.7249,2.5936,2.5556,2.5214,2.5182,2.5044,2.4965,2.5182,2.5221,2.5221,2.5221,2.5652,2.6013,2.6013,2.6401,2.6691,2.6691,2.6691,2.6691,2.6691,2.6691,2.6691,2.6691,2.6691,2.6691,2.6691,2.6227,2.5852,2.5486,2.4736,2.4225,2.3921,2.3681,2.3385,2.3011,2.2787,2.2724,2.2724,2.2724,2.2607,2.2547,2.3041,2.2712,2.2024,2.2906,2.3011,2.2798,2.337,2.3595,2.3508,2.292,2.2253,2.1615,2.0979,2.0346,1.9798,1.9798,1.9798,1.9685,1.9171,1.9409,1.9748,1.956,1.966,1.9798,1.9798,1.9648,1.956,1.9761,1.9221,1.8622,1.846,1.7934,1.7355,1.6873,1.7027,1.7458,1.8094,1.8505,1.8982,1.971,1.9798,1.9798,1.9798,1.9798,1.9798,1.9798,1.9798,1.9592,1.915,1.8661,1.8178,1.7633,1.7146,1.6585,1.5806,1.5526,1.541,1.541,1.5576,1.5664,1.5664,1.5664,1.5664,1.5654,1.5488,1.541,1.541,1.541,1.5566,1.585,1.6191,1.665,1.7178,1.75,1.7159,1.6505,2.5986,2.5389,2.4902,2.495,2.4608,2.442,2.4672,2.4712,2.4712,2.4712,2.5182,2.5577,2.5726,2.6175,2.6556,2.6691,2.659,2.647,2.647,2.6315,2.6385,2.6691,2.6691,2.6624,2.647,2.5997,2.5503,2.495,2.443,2.3948,2.3595,2.3595,2.337,2.2966,2.2966,2.2966,2.2966,2.2966,2.3101,2.3325,2.352,2.3236,2.2783,2.337,2.3325,2.3026,2.3445,2.3595,2.3465,2.268,2.21,2.1568,2.0733,2.0156,1.9798,1.9798,1.9798,1.9723,1.9371,1.9522,1.9761,1.9597,1.9685,1.9798,1.9798,1.9798,1.9798,1.9798,1.9522,1.9008,1.8251,1.8289,1.8124,1.7107,1.7782,1.8518,1.8681,1.9032,1.9409,1.9761,1.9798,1.9798,1.9798,1.9798,1.9798,1.9798,1.9798,1.9579,1.9097,1.8124,1.7578,1.7578,1.709,1.6368,1.541,1.541,1.541,1.541,1.541,1.541,1.541,1.541,1.541,1.541,1.541,1.5488,1.5605,1.5469,1.5752,1.626,1.6184,1.6523,1.7197,1.7334,1.6938,1.6196,2.6068,2.5577,2.5028,2.4511,2.3964,2.3595,2.3595,2.3595,2.3595,2.3595,2.4074,2.4632,2.5144,2.5689,2.6191,2.6657,2.6262,2.5997,2.5997,2.5503,2.5635,2.6657,2.6691,2.647,2.5997,2.5449,2.495,2.4389,2.3879,2.3595,2.3595,2.3595,2.3595,2.3595,2.3595,2.3595,2.3595,2.3595,2.3236,2.2783,2.3355,2.3236,2.2783,2.337,2.3595,2.3595,2.3595,2.3595,2.3406,2.2132,2.1697,2.1459,2.0181,1.9798,1.9798,1.9798,1.9798,1.9798,1.9798,1.9798,1.9673,1.9171,1.9422,1.9798,1.9798,1.9798,1.9798,1.9798,1.9798,1.9472,1.8417,1.8668,1.8857,1.8304,1.8681,1.9221,1.9736,1.9798,1.9798,1.9798,1.9798,1.9798,1.9798,1.9798,1.9798,1.9798,1.9798,1.9798,1.9798,1.8394,1.7578,1.7578,1.7578,1.6912,1.541,1.541,1.541,1.541,1.541,1.541,1.541,1.541,1.541,1.541,1.541,1.5654,1.6086,1.5586,1.5928,1.668,1.623,1.6338,1.6787,1.7217,1.71,1.6465,2.6139,2.5888,2.5577,2.5051,2.4831,2.4712,2.4712,2.4712,2.4712,2.4712,2.4855,2.5012,2.5182,2.5335,2.5486,2.5635,2.5524,2.5449,2.5449,2.5297,2.5319,2.5635,2.5635,2.5598,2.5449,2.5297,2.495,2.4389,2.4225,2.3948,2.3595,2.3595,2.3595,2.3595,2.3595,2.3595,2.3595,2.3595,2.349,2.334,2.3535,2.349,2.334,2.3535,2.3595,2.3595,2.3595,2.3334,2.2815,2.1993,2.1424,2.093,2.0042,1.9798,1.9798,1.9798,1.9798,1.9798,1.9798,1.9798,1.9761,1.961,1.9685,1.9798,1.9798,1.9798,1.9798,1.9798,1.9798,1.9698,1.9384,1.9459,1.9522,1.9359,1.9459,1.9623,1.9773,1.9798,1.9798,1.9798,1.9798,1.9798,1.9798,1.9798,1.9798,1.9798,1.9307,1.9254,1.9747,1.8394,1.7578,1.7578,1.7578,1.6912,1.541,1.5921,1.5921,1.541,1.541,1.541,1.541,1.541,1.541,1.541,1.541,1.5488,1.5596,1.5469,1.5752,1.6221,1.5771,1.6074,1.6709,1.6523,1.6057,1.5374,2.6838,2.659,2.6336,2.599,2.5664,2.5422,2.5422,2.5303,2.5221,2.5221,2.5221,2.5297,2.5486,2.554,2.554,2.554,2.5144,2.4776,2.4592,2.4592,2.4592,2.4592,2.4592,2.4672,2.4855,2.4855,2.4632,2.4074,2.4074,2.3921,2.3595,2.3595,2.3595,2.3595,2.3595,2.3595,2.3595,2.3595,2.3595,2.3595,2.3595,2.3595,2.3595,2.3595,2.3595,2.3595,2.3595,2.3187,2.2603,2.1946,2.1148,2.0346,1.9952,1.9798,1.9798,1.9798,1.966,1.9497,1.9497,1.9497,1.9497,1.9497,1.9648,1.9798,1.9798,1.9798,1.9798,1.9798,1.9798,1.9748,1.9535,1.966,1.9736,1.9522,1.966,1.9798,1.9798,1.9798,1.9798,1.9798,1.9798,1.9798,1.9798,1.9798,1.9798,1.9798,1.9097,1.9044,1.9747,1.8394,1.7578,1.7578,1.7895,1.718,1.541,1.6415,1.6425,1.541,1.541,1.541,1.541,1.541,1.541,1.541,1.541,1.5508,1.5654,1.5488,1.5771,1.6269,1.5654,1.585,1.6436,1.6162,1.5645,1.5088,2.7897,2.7502,2.7174,2.7174,2.6521,2.5957,2.5938,2.5628,2.5357,2.5335,2.5297,2.5465,2.5961,2.5977,2.5924,2.5924,2.4989,2.4184,2.3638,2.3595,2.3595,2.3595,2.3595,2.3837,2.4307,2.4307,2.4074,2.3595,2.3595,2.3595,2.3595,2.3595,2.3595,2.3595,2.3595,2.3595,2.3595,2.3595,2.3595,2.3595,2.3595,2.3595,2.3595,2.3595,2.3595,2.3595,2.3595,2.3187,2.2498,2.1758,2.0756,1.9798,1.9798,1.9798,1.9798,1.9798,1.9459,1.9046,1.9046,1.9046,1.9046,1.9046,1.9447,1.9798,1.9798,1.9798,1.9798,1.9798,1.9798,1.966,1.9183,1.9484,1.9648,1.9171,1.9497,1.9798,1.9798,1.9798,1.9798,1.9798,1.9798,1.9798,1.9798,1.9798,1.9798,1.9798,1.9202,1.9097,1.9747,1.8555,1.7797,1.7688,1.8328,1.7665,1.5526,1.6856,1.68,1.541,1.541,1.541,1.541,1.541,1.541,1.541,1.541,1.5635,1.5977,1.5576,1.5889,1.6533,1.5723,1.5654,1.6066,1.6066,1.5752,1.5352,2.7954,2.7823,2.773,2.773,2.7566,2.7339,2.7014,2.6886,2.674,2.6419,2.6068,2.5888,2.5977,2.5615,2.5373,2.5373,2.4792,2.4184,2.3638,2.3595,2.3595,2.3595,2.3595,2.3638,2.3752,2.3752,2.3724,2.3595,2.3595,2.3595,2.3595,2.3595,2.3595,2.3595,2.3595,2.3595,2.3595,2.3595,2.3595,2.3595,2.3595,2.3595,2.3595,2.3595,2.3595,2.3595,2.3595,2.2891,2.1758,2.062,2.0042,1.9798,1.9798,1.9798,1.9798,1.9798,1.9723,1.9635,1.9635,1.9635,1.9635,1.9635,1.971,1.9798,1.9798,1.9798,1.9798,1.9798,1.9798,1.9761,1.966,1.9723,1.9761,1.966,1.9723,1.9798,1.9798,1.9798,1.9798,1.9798,1.9798,1.9798,1.9798,1.9798,1.9798,1.9798,1.9643,1.9631,1.9798,1.9475,1.9044,1.8501,1.8608,1.7895,1.6265,1.6595,1.6312,1.541,1.541,1.541,1.541,1.541,1.541,1.541,1.541,1.5469,1.5547,1.5449,1.5527,1.5684,1.5488,1.5469,1.5557,1.5557,1.5498,1.5186,2.8183,2.7992,2.7897,2.7897,2.7754,2.753,2.7317,2.7147,2.6939,2.6725,2.6487,2.6332,2.6332,2.6087,2.5835,2.5615,2.4871,2.4266,2.3991,2.3752,2.3595,2.3595,2.3595,2.3595,2.3595,2.3595,2.3595,2.3595,2.3595,2.3595,2.3595,2.3595,2.3595,2.3595,2.3595,2.3595,2.3595,2.3595,2.3595,2.3595,2.3595,2.3595,2.3595,2.3595,2.3595,2.3595,2.3595,2.2786,2.1506,2.0232,1.9798,1.9798,1.9798,1.9798,1.9798,1.9798,1.9623,1.9434,1.9434,1.9434,1.9434,1.9434,1.9623,1.9798,1.9798,1.9798,1.9798,1.9798,1.9798,1.9798,1.9798,1.9798,1.9798,1.9798,1.9798,1.9798,1.9798,1.9798,1.9798,1.9798,1.9798,1.9798,1.9798,1.9798,1.9798,1.9798,1.9798,1.9798,1.9798,1.9798,1.9307,1.8232,1.8501,1.7841,1.5979,1.6312,1.6151,1.541,1.541,1.541,1.541,1.541,1.541,1.541,1.541,1.541,1.541,1.541,1.541,1.541,1.541,1.541,1.541,1.541,1.541,1.5177,2.8316,2.8102,2.7897,2.7897,2.7619,2.7378,2.7303,2.7036,2.6791,2.6725,2.6691,2.6691,2.6691,2.6691,2.6505,2.6049,2.5182,2.4592,2.443,2.3991,2.3681,2.3595,2.3595,2.3595,2.3595,2.3595,2.3595,2.3595,2.3595,2.3595,2.3595,2.3595,2.3595,2.3595,2.3595,2.3595,2.3595,2.3595,2.3595,2.3595,2.3595,2.3595,2.3595,2.3595,2.3595,2.361,2.3465,2.2606,2.1376,2.0181,1.9798,1.9798,1.9798,1.9798,1.9798,1.9798,1.9497,1.9158,1.9158,1.9158,1.9158,1.9158,1.9484,1.9798,1.9798,1.9798,1.9798,1.9798,1.9798,1.9798,1.9798,1.9798,1.9798,1.9798,1.9798,1.9798,1.9798,1.9798,1.9798,1.9798,1.9798,1.9798,1.9798,1.9798,1.9798,1.9798,1.9683,1.9695,1.9798,1.9695,1.9032,1.7852,1.8286,1.7556,1.5584,1.6093,1.6036,1.541,1.541,1.541,1.541,1.541,1.541,1.541,1.541,1.541,1.541,1.541,1.541,1.541,1.541,1.541,1.541,1.541,1.541,1.5177,2.7982,2.7926,2.7897,2.7897,2.7869,2.7678,2.7348,2.7255,2.7083,2.6758,2.6691,2.6691,2.6691,2.6691,2.6505,2.6049,2.5888,2.5373,2.4471,2.4348,2.4074,2.3638,2.3595,2.3595,2.3595,2.3595,2.3595,2.3595,2.3595,2.3595,2.3595,2.3595,2.3595,2.3595,2.3595,2.3595,2.3595,2.3595,2.3595,2.3595,2.3595,2.3595,2.3595,2.3595,2.3595,2.3508,2.3009,2.1974,2.0795,2.0055,1.9798,1.9798,1.9798,1.9798,1.9798,1.9798,1.9748,1.9698,1.9698,1.9698,1.9698,1.9698,1.9748,1.9798,1.9798,1.9798,1.9798,1.9798,1.9798,1.9798,1.9798,1.9798,1.9798,1.9798,1.9798,1.9798,1.9798,1.9798,1.9798,1.9798,1.9798,1.9798,1.9798,1.9798,1.9798,1.9798,1.9202,1.915,1.9747,1.9202,1.8768,1.8555,1.8015,1.7302,1.6379,1.5806,1.5526,1.541,1.541,1.541,1.541,1.541,1.541,1.541,1.541,1.541,1.541,1.541,1.541,1.541,1.541,1.541,1.541,1.541,1.541,1.5177,2.756,2.7378,2.7241,2.7241,2.7241,2.7178,2.7004,2.6954,2.6906,2.6725,2.6691,2.6691,2.6691,2.6691,2.6624,2.6401,2.6156,2.5815,2.5335,2.5012,2.4632,2.4074,2.4032,2.3921,2.3595,2.3595,2.3595,2.3595,2.3595,2.3595,2.3595,2.3595,2.3595,2.3595,2.3595,2.3595,2.3595,2.3595,2.3595,2.3595,2.3595,2.3595,2.3595,2.3595,2.3595,2.345,2.2469,2.1534,2.0696,2.0055,1.9798,1.9798,1.9798,1.9798,1.9798,1.9798,1.9798,1.9798,1.9798,1.9798,1.9798,1.9798,1.9798,1.9798,1.9798,1.9798,1.9798,1.9798,1.9798,1.9798,1.9798,2.0075,2.0175,1.9849,2.0326,2.0639,2.0326,2.0288,2.0162,1.9836,1.9798,1.9798,1.9798,1.9798,1.9798,1.9798,1.9097,1.8821,1.915,1.8501,1.7895,1.7468,1.7146,1.6641,1.5864,1.5584,1.541,1.541,1.541,1.541,1.541,1.541,1.541,1.541,1.541,1.541,1.541,1.541,1.541,1.541,1.541,1.541,1.541,1.541,1.541,1.5177]}]]